<?xml version="1.0" encoding="UTF-8" standalone="no" ?>
<gpx xmlns="http://www.topografix.com/GPX/1/1" xmlns:xsi="http://www.w3.org/2001/XMLSchema-instance" xsi:schemaLocation="http://www.topografix.com/GPX/1/1 http://www.topografix.com/GPX/1/1/gpx.xsd" version="1.1" creator="VisuGPX - https://www.visugpx.com">
  <metadata>
    <name>Rando roller du lundi 192</name>
    <desc><![CDATA[Rando roller du lundi 192]]></desc>
  </metadata>
  <trk>
    <name><![CDATA[Rando roller du lundi 192_1]]></name>
    <trkseg>
      <trkpt lat="48.8575" lon="2.34658">
        <ele>42.910446</ele>
        <time>2014-06-16T18:03:20Z</time>
      </trkpt>
      <trkpt lat="48.85733" lon="2.34709">
        <ele>44</ele>
        <time>2014-06-16T18:04:05Z</time>
      </trkpt>
      <trkpt lat="48.85744" lon="2.34716">
        <ele>44</ele>
        <time>2014-06-16T18:04:19Z</time>
      </trkpt>
      <trkpt lat="48.85756" lon="2.34722">
        <ele>44</ele>
        <time>2014-06-16T18:04:27Z</time>
      </trkpt>
      <trkpt lat="48.85744" lon="2.34726">
        <ele>43</ele>
        <time>2014-06-16T18:04:59Z</time>
      </trkpt>
      <trkpt lat="48.85734" lon="2.34723">
        <ele>43</ele>
        <time>2014-06-16T18:06:20Z</time>
      </trkpt>
      <trkpt lat="48.85724" lon="2.34719">
        <ele>44</ele>
        <time>2014-06-16T18:06:28Z</time>
      </trkpt>
      <trkpt lat="48.85714" lon="2.34715">
        <ele>43</ele>
        <time>2014-06-16T18:06:32Z</time>
      </trkpt>
      <trkpt lat="48.85727" lon="2.34717">
        <ele>44</ele>
        <time>2014-06-16T18:06:48Z</time>
      </trkpt>
      <trkpt lat="48.85737" lon="2.34722">
        <ele>44</ele>
        <time>2014-06-16T18:07:09Z</time>
      </trkpt>
      <trkpt lat="48.85751" lon="2.34733">
        <ele>43</ele>
        <time>2014-06-16T18:07:30Z</time>
      </trkpt>
      <trkpt lat="48.85763" lon="2.34731">
        <ele>43</ele>
        <time>2014-06-16T18:07:42Z</time>
      </trkpt>
      <trkpt lat="48.85753" lon="2.34724">
        <ele>43</ele>
        <time>2014-06-16T18:08:12Z</time>
      </trkpt>
      <trkpt lat="48.85744" lon="2.34724">
        <ele>43</ele>
        <time>2014-06-16T18:10:38Z</time>
      </trkpt>
      <trkpt lat="48.85753" lon="2.34728">
        <ele>43</ele>
        <time>2014-06-16T18:11:10Z</time>
      </trkpt>
      <trkpt lat="48.85741" lon="2.34731">
        <ele>43</ele>
        <time>2014-06-16T18:11:26Z</time>
      </trkpt>
      <trkpt lat="48.85732" lon="2.34735">
        <ele>44</ele>
        <time>2014-06-16T18:11:50Z</time>
      </trkpt>
      <trkpt lat="48.85741" lon="2.34725">
        <ele>43</ele>
        <time>2014-06-16T18:12:42Z</time>
      </trkpt>
      <trkpt lat="48.85749" lon="2.34731">
        <ele>43</ele>
        <time>2014-06-16T18:13:29Z</time>
      </trkpt>
      <trkpt lat="48.8574" lon="2.34728">
        <ele>43</ele>
        <time>2014-06-16T18:14:24Z</time>
      </trkpt>
      <trkpt lat="48.85749" lon="2.34725">
        <ele>44.558074</ele>
        <time>2014-06-16T18:15:39Z</time>
      </trkpt>
      <trkpt lat="48.85741" lon="2.34731">
        <ele>43.245723</ele>
        <time>2014-06-16T18:16:54Z</time>
      </trkpt>
      <trkpt lat="48.8575" lon="2.34734">
        <ele>44.421295</ele>
        <time>2014-06-16T18:17:32Z</time>
      </trkpt>
      <trkpt lat="48.85758" lon="2.34741">
        <ele>43.979282</ele>
        <time>2014-06-16T18:18:59Z</time>
      </trkpt>
      <trkpt lat="48.85749" lon="2.34734">
        <ele>44.148754</ele>
        <time>2014-06-16T18:19:11Z</time>
      </trkpt>
      <trkpt lat="48.85739" lon="2.34737">
        <ele>43</ele>
        <time>2014-06-16T18:19:36Z</time>
      </trkpt>
      <trkpt lat="48.85721" lon="2.34727">
        <ele>43</ele>
        <time>2014-06-16T18:19:40Z</time>
      </trkpt>
      <trkpt lat="48.85704" lon="2.34717">
        <ele>43</ele>
        <time>2014-06-16T18:19:44Z</time>
      </trkpt>
      <trkpt lat="48.85691" lon="2.34711">
        <ele>43</ele>
        <time>2014-06-16T18:19:48Z</time>
      </trkpt>
      <trkpt lat="48.85681" lon="2.34705">
        <ele>43</ele>
        <time>2014-06-16T18:19:52Z</time>
      </trkpt>
      <trkpt lat="48.85694" lon="2.3471">
        <ele>43.315185</ele>
        <time>2014-06-16T18:19:59Z</time>
      </trkpt>
      <trkpt lat="48.85703" lon="2.34714">
        <ele>43.433673</ele>
        <time>2014-06-16T18:20:03Z</time>
      </trkpt>
      <trkpt lat="48.85714" lon="2.34717">
        <ele>44.25782</ele>
        <time>2014-06-16T18:20:09Z</time>
      </trkpt>
      <trkpt lat="48.85722" lon="2.34722">
        <ele>44.016471</ele>
        <time>2014-06-16T18:20:17Z</time>
      </trkpt>
      <trkpt lat="48.85731" lon="2.34727">
        <ele>44.206897</ele>
        <time>2014-06-16T18:20:23Z</time>
      </trkpt>
      <trkpt lat="48.8574" lon="2.34731">
        <ele>43.595573</ele>
        <time>2014-06-16T18:20:36Z</time>
      </trkpt>
      <trkpt lat="48.85749" lon="2.34737">
        <ele>44.180572</ele>
        <time>2014-06-16T18:20:53Z</time>
      </trkpt>
      <trkpt lat="48.85745" lon="2.34732">
        <ele>44.563339</ele>
        <time>2014-06-16T18:22:24Z</time>
      </trkpt>
      <trkpt lat="48.85745" lon="2.34732">
        <ele>44.563339</ele>
        <time>2014-06-16T18:22:24Z</time>
      </trkpt>
      <trkpt lat="48.85703" lon="2.34714">
        <ele>43.4</ele>
        <time>2014-06-16T18:20:03Z</time>
      </trkpt>
      <trkpt lat="48.85714" lon="2.34717">
        <ele>44.2</ele>
        <time>2014-06-16T18:20:09Z</time>
      </trkpt>
      <trkpt lat="48.85722" lon="2.34722">
        <ele>44</ele>
        <time>2014-06-16T18:20:17Z</time>
      </trkpt>
      <trkpt lat="48.85731" lon="2.34727">
        <ele>44.2</ele>
        <time>2014-06-16T18:20:23Z</time>
      </trkpt>
      <trkpt lat="48.8574" lon="2.34731">
        <ele>43.5</ele>
        <time>2014-06-16T18:20:36Z</time>
      </trkpt>
      <trkpt lat="48.85749" lon="2.34737">
        <ele>44.1</ele>
        <time>2014-06-16T18:20:53Z</time>
      </trkpt>
      <trkpt lat="48.85745" lon="2.34732">
        <ele>44.5</ele>
        <time>2014-06-16T18:22:24Z</time>
      </trkpt>
      <trkpt lat="48.85745" lon="2.34732">
        <ele>44.5</ele>
        <time>2014-06-16T18:22:24Z</time>
      </trkpt>
      <trkpt lat="48.85745" lon="2.34732">
        <ele>44.5</ele>
        <time>2014-06-16T18:22:24Z</time>
      </trkpt>
      <trkpt lat="48.85703" lon="2.34714">
        <ele>43.4</ele>
        <time>2014-06-16T18:20:03Z</time>
      </trkpt>
      <trkpt lat="48.85714" lon="2.34717">
        <ele>44.2</ele>
        <time>2014-06-16T18:20:09Z</time>
      </trkpt>
      <trkpt lat="48.85722" lon="2.34722">
        <ele>44</ele>
        <time>2014-06-16T18:20:17Z</time>
      </trkpt>
      <trkpt lat="48.85731" lon="2.34727">
        <ele>44.2</ele>
        <time>2014-06-16T18:20:23Z</time>
      </trkpt>
      <trkpt lat="48.8574" lon="2.34731">
        <ele>43.5</ele>
        <time>2014-06-16T18:20:36Z</time>
      </trkpt>
      <trkpt lat="48.85749" lon="2.34737">
        <ele>44</ele>
        <time>2014-06-16T18:20:53Z</time>
      </trkpt>
      <trkpt lat="48.85745" lon="2.34732">
        <ele>44.5</ele>
        <time>2014-06-16T18:22:24Z</time>
      </trkpt>
      <trkpt lat="48.85745" lon="2.34732">
        <ele>44.5</ele>
        <time>2014-06-16T18:22:24Z</time>
      </trkpt>
      <trkpt lat="48.85737" lon="2.34728">
        <ele>39.7</ele>
        <time>2014-06-16T18:24:28Z</time>
      </trkpt>
      <trkpt lat="48.85732" lon="2.34716">
        <ele>40.1</ele>
        <time>2014-06-16T18:24:46Z</time>
      </trkpt>
      <trkpt lat="48.85728" lon="2.34728">
        <ele>40.8</ele>
        <time>2014-06-16T18:25:11Z</time>
      </trkpt>
      <trkpt lat="48.85738" lon="2.3472">
        <ele>40.7</ele>
        <time>2014-06-16T18:25:38Z</time>
      </trkpt>
      <trkpt lat="48.85748" lon="2.34723">
        <ele>41.2</ele>
        <time>2014-06-16T18:25:44Z</time>
      </trkpt>
      <trkpt lat="48.85756" lon="2.34732">
        <ele>41</ele>
        <time>2014-06-16T18:25:50Z</time>
      </trkpt>
      <trkpt lat="48.85761" lon="2.34745">
        <ele>41</ele>
        <time>2014-06-16T18:25:57Z</time>
      </trkpt>
      <trkpt lat="48.85767" lon="2.34761">
        <ele>40.4</ele>
        <time>2014-06-16T18:26:02Z</time>
      </trkpt>
      <trkpt lat="48.85775" lon="2.34773">
        <ele>41</ele>
        <time>2014-06-16T18:26:06Z</time>
      </trkpt>
      <trkpt lat="48.85787" lon="2.34781">
        <ele>40.9</ele>
        <time>2014-06-16T18:26:09Z</time>
      </trkpt>
      <trkpt lat="48.85799" lon="2.34788">
        <ele>39.8</ele>
        <time>2014-06-16T18:26:12Z</time>
      </trkpt>
      <trkpt lat="48.85809" lon="2.34794">
        <ele>39.4</ele>
        <time>2014-06-16T18:26:15Z</time>
      </trkpt>
      <trkpt lat="48.85818" lon="2.34801">
        <ele>39.7</ele>
        <time>2014-06-16T18:26:19Z</time>
      </trkpt>
      <trkpt lat="48.85829" lon="2.34812">
        <ele>40</ele>
        <time>2014-06-16T18:26:28Z</time>
      </trkpt>
      <trkpt lat="48.85838" lon="2.34821">
        <ele>41.1</ele>
        <time>2014-06-16T18:26:34Z</time>
      </trkpt>
      <trkpt lat="48.85848" lon="2.34826">
        <ele>41</ele>
        <time>2014-06-16T18:26:37Z</time>
      </trkpt>
      <trkpt lat="48.85856" lon="2.34834">
        <ele>40.6</ele>
        <time>2014-06-16T18:26:40Z</time>
      </trkpt>
      <trkpt lat="48.85866" lon="2.34838">
        <ele>40.3</ele>
        <time>2014-06-16T18:26:43Z</time>
      </trkpt>
      <trkpt lat="48.85876" lon="2.34843">
        <ele>40</ele>
        <time>2014-06-16T18:26:46Z</time>
      </trkpt>
      <trkpt lat="48.85887" lon="2.34843">
        <ele>39.7</ele>
        <time>2014-06-16T18:26:49Z</time>
      </trkpt>
      <trkpt lat="48.85899" lon="2.34846">
        <ele>39.7</ele>
        <time>2014-06-16T18:26:52Z</time>
      </trkpt>
      <trkpt lat="48.8591" lon="2.34853">
        <ele>40.2</ele>
        <time>2014-06-16T18:26:55Z</time>
      </trkpt>
      <trkpt lat="48.8592" lon="2.34859">
        <ele>40.2</ele>
        <time>2014-06-16T18:26:58Z</time>
      </trkpt>
      <trkpt lat="48.85931" lon="2.34861">
        <ele>40.4</ele>
        <time>2014-06-16T18:27:00Z</time>
      </trkpt>
      <trkpt lat="48.85941" lon="2.34867">
        <ele>39.3</ele>
        <time>2014-06-16T18:27:02Z</time>
      </trkpt>
      <trkpt lat="48.8595" lon="2.34872">
        <ele>39.7</ele>
        <time>2014-06-16T18:27:04Z</time>
      </trkpt>
      <trkpt lat="48.85963" lon="2.3488">
        <ele>40.2</ele>
        <time>2014-06-16T18:27:07Z</time>
      </trkpt>
      <trkpt lat="48.85971" lon="2.34886">
        <ele>40</ele>
        <time>2014-06-16T18:27:09Z</time>
      </trkpt>
      <trkpt lat="48.85983" lon="2.34896">
        <ele>39.4</ele>
        <time>2014-06-16T18:27:12Z</time>
      </trkpt>
      <trkpt lat="48.85996" lon="2.34903">
        <ele>39.9</ele>
        <time>2014-06-16T18:27:14Z</time>
      </trkpt>
      <trkpt lat="48.86009" lon="2.34909">
        <ele>40.3</ele>
        <time>2014-06-16T18:27:16Z</time>
      </trkpt>
      <trkpt lat="48.8602" lon="2.34915">
        <ele>40.4</ele>
        <time>2014-06-16T18:27:18Z</time>
      </trkpt>
      <trkpt lat="48.8603" lon="2.3492">
        <ele>39.9</ele>
        <time>2014-06-16T18:27:20Z</time>
      </trkpt>
      <trkpt lat="48.86042" lon="2.34925">
        <ele>39.6</ele>
        <time>2014-06-16T18:27:22Z</time>
      </trkpt>
      <trkpt lat="48.86053" lon="2.34931">
        <ele>39.5</ele>
        <time>2014-06-16T18:27:24Z</time>
      </trkpt>
      <trkpt lat="48.86065" lon="2.34939">
        <ele>39.1</ele>
        <time>2014-06-16T18:27:26Z</time>
      </trkpt>
      <trkpt lat="48.86075" lon="2.34944">
        <ele>39.1</ele>
        <time>2014-06-16T18:27:28Z</time>
      </trkpt>
      <trkpt lat="48.86084" lon="2.34949">
        <ele>38.9</ele>
        <time>2014-06-16T18:27:30Z</time>
      </trkpt>
      <trkpt lat="48.86097" lon="2.34954">
        <ele>38.2</ele>
        <time>2014-06-16T18:27:33Z</time>
      </trkpt>
      <trkpt lat="48.86106" lon="2.34957">
        <ele>38.2</ele>
        <time>2014-06-16T18:27:35Z</time>
      </trkpt>
      <trkpt lat="48.86115" lon="2.34961">
        <ele>38.7</ele>
        <time>2014-06-16T18:27:37Z</time>
      </trkpt>
      <trkpt lat="48.86126" lon="2.34967">
        <ele>39.5</ele>
        <time>2014-06-16T18:27:40Z</time>
      </trkpt>
      <trkpt lat="48.86135" lon="2.34974">
        <ele>39.4</ele>
        <time>2014-06-16T18:27:43Z</time>
      </trkpt>
      <trkpt lat="48.86145" lon="2.34982">
        <ele>39.5</ele>
        <time>2014-06-16T18:27:46Z</time>
      </trkpt>
      <trkpt lat="48.86153" lon="2.3499">
        <ele>39.3</ele>
        <time>2014-06-16T18:27:49Z</time>
      </trkpt>
      <trkpt lat="48.86163" lon="2.34997">
        <ele>39.4</ele>
        <time>2014-06-16T18:27:52Z</time>
      </trkpt>
      <trkpt lat="48.86172" lon="2.35003">
        <ele>38.7</ele>
        <time>2014-06-16T18:27:55Z</time>
      </trkpt>
      <trkpt lat="48.86181" lon="2.3501">
        <ele>40.1</ele>
        <time>2014-06-16T18:28:01Z</time>
      </trkpt>
      <trkpt lat="48.8619" lon="2.35016">
        <ele>39.4</ele>
        <time>2014-06-16T18:28:05Z</time>
      </trkpt>
      <trkpt lat="48.86198" lon="2.35023">
        <ele>39.1</ele>
        <time>2014-06-16T18:28:08Z</time>
      </trkpt>
      <trkpt lat="48.86207" lon="2.35029">
        <ele>39.4</ele>
        <time>2014-06-16T18:28:11Z</time>
      </trkpt>
      <trkpt lat="48.86215" lon="2.35035">
        <ele>38.7</ele>
        <time>2014-06-16T18:28:14Z</time>
      </trkpt>
      <trkpt lat="48.86227" lon="2.35038">
        <ele>39.2</ele>
        <time>2014-06-16T18:28:18Z</time>
      </trkpt>
      <trkpt lat="48.86235" lon="2.35045">
        <ele>39.1</ele>
        <time>2014-06-16T18:28:23Z</time>
      </trkpt>
      <trkpt lat="48.86245" lon="2.35054">
        <ele>39</ele>
        <time>2014-06-16T18:28:27Z</time>
      </trkpt>
      <trkpt lat="48.86258" lon="2.3506">
        <ele>38.9</ele>
        <time>2014-06-16T18:28:30Z</time>
      </trkpt>
      <trkpt lat="48.86267" lon="2.35064">
        <ele>39.4</ele>
        <time>2014-06-16T18:28:32Z</time>
      </trkpt>
      <trkpt lat="48.86277" lon="2.35068">
        <ele>39.1</ele>
        <time>2014-06-16T18:28:34Z</time>
      </trkpt>
      <trkpt lat="48.86288" lon="2.35072">
        <ele>38.9</ele>
        <time>2014-06-16T18:28:36Z</time>
      </trkpt>
      <trkpt lat="48.86298" lon="2.35076">
        <ele>38.9</ele>
        <time>2014-06-16T18:28:38Z</time>
      </trkpt>
      <trkpt lat="48.86307" lon="2.35079">
        <ele>38.9</ele>
        <time>2014-06-16T18:28:40Z</time>
      </trkpt>
      <trkpt lat="48.86319" lon="2.35084">
        <ele>39.1</ele>
        <time>2014-06-16T18:28:43Z</time>
      </trkpt>
      <trkpt lat="48.8633" lon="2.35092">
        <ele>39.2</ele>
        <time>2014-06-16T18:28:46Z</time>
      </trkpt>
      <trkpt lat="48.8634" lon="2.35096">
        <ele>39</ele>
        <time>2014-06-16T18:28:48Z</time>
      </trkpt>
      <trkpt lat="48.8635" lon="2.351">
        <ele>38.7</ele>
        <time>2014-06-16T18:28:50Z</time>
      </trkpt>
      <trkpt lat="48.86364" lon="2.35105">
        <ele>38.5</ele>
        <time>2014-06-16T18:28:53Z</time>
      </trkpt>
      <trkpt lat="48.86373" lon="2.35107">
        <ele>38.7</ele>
        <time>2014-06-16T18:28:55Z</time>
      </trkpt>
      <trkpt lat="48.86385" lon="2.35113">
        <ele>39.1</ele>
        <time>2014-06-16T18:28:58Z</time>
      </trkpt>
      <trkpt lat="48.86396" lon="2.3512">
        <ele>39.2</ele>
        <time>2014-06-16T18:29:01Z</time>
      </trkpt>
      <trkpt lat="48.86405" lon="2.35127">
        <ele>38.7</ele>
        <time>2014-06-16T18:29:03Z</time>
      </trkpt>
      <trkpt lat="48.86416" lon="2.35136">
        <ele>38.7</ele>
        <time>2014-06-16T18:29:06Z</time>
      </trkpt>
      <trkpt lat="48.86429" lon="2.35145">
        <ele>38.7</ele>
        <time>2014-06-16T18:29:09Z</time>
      </trkpt>
      <trkpt lat="48.8644" lon="2.35151">
        <ele>38.8</ele>
        <time>2014-06-16T18:29:11Z</time>
      </trkpt>
      <trkpt lat="48.86452" lon="2.35157">
        <ele>38.3</ele>
        <time>2014-06-16T18:29:13Z</time>
      </trkpt>
      <trkpt lat="48.86462" lon="2.35161">
        <ele>38.7</ele>
        <time>2014-06-16T18:29:15Z</time>
      </trkpt>
      <trkpt lat="48.86471" lon="2.35165">
        <ele>38.4</ele>
        <time>2014-06-16T18:29:17Z</time>
      </trkpt>
      <trkpt lat="48.86481" lon="2.35171">
        <ele>38.8</ele>
        <time>2014-06-16T18:29:19Z</time>
      </trkpt>
      <trkpt lat="48.8649" lon="2.35175">
        <ele>39</ele>
        <time>2014-06-16T18:29:21Z</time>
      </trkpt>
      <trkpt lat="48.86499" lon="2.35179">
        <ele>39</ele>
        <time>2014-06-16T18:29:23Z</time>
      </trkpt>
      <trkpt lat="48.86506" lon="2.35188">
        <ele>39</ele>
        <time>2014-06-16T18:29:26Z</time>
      </trkpt>
      <trkpt lat="48.86516" lon="2.35199">
        <ele>38.2</ele>
        <time>2014-06-16T18:29:29Z</time>
      </trkpt>
      <trkpt lat="48.86524" lon="2.35204">
        <ele>37.9</ele>
        <time>2014-06-16T18:29:31Z</time>
      </trkpt>
      <trkpt lat="48.86533" lon="2.35212">
        <ele>38.2</ele>
        <time>2014-06-16T18:29:34Z</time>
      </trkpt>
      <trkpt lat="48.86543" lon="2.35214">
        <ele>38.7</ele>
        <time>2014-06-16T18:29:37Z</time>
      </trkpt>
      <trkpt lat="48.86551" lon="2.3522">
        <ele>38.7</ele>
        <time>2014-06-16T18:29:39Z</time>
      </trkpt>
      <trkpt lat="48.86562" lon="2.35228">
        <ele>38.9</ele>
        <time>2014-06-16T18:29:42Z</time>
      </trkpt>
      <trkpt lat="48.86572" lon="2.35233">
        <ele>39.5</ele>
        <time>2014-06-16T18:29:45Z</time>
      </trkpt>
      <trkpt lat="48.86582" lon="2.35237">
        <ele>39</ele>
        <time>2014-06-16T18:29:48Z</time>
      </trkpt>
      <trkpt lat="48.86591" lon="2.35241">
        <ele>40.2</ele>
        <time>2014-06-16T18:29:51Z</time>
      </trkpt>
      <trkpt lat="48.866" lon="2.35246">
        <ele>39.9</ele>
        <time>2014-06-16T18:29:54Z</time>
      </trkpt>
      <trkpt lat="48.8661" lon="2.35254">
        <ele>39.3</ele>
        <time>2014-06-16T18:29:57Z</time>
      </trkpt>
      <trkpt lat="48.86621" lon="2.3526">
        <ele>39.4</ele>
        <time>2014-06-16T18:30:00Z</time>
      </trkpt>
      <trkpt lat="48.86632" lon="2.35266">
        <ele>39.4</ele>
        <time>2014-06-16T18:30:03Z</time>
      </trkpt>
      <trkpt lat="48.8664" lon="2.35272">
        <ele>39</ele>
        <time>2014-06-16T18:30:06Z</time>
      </trkpt>
      <trkpt lat="48.86648" lon="2.35281">
        <ele>38.6</ele>
        <time>2014-06-16T18:30:09Z</time>
      </trkpt>
      <trkpt lat="48.86659" lon="2.35289">
        <ele>38</ele>
        <time>2014-06-16T18:30:12Z</time>
      </trkpt>
      <trkpt lat="48.86671" lon="2.35295">
        <ele>38.1</ele>
        <time>2014-06-16T18:30:14Z</time>
      </trkpt>
      <trkpt lat="48.86685" lon="2.353">
        <ele>38.1</ele>
        <time>2014-06-16T18:30:16Z</time>
      </trkpt>
      <trkpt lat="48.86695" lon="2.35302">
        <ele>38</ele>
        <time>2014-06-16T18:30:18Z</time>
      </trkpt>
      <trkpt lat="48.86709" lon="2.35306">
        <ele>38.5</ele>
        <time>2014-06-16T18:30:20Z</time>
      </trkpt>
      <trkpt lat="48.8672" lon="2.35309">
        <ele>39.2</ele>
        <time>2014-06-16T18:30:22Z</time>
      </trkpt>
      <trkpt lat="48.86733" lon="2.35312">
        <ele>39.3</ele>
        <time>2014-06-16T18:30:24Z</time>
      </trkpt>
      <trkpt lat="48.86748" lon="2.35316">
        <ele>39.5</ele>
        <time>2014-06-16T18:30:26Z</time>
      </trkpt>
      <trkpt lat="48.8676" lon="2.35323">
        <ele>39.1</ele>
        <time>2014-06-16T18:30:28Z</time>
      </trkpt>
      <trkpt lat="48.8677" lon="2.35331">
        <ele>39</ele>
        <time>2014-06-16T18:30:30Z</time>
      </trkpt>
      <trkpt lat="48.86779" lon="2.35339">
        <ele>39</ele>
        <time>2014-06-16T18:30:32Z</time>
      </trkpt>
      <trkpt lat="48.86789" lon="2.35344">
        <ele>38.8</ele>
        <time>2014-06-16T18:30:34Z</time>
      </trkpt>
      <trkpt lat="48.86801" lon="2.35347">
        <ele>39.1</ele>
        <time>2014-06-16T18:30:36Z</time>
      </trkpt>
      <trkpt lat="48.86813" lon="2.3535">
        <ele>38.2</ele>
        <time>2014-06-16T18:30:38Z</time>
      </trkpt>
      <trkpt lat="48.86825" lon="2.35354">
        <ele>38.7</ele>
        <time>2014-06-16T18:30:40Z</time>
      </trkpt>
      <trkpt lat="48.86835" lon="2.35359">
        <ele>38.4</ele>
        <time>2014-06-16T18:30:42Z</time>
      </trkpt>
      <trkpt lat="48.86845" lon="2.35365">
        <ele>38.2</ele>
        <time>2014-06-16T18:30:44Z</time>
      </trkpt>
      <trkpt lat="48.86856" lon="2.35372">
        <ele>38.7</ele>
        <time>2014-06-16T18:30:47Z</time>
      </trkpt>
      <trkpt lat="48.86866" lon="2.35383">
        <ele>38.9</ele>
        <time>2014-06-16T18:30:50Z</time>
      </trkpt>
      <trkpt lat="48.86875" lon="2.35391">
        <ele>38.6</ele>
        <time>2014-06-16T18:30:53Z</time>
      </trkpt>
      <trkpt lat="48.86883" lon="2.35396">
        <ele>38.7</ele>
        <time>2014-06-16T18:30:56Z</time>
      </trkpt>
      <trkpt lat="48.86894" lon="2.35403">
        <ele>38.9</ele>
        <time>2014-06-16T18:31:00Z</time>
      </trkpt>
      <trkpt lat="48.86905" lon="2.3541">
        <ele>39.7</ele>
        <time>2014-06-16T18:31:03Z</time>
      </trkpt>
      <trkpt lat="48.86914" lon="2.35415">
        <ele>40</ele>
        <time>2014-06-16T18:31:05Z</time>
      </trkpt>
      <trkpt lat="48.86923" lon="2.3542">
        <ele>39.6</ele>
        <time>2014-06-16T18:31:07Z</time>
      </trkpt>
      <trkpt lat="48.86931" lon="2.35425">
        <ele>39.3</ele>
        <time>2014-06-16T18:31:09Z</time>
      </trkpt>
      <trkpt lat="48.86945" lon="2.35432">
        <ele>38.4</ele>
        <time>2014-06-16T18:31:12Z</time>
      </trkpt>
      <trkpt lat="48.86955" lon="2.35439">
        <ele>38.4</ele>
        <time>2014-06-16T18:31:14Z</time>
      </trkpt>
      <trkpt lat="48.86964" lon="2.35442">
        <ele>38.5</ele>
        <time>2014-06-16T18:31:16Z</time>
      </trkpt>
      <trkpt lat="48.86976" lon="2.35448">
        <ele>39.2</ele>
        <time>2014-06-16T18:31:19Z</time>
      </trkpt>
      <trkpt lat="48.86986" lon="2.35455">
        <ele>39.4</ele>
        <time>2014-06-16T18:31:22Z</time>
      </trkpt>
      <trkpt lat="48.86996" lon="2.35463">
        <ele>39</ele>
        <time>2014-06-16T18:31:25Z</time>
      </trkpt>
      <trkpt lat="48.87005" lon="2.3547">
        <ele>38.7</ele>
        <time>2014-06-16T18:31:28Z</time>
      </trkpt>
      <trkpt lat="48.87016" lon="2.35474">
        <ele>38.7</ele>
        <time>2014-06-16T18:31:31Z</time>
      </trkpt>
      <trkpt lat="48.87025" lon="2.35476">
        <ele>39.2</ele>
        <time>2014-06-16T18:31:33Z</time>
      </trkpt>
      <trkpt lat="48.87037" lon="2.35481">
        <ele>39</ele>
        <time>2014-06-16T18:31:35Z</time>
      </trkpt>
      <trkpt lat="48.87049" lon="2.35487">
        <ele>38.8</ele>
        <time>2014-06-16T18:31:37Z</time>
      </trkpt>
      <trkpt lat="48.87059" lon="2.35492">
        <ele>38.4</ele>
        <time>2014-06-16T18:31:39Z</time>
      </trkpt>
      <trkpt lat="48.8707" lon="2.35499">
        <ele>38.4</ele>
        <time>2014-06-16T18:31:41Z</time>
      </trkpt>
      <trkpt lat="48.8708" lon="2.35506">
        <ele>38.8</ele>
        <time>2014-06-16T18:31:43Z</time>
      </trkpt>
      <trkpt lat="48.87093" lon="2.35512">
        <ele>38</ele>
        <time>2014-06-16T18:31:45Z</time>
      </trkpt>
      <trkpt lat="48.87106" lon="2.35519">
        <ele>38.2</ele>
        <time>2014-06-16T18:31:47Z</time>
      </trkpt>
      <trkpt lat="48.87118" lon="2.35525">
        <ele>37.5</ele>
        <time>2014-06-16T18:31:49Z</time>
      </trkpt>
      <trkpt lat="48.87128" lon="2.3553">
        <ele>37.3</ele>
        <time>2014-06-16T18:31:51Z</time>
      </trkpt>
      <trkpt lat="48.8714" lon="2.35537">
        <ele>37.4</ele>
        <time>2014-06-16T18:31:53Z</time>
      </trkpt>
      <trkpt lat="48.8715" lon="2.35544">
        <ele>37.3</ele>
        <time>2014-06-16T18:31:55Z</time>
      </trkpt>
      <trkpt lat="48.8716" lon="2.35549">
        <ele>37.1</ele>
        <time>2014-06-16T18:31:57Z</time>
      </trkpt>
      <trkpt lat="48.8717" lon="2.35557">
        <ele>37.7</ele>
        <time>2014-06-16T18:31:59Z</time>
      </trkpt>
      <trkpt lat="48.87185" lon="2.35563">
        <ele>38.6</ele>
        <time>2014-06-16T18:32:01Z</time>
      </trkpt>
      <trkpt lat="48.87197" lon="2.35568">
        <ele>38.6</ele>
        <time>2014-06-16T18:32:03Z</time>
      </trkpt>
      <trkpt lat="48.87208" lon="2.35574">
        <ele>38.7</ele>
        <time>2014-06-16T18:32:05Z</time>
      </trkpt>
      <trkpt lat="48.87219" lon="2.35581">
        <ele>38.4</ele>
        <time>2014-06-16T18:32:08Z</time>
      </trkpt>
      <trkpt lat="48.87228" lon="2.3559">
        <ele>38.6</ele>
        <time>2014-06-16T18:32:11Z</time>
      </trkpt>
      <trkpt lat="48.87239" lon="2.35597">
        <ele>37.8</ele>
        <time>2014-06-16T18:32:13Z</time>
      </trkpt>
      <trkpt lat="48.87249" lon="2.35603">
        <ele>38.1</ele>
        <time>2014-06-16T18:32:15Z</time>
      </trkpt>
      <trkpt lat="48.87258" lon="2.35609">
        <ele>38.6</ele>
        <time>2014-06-16T18:32:17Z</time>
      </trkpt>
      <trkpt lat="48.87267" lon="2.35617">
        <ele>39</ele>
        <time>2014-06-16T18:32:20Z</time>
      </trkpt>
      <trkpt lat="48.87279" lon="2.35625">
        <ele>38.2</ele>
        <time>2014-06-16T18:32:23Z</time>
      </trkpt>
      <trkpt lat="48.87288" lon="2.35628">
        <ele>39.4</ele>
        <time>2014-06-16T18:32:25Z</time>
      </trkpt>
      <trkpt lat="48.87297" lon="2.35633">
        <ele>39.9</ele>
        <time>2014-06-16T18:32:27Z</time>
      </trkpt>
      <trkpt lat="48.87307" lon="2.35636">
        <ele>40.1</ele>
        <time>2014-06-16T18:32:29Z</time>
      </trkpt>
      <trkpt lat="48.87316" lon="2.3564">
        <ele>40.1</ele>
        <time>2014-06-16T18:32:31Z</time>
      </trkpt>
      <trkpt lat="48.87326" lon="2.35646">
        <ele>40.1</ele>
        <time>2014-06-16T18:32:33Z</time>
      </trkpt>
      <trkpt lat="48.87336" lon="2.35652">
        <ele>40.1</ele>
        <time>2014-06-16T18:32:35Z</time>
      </trkpt>
      <trkpt lat="48.87348" lon="2.35658">
        <ele>40.5</ele>
        <time>2014-06-16T18:32:38Z</time>
      </trkpt>
      <trkpt lat="48.87357" lon="2.35662">
        <ele>40.6</ele>
        <time>2014-06-16T18:32:40Z</time>
      </trkpt>
      <trkpt lat="48.87367" lon="2.35667">
        <ele>41.3</ele>
        <time>2014-06-16T18:32:43Z</time>
      </trkpt>
      <trkpt lat="48.87378" lon="2.35674">
        <ele>41.4</ele>
        <time>2014-06-16T18:32:46Z</time>
      </trkpt>
      <trkpt lat="48.87388" lon="2.3568">
        <ele>40.8</ele>
        <time>2014-06-16T18:32:49Z</time>
      </trkpt>
      <trkpt lat="48.87398" lon="2.35685">
        <ele>41.6</ele>
        <time>2014-06-16T18:32:52Z</time>
      </trkpt>
      <trkpt lat="48.8741" lon="2.3569">
        <ele>42.1</ele>
        <time>2014-06-16T18:32:55Z</time>
      </trkpt>
      <trkpt lat="48.8742" lon="2.35696">
        <ele>42.4</ele>
        <time>2014-06-16T18:32:58Z</time>
      </trkpt>
      <trkpt lat="48.87429" lon="2.357">
        <ele>42.5</ele>
        <time>2014-06-16T18:33:01Z</time>
      </trkpt>
      <trkpt lat="48.87438" lon="2.35705">
        <ele>42.7</ele>
        <time>2014-06-16T18:33:04Z</time>
      </trkpt>
      <trkpt lat="48.8745" lon="2.35712">
        <ele>43</ele>
        <time>2014-06-16T18:33:07Z</time>
      </trkpt>
      <trkpt lat="48.87458" lon="2.35718">
        <ele>42.8</ele>
        <time>2014-06-16T18:33:10Z</time>
      </trkpt>
      <trkpt lat="48.87468" lon="2.35726">
        <ele>43.4</ele>
        <time>2014-06-16T18:33:14Z</time>
      </trkpt>
      <trkpt lat="48.87477" lon="2.35731">
        <ele>43.6</ele>
        <time>2014-06-16T18:33:17Z</time>
      </trkpt>
      <trkpt lat="48.87487" lon="2.35736">
        <ele>43.3</ele>
        <time>2014-06-16T18:33:21Z</time>
      </trkpt>
      <trkpt lat="48.87496" lon="2.35744">
        <ele>44</ele>
        <time>2014-06-16T18:33:25Z</time>
      </trkpt>
      <trkpt lat="48.87505" lon="2.35749">
        <ele>44.6</ele>
        <time>2014-06-16T18:33:29Z</time>
      </trkpt>
      <trkpt lat="48.87517" lon="2.35756">
        <ele>45</ele>
        <time>2014-06-16T18:33:33Z</time>
      </trkpt>
      <trkpt lat="48.87528" lon="2.35764">
        <ele>44.8</ele>
        <time>2014-06-16T18:33:37Z</time>
      </trkpt>
      <trkpt lat="48.87536" lon="2.35774">
        <ele>45.2</ele>
        <time>2014-06-16T18:33:41Z</time>
      </trkpt>
      <trkpt lat="48.87543" lon="2.35784">
        <ele>44.9</ele>
        <time>2014-06-16T18:33:45Z</time>
      </trkpt>
      <trkpt lat="48.87552" lon="2.35789">
        <ele>44.9</ele>
        <time>2014-06-16T18:33:48Z</time>
      </trkpt>
      <trkpt lat="48.87561" lon="2.35795">
        <ele>44.7</ele>
        <time>2014-06-16T18:33:51Z</time>
      </trkpt>
      <trkpt lat="48.8757" lon="2.35799">
        <ele>45.9</ele>
        <time>2014-06-16T18:33:53Z</time>
      </trkpt>
      <trkpt lat="48.87581" lon="2.35805">
        <ele>46.1</ele>
        <time>2014-06-16T18:33:56Z</time>
      </trkpt>
      <trkpt lat="48.87591" lon="2.3581">
        <ele>46.2</ele>
        <time>2014-06-16T18:33:59Z</time>
      </trkpt>
      <trkpt lat="48.87603" lon="2.35814">
        <ele>45.3</ele>
        <time>2014-06-16T18:34:02Z</time>
      </trkpt>
      <trkpt lat="48.87612" lon="2.35821">
        <ele>44.5</ele>
        <time>2014-06-16T18:34:05Z</time>
      </trkpt>
      <trkpt lat="48.87618" lon="2.35836">
        <ele>45.3</ele>
        <time>2014-06-16T18:34:10Z</time>
      </trkpt>
      <trkpt lat="48.87618" lon="2.35852">
        <ele>45.6</ele>
        <time>2014-06-16T18:34:14Z</time>
      </trkpt>
      <trkpt lat="48.87618" lon="2.3587">
        <ele>46</ele>
        <time>2014-06-16T18:34:17Z</time>
      </trkpt>
      <trkpt lat="48.87615" lon="2.35887">
        <ele>46.8</ele>
        <time>2014-06-16T18:34:20Z</time>
      </trkpt>
      <trkpt lat="48.87611" lon="2.35906">
        <ele>47.1</ele>
        <time>2014-06-16T18:34:23Z</time>
      </trkpt>
      <trkpt lat="48.87608" lon="2.3592">
        <ele>47.5</ele>
        <time>2014-06-16T18:34:25Z</time>
      </trkpt>
      <trkpt lat="48.87603" lon="2.35938">
        <ele>47.6</ele>
        <time>2014-06-16T18:34:28Z</time>
      </trkpt>
      <trkpt lat="48.876" lon="2.35953">
        <ele>48.6</ele>
        <time>2014-06-16T18:34:31Z</time>
      </trkpt>
      <trkpt lat="48.87596" lon="2.35969">
        <ele>48.2</ele>
        <time>2014-06-16T18:34:35Z</time>
      </trkpt>
      <trkpt lat="48.87595" lon="2.35985">
        <ele>47.4</ele>
        <time>2014-06-16T18:34:38Z</time>
      </trkpt>
      <trkpt lat="48.87595" lon="2.36">
        <ele>46.9</ele>
        <time>2014-06-16T18:34:41Z</time>
      </trkpt>
      <trkpt lat="48.87598" lon="2.36017">
        <ele>47</ele>
        <time>2014-06-16T18:34:44Z</time>
      </trkpt>
      <trkpt lat="48.87604" lon="2.36034">
        <ele>46.5</ele>
        <time>2014-06-16T18:34:48Z</time>
      </trkpt>
      <trkpt lat="48.87609" lon="2.36049">
        <ele>47.3</ele>
        <time>2014-06-16T18:34:52Z</time>
      </trkpt>
      <trkpt lat="48.87605" lon="2.36065">
        <ele>46.8</ele>
        <time>2014-06-16T18:34:56Z</time>
      </trkpt>
      <trkpt lat="48.87606" lon="2.36081">
        <ele>47.1</ele>
        <time>2014-06-16T18:34:59Z</time>
      </trkpt>
      <trkpt lat="48.87609" lon="2.36094">
        <ele>47.5</ele>
        <time>2014-06-16T18:35:02Z</time>
      </trkpt>
      <trkpt lat="48.87616" lon="2.36105">
        <ele>47.7</ele>
        <time>2014-06-16T18:35:06Z</time>
      </trkpt>
      <trkpt lat="48.87626" lon="2.36118">
        <ele>48.3</ele>
        <time>2014-06-16T18:35:10Z</time>
      </trkpt>
      <trkpt lat="48.87633" lon="2.36128">
        <ele>47.5</ele>
        <time>2014-06-16T18:35:13Z</time>
      </trkpt>
      <trkpt lat="48.8764" lon="2.36136">
        <ele>47.9</ele>
        <time>2014-06-16T18:35:16Z</time>
      </trkpt>
      <trkpt lat="48.87651" lon="2.36146">
        <ele>47.4</ele>
        <time>2014-06-16T18:35:19Z</time>
      </trkpt>
      <trkpt lat="48.87661" lon="2.36159">
        <ele>46.8</ele>
        <time>2014-06-16T18:35:22Z</time>
      </trkpt>
      <trkpt lat="48.8767" lon="2.36171">
        <ele>46.6</ele>
        <time>2014-06-16T18:35:25Z</time>
      </trkpt>
      <trkpt lat="48.87676" lon="2.36187">
        <ele>46.7</ele>
        <time>2014-06-16T18:35:28Z</time>
      </trkpt>
      <trkpt lat="48.87677" lon="2.36201">
        <ele>47.5</ele>
        <time>2014-06-16T18:35:30Z</time>
      </trkpt>
      <trkpt lat="48.87676" lon="2.36218">
        <ele>46.5</ele>
        <time>2014-06-16T18:35:33Z</time>
      </trkpt>
      <trkpt lat="48.87675" lon="2.36234">
        <ele>46.7</ele>
        <time>2014-06-16T18:35:36Z</time>
      </trkpt>
      <trkpt lat="48.87671" lon="2.36252">
        <ele>47.2</ele>
        <time>2014-06-16T18:35:39Z</time>
      </trkpt>
      <trkpt lat="48.87668" lon="2.36266">
        <ele>47.4</ele>
        <time>2014-06-16T18:35:41Z</time>
      </trkpt>
      <trkpt lat="48.87665" lon="2.36285">
        <ele>47.4</ele>
        <time>2014-06-16T18:35:44Z</time>
      </trkpt>
      <trkpt lat="48.87662" lon="2.36302">
        <ele>47.6</ele>
        <time>2014-06-16T18:35:47Z</time>
      </trkpt>
      <trkpt lat="48.87658" lon="2.36316">
        <ele>47.7</ele>
        <time>2014-06-16T18:35:50Z</time>
      </trkpt>
      <trkpt lat="48.87654" lon="2.36334">
        <ele>47.6</ele>
        <time>2014-06-16T18:35:53Z</time>
      </trkpt>
      <trkpt lat="48.8765" lon="2.36351">
        <ele>47.2</ele>
        <time>2014-06-16T18:35:56Z</time>
      </trkpt>
      <trkpt lat="48.87645" lon="2.36366">
        <ele>46.9</ele>
        <time>2014-06-16T18:35:59Z</time>
      </trkpt>
      <trkpt lat="48.87641" lon="2.36381">
        <ele>46.3</ele>
        <time>2014-06-16T18:36:03Z</time>
      </trkpt>
      <trkpt lat="48.87641" lon="2.36397">
        <ele>45.6</ele>
        <time>2014-06-16T18:36:08Z</time>
      </trkpt>
      <trkpt lat="48.87646" lon="2.3641">
        <ele>46</ele>
        <time>2014-06-16T18:36:13Z</time>
      </trkpt>
      <trkpt lat="48.87655" lon="2.36424">
        <ele>45.3</ele>
        <time>2014-06-16T18:36:17Z</time>
      </trkpt>
      <trkpt lat="48.87665" lon="2.36436">
        <ele>44.8</ele>
        <time>2014-06-16T18:36:20Z</time>
      </trkpt>
      <trkpt lat="48.87675" lon="2.36445">
        <ele>45.2</ele>
        <time>2014-06-16T18:36:23Z</time>
      </trkpt>
      <trkpt lat="48.87685" lon="2.36455">
        <ele>46.1</ele>
        <time>2014-06-16T18:36:26Z</time>
      </trkpt>
      <trkpt lat="48.87693" lon="2.36464">
        <ele>46.9</ele>
        <time>2014-06-16T18:36:29Z</time>
      </trkpt>
      <trkpt lat="48.87702" lon="2.36474">
        <ele>46.9</ele>
        <time>2014-06-16T18:36:32Z</time>
      </trkpt>
      <trkpt lat="48.87711" lon="2.36484">
        <ele>47.3</ele>
        <time>2014-06-16T18:36:35Z</time>
      </trkpt>
      <trkpt lat="48.87718" lon="2.36493">
        <ele>47.4</ele>
        <time>2014-06-16T18:36:38Z</time>
      </trkpt>
      <trkpt lat="48.87726" lon="2.36504">
        <ele>46.6</ele>
        <time>2014-06-16T18:36:42Z</time>
      </trkpt>
      <trkpt lat="48.87735" lon="2.36515">
        <ele>47.4</ele>
        <time>2014-06-16T18:36:46Z</time>
      </trkpt>
      <trkpt lat="48.87741" lon="2.36527">
        <ele>47.9</ele>
        <time>2014-06-16T18:36:50Z</time>
      </trkpt>
      <trkpt lat="48.87746" lon="2.36543">
        <ele>48.9</ele>
        <time>2014-06-16T18:36:54Z</time>
      </trkpt>
      <trkpt lat="48.87745" lon="2.36559">
        <ele>49.9</ele>
        <time>2014-06-16T18:36:58Z</time>
      </trkpt>
      <trkpt lat="48.87742" lon="2.36574">
        <ele>51</ele>
        <time>2014-06-16T18:37:03Z</time>
      </trkpt>
      <trkpt lat="48.87734" lon="2.36585">
        <ele>50.9</ele>
        <time>2014-06-16T18:37:08Z</time>
      </trkpt>
      <trkpt lat="48.87724" lon="2.36595">
        <ele>49.9</ele>
        <time>2014-06-16T18:37:11Z</time>
      </trkpt>
      <trkpt lat="48.87716" lon="2.36608">
        <ele>49.2</ele>
        <time>2014-06-16T18:37:14Z</time>
      </trkpt>
      <trkpt lat="48.8771" lon="2.36622">
        <ele>49.1</ele>
        <time>2014-06-16T18:37:17Z</time>
      </trkpt>
      <trkpt lat="48.87703" lon="2.36637">
        <ele>49.6</ele>
        <time>2014-06-16T18:37:20Z</time>
      </trkpt>
      <trkpt lat="48.87697" lon="2.36651">
        <ele>49.9</ele>
        <time>2014-06-16T18:37:23Z</time>
      </trkpt>
      <trkpt lat="48.87693" lon="2.36667">
        <ele>50.4</ele>
        <time>2014-06-16T18:37:26Z</time>
      </trkpt>
      <trkpt lat="48.87687" lon="2.36681">
        <ele>50.7</ele>
        <time>2014-06-16T18:37:29Z</time>
      </trkpt>
      <trkpt lat="48.87681" lon="2.36696">
        <ele>50.5</ele>
        <time>2014-06-16T18:37:32Z</time>
      </trkpt>
      <trkpt lat="48.87674" lon="2.36711">
        <ele>50.6</ele>
        <time>2014-06-16T18:37:35Z</time>
      </trkpt>
      <trkpt lat="48.87668" lon="2.36728">
        <ele>50.6</ele>
        <time>2014-06-16T18:37:38Z</time>
      </trkpt>
      <trkpt lat="48.87661" lon="2.36745">
        <ele>51.1</ele>
        <time>2014-06-16T18:37:41Z</time>
      </trkpt>
      <trkpt lat="48.87655" lon="2.36758">
        <ele>50.8</ele>
        <time>2014-06-16T18:37:44Z</time>
      </trkpt>
      <trkpt lat="48.8765" lon="2.36771">
        <ele>51.3</ele>
        <time>2014-06-16T18:37:47Z</time>
      </trkpt>
      <trkpt lat="48.87644" lon="2.36784">
        <ele>51.6</ele>
        <time>2014-06-16T18:37:50Z</time>
      </trkpt>
      <trkpt lat="48.87635" lon="2.36797">
        <ele>51.2</ele>
        <time>2014-06-16T18:37:53Z</time>
      </trkpt>
      <trkpt lat="48.87629" lon="2.36808">
        <ele>51.4</ele>
        <time>2014-06-16T18:37:56Z</time>
      </trkpt>
      <trkpt lat="48.87624" lon="2.3682">
        <ele>51.9</ele>
        <time>2014-06-16T18:37:59Z</time>
      </trkpt>
      <trkpt lat="48.87622" lon="2.36837">
        <ele>52.6</ele>
        <time>2014-06-16T18:38:03Z</time>
      </trkpt>
      <trkpt lat="48.87624" lon="2.36855">
        <ele>53.5</ele>
        <time>2014-06-16T18:38:07Z</time>
      </trkpt>
      <trkpt lat="48.87624" lon="2.3687">
        <ele>53.9</ele>
        <time>2014-06-16T18:38:10Z</time>
      </trkpt>
      <trkpt lat="48.87625" lon="2.36887">
        <ele>54.4</ele>
        <time>2014-06-16T18:38:13Z</time>
      </trkpt>
      <trkpt lat="48.87625" lon="2.36903">
        <ele>54.1</ele>
        <time>2014-06-16T18:38:16Z</time>
      </trkpt>
      <trkpt lat="48.87624" lon="2.36918">
        <ele>54.7</ele>
        <time>2014-06-16T18:38:20Z</time>
      </trkpt>
      <trkpt lat="48.87624" lon="2.36936">
        <ele>55.5</ele>
        <time>2014-06-16T18:38:24Z</time>
      </trkpt>
      <trkpt lat="48.87623" lon="2.36952">
        <ele>55.6</ele>
        <time>2014-06-16T18:38:27Z</time>
      </trkpt>
      <trkpt lat="48.87624" lon="2.36967">
        <ele>56.1</ele>
        <time>2014-06-16T18:38:30Z</time>
      </trkpt>
      <trkpt lat="48.87625" lon="2.36985">
        <ele>56.6</ele>
        <time>2014-06-16T18:38:34Z</time>
      </trkpt>
      <trkpt lat="48.87626" lon="2.37001">
        <ele>56.4</ele>
        <time>2014-06-16T18:38:37Z</time>
      </trkpt>
      <trkpt lat="48.87626" lon="2.3702">
        <ele>57.1</ele>
        <time>2014-06-16T18:38:41Z</time>
      </trkpt>
      <trkpt lat="48.87627" lon="2.3704">
        <ele>57.2</ele>
        <time>2014-06-16T18:38:44Z</time>
      </trkpt>
      <trkpt lat="48.8763" lon="2.37057">
        <ele>57</ele>
        <time>2014-06-16T18:38:47Z</time>
      </trkpt>
      <trkpt lat="48.87628" lon="2.37075">
        <ele>56.8</ele>
        <time>2014-06-16T18:38:50Z</time>
      </trkpt>
      <trkpt lat="48.87628" lon="2.37091">
        <ele>58</ele>
        <time>2014-06-16T18:38:53Z</time>
      </trkpt>
      <trkpt lat="48.87628" lon="2.37109">
        <ele>58.9</ele>
        <time>2014-06-16T18:38:56Z</time>
      </trkpt>
      <trkpt lat="48.8763" lon="2.37124">
        <ele>59.8</ele>
        <time>2014-06-16T18:38:59Z</time>
      </trkpt>
      <trkpt lat="48.87629" lon="2.37141">
        <ele>59.9</ele>
        <time>2014-06-16T18:39:03Z</time>
      </trkpt>
      <trkpt lat="48.87629" lon="2.37156">
        <ele>59.5</ele>
        <time>2014-06-16T18:39:06Z</time>
      </trkpt>
      <trkpt lat="48.87632" lon="2.3717">
        <ele>60.7</ele>
        <time>2014-06-16T18:39:12Z</time>
      </trkpt>
      <trkpt lat="48.87635" lon="2.37185">
        <ele>60.7</ele>
        <time>2014-06-16T18:39:19Z</time>
      </trkpt>
      <trkpt lat="48.8764" lon="2.37198">
        <ele>60.8</ele>
        <time>2014-06-16T18:39:25Z</time>
      </trkpt>
      <trkpt lat="48.87643" lon="2.37213">
        <ele>61.2</ele>
        <time>2014-06-16T18:39:33Z</time>
      </trkpt>
      <trkpt lat="48.87649" lon="2.37226">
        <ele>61.6</ele>
        <time>2014-06-16T18:39:42Z</time>
      </trkpt>
      <trkpt lat="48.87656" lon="2.37238">
        <ele>62.4</ele>
        <time>2014-06-16T18:39:47Z</time>
      </trkpt>
      <trkpt lat="48.87661" lon="2.37251">
        <ele>62.4</ele>
        <time>2014-06-16T18:39:52Z</time>
      </trkpt>
      <trkpt lat="48.87668" lon="2.37264">
        <ele>63.3</ele>
        <time>2014-06-16T18:39:58Z</time>
      </trkpt>
      <trkpt lat="48.87673" lon="2.37278">
        <ele>64.2</ele>
        <time>2014-06-16T18:40:02Z</time>
      </trkpt>
      <trkpt lat="48.87666" lon="2.37292">
        <ele>65.8</ele>
        <time>2014-06-16T18:40:08Z</time>
      </trkpt>
      <trkpt lat="48.8766" lon="2.37302">
        <ele>67.1</ele>
        <time>2014-06-16T18:40:14Z</time>
      </trkpt>
      <trkpt lat="48.87661" lon="2.37318">
        <ele>67.2</ele>
        <time>2014-06-16T18:40:19Z</time>
      </trkpt>
      <trkpt lat="48.87665" lon="2.37333">
        <ele>68.4</ele>
        <time>2014-06-16T18:40:24Z</time>
      </trkpt>
      <trkpt lat="48.87668" lon="2.37346">
        <ele>69.3</ele>
        <time>2014-06-16T18:40:29Z</time>
      </trkpt>
      <trkpt lat="48.87672" lon="2.3736">
        <ele>71.5</ele>
        <time>2014-06-16T18:40:35Z</time>
      </trkpt>
      <trkpt lat="48.8768" lon="2.37369">
        <ele>72.2</ele>
        <time>2014-06-16T18:40:41Z</time>
      </trkpt>
      <trkpt lat="48.87688" lon="2.37375">
        <ele>73.5</ele>
        <time>2014-06-16T18:40:48Z</time>
      </trkpt>
      <trkpt lat="48.87696" lon="2.37385">
        <ele>73.2</ele>
        <time>2014-06-16T18:40:55Z</time>
      </trkpt>
      <trkpt lat="48.87697" lon="2.37399">
        <ele>73.5</ele>
        <time>2014-06-16T18:41:07Z</time>
      </trkpt>
      <trkpt lat="48.87696" lon="2.37412">
        <ele>73.3</ele>
        <time>2014-06-16T18:41:28Z</time>
      </trkpt>
      <trkpt lat="48.87688" lon="2.37419">
        <ele>72.8</ele>
        <time>2014-06-16T18:41:34Z</time>
      </trkpt>
      <trkpt lat="48.8768" lon="2.37426">
        <ele>73.6</ele>
        <time>2014-06-16T18:41:41Z</time>
      </trkpt>
      <trkpt lat="48.87673" lon="2.37437">
        <ele>73.2</ele>
        <time>2014-06-16T18:41:44Z</time>
      </trkpt>
      <trkpt lat="48.87666" lon="2.37451">
        <ele>73.4</ele>
        <time>2014-06-16T18:41:47Z</time>
      </trkpt>
      <trkpt lat="48.87661" lon="2.37463">
        <ele>73.2</ele>
        <time>2014-06-16T18:41:50Z</time>
      </trkpt>
      <trkpt lat="48.87658" lon="2.37479">
        <ele>74.3</ele>
        <time>2014-06-16T18:41:53Z</time>
      </trkpt>
      <trkpt lat="48.87654" lon="2.37493">
        <ele>74.9</ele>
        <time>2014-06-16T18:41:56Z</time>
      </trkpt>
      <trkpt lat="48.8765" lon="2.3751">
        <ele>75.9</ele>
        <time>2014-06-16T18:41:59Z</time>
      </trkpt>
      <trkpt lat="48.87648" lon="2.37527">
        <ele>75.8</ele>
        <time>2014-06-16T18:42:02Z</time>
      </trkpt>
      <trkpt lat="48.87648" lon="2.37545">
        <ele>76.1</ele>
        <time>2014-06-16T18:42:05Z</time>
      </trkpt>
      <trkpt lat="48.87648" lon="2.3756">
        <ele>76.8</ele>
        <time>2014-06-16T18:42:08Z</time>
      </trkpt>
      <trkpt lat="48.87647" lon="2.37576">
        <ele>77</ele>
        <time>2014-06-16T18:42:11Z</time>
      </trkpt>
      <trkpt lat="48.87648" lon="2.37591">
        <ele>76.9</ele>
        <time>2014-06-16T18:42:14Z</time>
      </trkpt>
      <trkpt lat="48.8765" lon="2.37608">
        <ele>77.1</ele>
        <time>2014-06-16T18:42:18Z</time>
      </trkpt>
      <trkpt lat="48.87652" lon="2.37622">
        <ele>77.9</ele>
        <time>2014-06-16T18:42:21Z</time>
      </trkpt>
      <trkpt lat="48.87654" lon="2.37639">
        <ele>78.3</ele>
        <time>2014-06-16T18:42:25Z</time>
      </trkpt>
      <trkpt lat="48.87657" lon="2.37656">
        <ele>78</ele>
        <time>2014-06-16T18:42:29Z</time>
      </trkpt>
      <trkpt lat="48.8766" lon="2.37669">
        <ele>78.5</ele>
        <time>2014-06-16T18:42:32Z</time>
      </trkpt>
      <trkpt lat="48.87661" lon="2.37687">
        <ele>79.1</ele>
        <time>2014-06-16T18:42:35Z</time>
      </trkpt>
      <trkpt lat="48.87661" lon="2.37702">
        <ele>79.4</ele>
        <time>2014-06-16T18:42:38Z</time>
      </trkpt>
      <trkpt lat="48.87661" lon="2.37717">
        <ele>79.9</ele>
        <time>2014-06-16T18:42:41Z</time>
      </trkpt>
      <trkpt lat="48.87662" lon="2.37736">
        <ele>79.8</ele>
        <time>2014-06-16T18:42:44Z</time>
      </trkpt>
      <trkpt lat="48.8766" lon="2.37753">
        <ele>80.3</ele>
        <time>2014-06-16T18:42:47Z</time>
      </trkpt>
      <trkpt lat="48.8766" lon="2.37768">
        <ele>80.6</ele>
        <time>2014-06-16T18:42:50Z</time>
      </trkpt>
      <trkpt lat="48.8766" lon="2.37786">
        <ele>80.7</ele>
        <time>2014-06-16T18:42:53Z</time>
      </trkpt>
      <trkpt lat="48.87658" lon="2.37805">
        <ele>81.4</ele>
        <time>2014-06-16T18:42:56Z</time>
      </trkpt>
      <trkpt lat="48.87657" lon="2.37824">
        <ele>81.9</ele>
        <time>2014-06-16T18:42:59Z</time>
      </trkpt>
      <trkpt lat="48.87655" lon="2.37844">
        <ele>82</ele>
        <time>2014-06-16T18:43:02Z</time>
      </trkpt>
      <trkpt lat="48.87654" lon="2.37861">
        <ele>82.1</ele>
        <time>2014-06-16T18:43:05Z</time>
      </trkpt>
      <trkpt lat="48.87653" lon="2.37877">
        <ele>81.8</ele>
        <time>2014-06-16T18:43:08Z</time>
      </trkpt>
      <trkpt lat="48.87651" lon="2.37892">
        <ele>82.3</ele>
        <time>2014-06-16T18:43:11Z</time>
      </trkpt>
      <trkpt lat="48.87647" lon="2.37905">
        <ele>82.7</ele>
        <time>2014-06-16T18:43:14Z</time>
      </trkpt>
      <trkpt lat="48.87644" lon="2.37921">
        <ele>83.2</ele>
        <time>2014-06-16T18:43:17Z</time>
      </trkpt>
      <trkpt lat="48.87642" lon="2.37937">
        <ele>83.7</ele>
        <time>2014-06-16T18:43:20Z</time>
      </trkpt>
      <trkpt lat="48.87643" lon="2.37953">
        <ele>84.5</ele>
        <time>2014-06-16T18:43:23Z</time>
      </trkpt>
      <trkpt lat="48.87643" lon="2.37969">
        <ele>84.2</ele>
        <time>2014-06-16T18:43:26Z</time>
      </trkpt>
      <trkpt lat="48.87642" lon="2.37988">
        <ele>84.3</ele>
        <time>2014-06-16T18:43:30Z</time>
      </trkpt>
      <trkpt lat="48.87641" lon="2.38004">
        <ele>84.5</ele>
        <time>2014-06-16T18:43:33Z</time>
      </trkpt>
      <trkpt lat="48.87639" lon="2.38019">
        <ele>84.4</ele>
        <time>2014-06-16T18:43:36Z</time>
      </trkpt>
      <trkpt lat="48.87636" lon="2.38036">
        <ele>84.4</ele>
        <time>2014-06-16T18:43:40Z</time>
      </trkpt>
      <trkpt lat="48.87633" lon="2.3805">
        <ele>84.6</ele>
        <time>2014-06-16T18:43:43Z</time>
      </trkpt>
      <trkpt lat="48.87629" lon="2.38067">
        <ele>85.4</ele>
        <time>2014-06-16T18:43:47Z</time>
      </trkpt>
      <trkpt lat="48.87625" lon="2.38082">
        <ele>85.9</ele>
        <time>2014-06-16T18:43:50Z</time>
      </trkpt>
      <trkpt lat="48.87626" lon="2.38096">
        <ele>86.5</ele>
        <time>2014-06-16T18:43:54Z</time>
      </trkpt>
      <trkpt lat="48.87632" lon="2.3811">
        <ele>87</ele>
        <time>2014-06-16T18:44:00Z</time>
      </trkpt>
      <trkpt lat="48.87642" lon="2.38116">
        <ele>88.3</ele>
        <time>2014-06-16T18:44:06Z</time>
      </trkpt>
      <trkpt lat="48.87652" lon="2.38114">
        <ele>89.6</ele>
        <time>2014-06-16T18:44:20Z</time>
      </trkpt>
      <trkpt lat="48.87661" lon="2.38112">
        <ele>90.8</ele>
        <time>2014-06-16T18:44:27Z</time>
      </trkpt>
      <trkpt lat="48.8767" lon="2.38109">
        <ele>90.9</ele>
        <time>2014-06-16T18:44:31Z</time>
      </trkpt>
      <trkpt lat="48.87682" lon="2.38108">
        <ele>91.7</ele>
        <time>2014-06-16T18:44:35Z</time>
      </trkpt>
      <trkpt lat="48.87693" lon="2.38107">
        <ele>92</ele>
        <time>2014-06-16T18:44:39Z</time>
      </trkpt>
      <trkpt lat="48.87703" lon="2.38106">
        <ele>92.4</ele>
        <time>2014-06-16T18:44:43Z</time>
      </trkpt>
      <trkpt lat="48.87714" lon="2.38107">
        <ele>92.9</ele>
        <time>2014-06-16T18:44:47Z</time>
      </trkpt>
      <trkpt lat="48.87725" lon="2.38112">
        <ele>93.6</ele>
        <time>2014-06-16T18:44:51Z</time>
      </trkpt>
      <trkpt lat="48.87738" lon="2.38115">
        <ele>94.1</ele>
        <time>2014-06-16T18:44:54Z</time>
      </trkpt>
      <trkpt lat="48.8775" lon="2.38119">
        <ele>94.4</ele>
        <time>2014-06-16T18:44:57Z</time>
      </trkpt>
      <trkpt lat="48.87761" lon="2.38122">
        <ele>94.9</ele>
        <time>2014-06-16T18:45:00Z</time>
      </trkpt>
      <trkpt lat="48.87772" lon="2.38127">
        <ele>95.1</ele>
        <time>2014-06-16T18:45:03Z</time>
      </trkpt>
      <trkpt lat="48.87781" lon="2.38132">
        <ele>95.7</ele>
        <time>2014-06-16T18:45:06Z</time>
      </trkpt>
      <trkpt lat="48.8779" lon="2.38139">
        <ele>96.4</ele>
        <time>2014-06-16T18:45:09Z</time>
      </trkpt>
      <trkpt lat="48.87798" lon="2.38146">
        <ele>96</ele>
        <time>2014-06-16T18:45:12Z</time>
      </trkpt>
      <trkpt lat="48.87807" lon="2.38153">
        <ele>96.5</ele>
        <time>2014-06-16T18:45:15Z</time>
      </trkpt>
      <trkpt lat="48.87815" lon="2.38161">
        <ele>97.2</ele>
        <time>2014-06-16T18:45:18Z</time>
      </trkpt>
      <trkpt lat="48.87824" lon="2.3817">
        <ele>97.2</ele>
        <time>2014-06-16T18:45:21Z</time>
      </trkpt>
      <trkpt lat="48.87832" lon="2.38177">
        <ele>97</ele>
        <time>2014-06-16T18:45:24Z</time>
      </trkpt>
      <trkpt lat="48.87842" lon="2.38185">
        <ele>97.5</ele>
        <time>2014-06-16T18:45:28Z</time>
      </trkpt>
      <trkpt lat="48.8785" lon="2.38193">
        <ele>98</ele>
        <time>2014-06-16T18:45:31Z</time>
      </trkpt>
      <trkpt lat="48.87855" lon="2.38205">
        <ele>98.3</ele>
        <time>2014-06-16T18:45:34Z</time>
      </trkpt>
      <trkpt lat="48.87864" lon="2.38216">
        <ele>98.7</ele>
        <time>2014-06-16T18:45:38Z</time>
      </trkpt>
      <trkpt lat="48.87872" lon="2.38225">
        <ele>98.7</ele>
        <time>2014-06-16T18:45:41Z</time>
      </trkpt>
      <trkpt lat="48.87877" lon="2.38237">
        <ele>98.6</ele>
        <time>2014-06-16T18:45:44Z</time>
      </trkpt>
      <trkpt lat="48.87885" lon="2.38249">
        <ele>98</ele>
        <time>2014-06-16T18:45:48Z</time>
      </trkpt>
      <trkpt lat="48.87891" lon="2.38262">
        <ele>98.3</ele>
        <time>2014-06-16T18:45:51Z</time>
      </trkpt>
      <trkpt lat="48.87898" lon="2.38272">
        <ele>99.1</ele>
        <time>2014-06-16T18:45:55Z</time>
      </trkpt>
      <trkpt lat="48.87904" lon="2.38283">
        <ele>99.4</ele>
        <time>2014-06-16T18:45:58Z</time>
      </trkpt>
      <trkpt lat="48.87911" lon="2.38298">
        <ele>99.4</ele>
        <time>2014-06-16T18:46:01Z</time>
      </trkpt>
      <trkpt lat="48.87919" lon="2.38308">
        <ele>99.2</ele>
        <time>2014-06-16T18:46:04Z</time>
      </trkpt>
      <trkpt lat="48.87925" lon="2.38325">
        <ele>98.9</ele>
        <time>2014-06-16T18:46:07Z</time>
      </trkpt>
      <trkpt lat="48.87926" lon="2.38339">
        <ele>98.8</ele>
        <time>2014-06-16T18:46:09Z</time>
      </trkpt>
      <trkpt lat="48.87927" lon="2.38355">
        <ele>98.9</ele>
        <time>2014-06-16T18:46:12Z</time>
      </trkpt>
      <trkpt lat="48.87928" lon="2.38368">
        <ele>99.1</ele>
        <time>2014-06-16T18:46:14Z</time>
      </trkpt>
      <trkpt lat="48.87931" lon="2.38386">
        <ele>99.2</ele>
        <time>2014-06-16T18:46:17Z</time>
      </trkpt>
      <trkpt lat="48.87935" lon="2.384">
        <ele>99.2</ele>
        <time>2014-06-16T18:46:22Z</time>
      </trkpt>
      <trkpt lat="48.8794" lon="2.38414">
        <ele>99.6</ele>
        <time>2014-06-16T18:46:26Z</time>
      </trkpt>
      <trkpt lat="48.87944" lon="2.38428">
        <ele>99.7</ele>
        <time>2014-06-16T18:46:29Z</time>
      </trkpt>
      <trkpt lat="48.87948" lon="2.3844">
        <ele>99.7</ele>
        <time>2014-06-16T18:46:32Z</time>
      </trkpt>
      <trkpt lat="48.8795" lon="2.38454">
        <ele>99</ele>
        <time>2014-06-16T18:46:35Z</time>
      </trkpt>
      <trkpt lat="48.87952" lon="2.3847">
        <ele>99.2</ele>
        <time>2014-06-16T18:46:38Z</time>
      </trkpt>
      <trkpt lat="48.87953" lon="2.38485">
        <ele>99.7</ele>
        <time>2014-06-16T18:46:40Z</time>
      </trkpt>
      <trkpt lat="48.87954" lon="2.38505">
        <ele>99.6</ele>
        <time>2014-06-16T18:46:43Z</time>
      </trkpt>
      <trkpt lat="48.87956" lon="2.38523">
        <ele>99.3</ele>
        <time>2014-06-16T18:46:46Z</time>
      </trkpt>
      <trkpt lat="48.87957" lon="2.38539">
        <ele>99.5</ele>
        <time>2014-06-16T18:46:48Z</time>
      </trkpt>
      <trkpt lat="48.87958" lon="2.38555">
        <ele>99.5</ele>
        <time>2014-06-16T18:46:50Z</time>
      </trkpt>
      <trkpt lat="48.87959" lon="2.38573">
        <ele>99.2</ele>
        <time>2014-06-16T18:46:53Z</time>
      </trkpt>
      <trkpt lat="48.87958" lon="2.38592">
        <ele>99</ele>
        <time>2014-06-16T18:46:56Z</time>
      </trkpt>
      <trkpt lat="48.8796" lon="2.38608">
        <ele>98.3</ele>
        <time>2014-06-16T18:46:59Z</time>
      </trkpt>
      <trkpt lat="48.87961" lon="2.38621">
        <ele>98</ele>
        <time>2014-06-16T18:47:02Z</time>
      </trkpt>
      <trkpt lat="48.87962" lon="2.38636">
        <ele>98.4</ele>
        <time>2014-06-16T18:47:05Z</time>
      </trkpt>
      <trkpt lat="48.87963" lon="2.38652">
        <ele>97.9</ele>
        <time>2014-06-16T18:47:08Z</time>
      </trkpt>
      <trkpt lat="48.87964" lon="2.38666">
        <ele>97.5</ele>
        <time>2014-06-16T18:47:11Z</time>
      </trkpt>
      <trkpt lat="48.87967" lon="2.38679">
        <ele>97.5</ele>
        <time>2014-06-16T18:47:14Z</time>
      </trkpt>
      <trkpt lat="48.87968" lon="2.38697">
        <ele>97.6</ele>
        <time>2014-06-16T18:47:17Z</time>
      </trkpt>
      <trkpt lat="48.87967" lon="2.38716">
        <ele>97.3</ele>
        <time>2014-06-16T18:47:20Z</time>
      </trkpt>
      <trkpt lat="48.87969" lon="2.38732">
        <ele>96.5</ele>
        <time>2014-06-16T18:47:23Z</time>
      </trkpt>
      <trkpt lat="48.8797" lon="2.38751">
        <ele>96.3</ele>
        <time>2014-06-16T18:47:26Z</time>
      </trkpt>
      <trkpt lat="48.87969" lon="2.38768">
        <ele>95.6</ele>
        <time>2014-06-16T18:47:29Z</time>
      </trkpt>
      <trkpt lat="48.87969" lon="2.38785">
        <ele>96.5</ele>
        <time>2014-06-16T18:47:33Z</time>
      </trkpt>
      <trkpt lat="48.87971" lon="2.38802">
        <ele>96.2</ele>
        <time>2014-06-16T18:47:37Z</time>
      </trkpt>
      <trkpt lat="48.87974" lon="2.38815">
        <ele>95.8</ele>
        <time>2014-06-16T18:47:42Z</time>
      </trkpt>
      <trkpt lat="48.87972" lon="2.38829">
        <ele>96</ele>
        <time>2014-06-16T18:48:00Z</time>
      </trkpt>
      <trkpt lat="48.87979" lon="2.38839">
        <ele>95.9</ele>
        <time>2014-06-16T18:49:02Z</time>
      </trkpt>
      <trkpt lat="48.87988" lon="2.38833">
        <ele>96</ele>
        <time>2014-06-16T18:49:09Z</time>
      </trkpt>
      <trkpt lat="48.87995" lon="2.3882">
        <ele>94.9</ele>
        <time>2014-06-16T18:49:14Z</time>
      </trkpt>
      <trkpt lat="48.87999" lon="2.38806">
        <ele>94.6</ele>
        <time>2014-06-16T18:49:18Z</time>
      </trkpt>
      <trkpt lat="48.88004" lon="2.3879">
        <ele>93.6</ele>
        <time>2014-06-16T18:49:22Z</time>
      </trkpt>
      <trkpt lat="48.88008" lon="2.38775">
        <ele>92.4</ele>
        <time>2014-06-16T18:49:26Z</time>
      </trkpt>
      <trkpt lat="48.88013" lon="2.38763">
        <ele>91.7</ele>
        <time>2014-06-16T18:49:30Z</time>
      </trkpt>
      <trkpt lat="48.88015" lon="2.38749">
        <ele>92.1</ele>
        <time>2014-06-16T18:49:35Z</time>
      </trkpt>
      <trkpt lat="48.88016" lon="2.38732">
        <ele>91.5</ele>
        <time>2014-06-16T18:49:41Z</time>
      </trkpt>
      <trkpt lat="48.88014" lon="2.38716">
        <ele>91</ele>
        <time>2014-06-16T18:49:45Z</time>
      </trkpt>
      <trkpt lat="48.88014" lon="2.387">
        <ele>90.5</ele>
        <time>2014-06-16T18:49:49Z</time>
      </trkpt>
      <trkpt lat="48.88012" lon="2.38685">
        <ele>89.8</ele>
        <time>2014-06-16T18:49:53Z</time>
      </trkpt>
      <trkpt lat="48.88014" lon="2.38668">
        <ele>88.4</ele>
        <time>2014-06-16T18:49:57Z</time>
      </trkpt>
      <trkpt lat="48.88012" lon="2.38653">
        <ele>88.8</ele>
        <time>2014-06-16T18:50:00Z</time>
      </trkpt>
      <trkpt lat="48.88013" lon="2.38636">
        <ele>87.5</ele>
        <time>2014-06-16T18:50:04Z</time>
      </trkpt>
      <trkpt lat="48.88013" lon="2.38621">
        <ele>87.7</ele>
        <time>2014-06-16T18:50:09Z</time>
      </trkpt>
      <trkpt lat="48.88015" lon="2.38607">
        <ele>87.5</ele>
        <time>2014-06-16T18:50:20Z</time>
      </trkpt>
      <trkpt lat="48.88018" lon="2.38594">
        <ele>88.5</ele>
        <time>2014-06-16T18:50:42Z</time>
      </trkpt>
      <trkpt lat="48.88021" lon="2.38581">
        <ele>88.6</ele>
        <time>2014-06-16T18:51:04Z</time>
      </trkpt>
      <trkpt lat="48.88014" lon="2.38571">
        <ele>88.1</ele>
        <time>2014-06-16T18:51:08Z</time>
      </trkpt>
      <trkpt lat="48.88005" lon="2.38558">
        <ele>88.6</ele>
        <time>2014-06-16T18:51:12Z</time>
      </trkpt>
      <trkpt lat="48.87999" lon="2.38546">
        <ele>87.8</ele>
        <time>2014-06-16T18:51:15Z</time>
      </trkpt>
      <trkpt lat="48.87994" lon="2.38533">
        <ele>88.1</ele>
        <time>2014-06-16T18:51:18Z</time>
      </trkpt>
      <trkpt lat="48.87988" lon="2.3852">
        <ele>88.5</ele>
        <time>2014-06-16T18:51:21Z</time>
      </trkpt>
      <trkpt lat="48.87982" lon="2.38508">
        <ele>88.7</ele>
        <time>2014-06-16T18:51:24Z</time>
      </trkpt>
      <trkpt lat="48.87976" lon="2.38496">
        <ele>89.9</ele>
        <time>2014-06-16T18:51:27Z</time>
      </trkpt>
      <trkpt lat="48.87972" lon="2.38483">
        <ele>90.3</ele>
        <time>2014-06-16T18:51:30Z</time>
      </trkpt>
      <trkpt lat="48.87967" lon="2.3847">
        <ele>91.4</ele>
        <time>2014-06-16T18:51:34Z</time>
      </trkpt>
      <trkpt lat="48.87963" lon="2.38453">
        <ele>91.9</ele>
        <time>2014-06-16T18:51:38Z</time>
      </trkpt>
      <trkpt lat="48.8796" lon="2.38438">
        <ele>92</ele>
        <time>2014-06-16T18:51:41Z</time>
      </trkpt>
      <trkpt lat="48.87955" lon="2.38424">
        <ele>91.9</ele>
        <time>2014-06-16T18:51:44Z</time>
      </trkpt>
      <trkpt lat="48.87951" lon="2.3841">
        <ele>92</ele>
        <time>2014-06-16T18:51:47Z</time>
      </trkpt>
      <trkpt lat="48.87947" lon="2.38394">
        <ele>92</ele>
        <time>2014-06-16T18:51:51Z</time>
      </trkpt>
      <trkpt lat="48.87945" lon="2.3838">
        <ele>92.7</ele>
        <time>2014-06-16T18:51:54Z</time>
      </trkpt>
      <trkpt lat="48.87944" lon="2.38365">
        <ele>92.7</ele>
        <time>2014-06-16T18:51:57Z</time>
      </trkpt>
      <trkpt lat="48.87945" lon="2.38347">
        <ele>92.6</ele>
        <time>2014-06-16T18:52:00Z</time>
      </trkpt>
      <trkpt lat="48.87944" lon="2.38328">
        <ele>92.6</ele>
        <time>2014-06-16T18:52:03Z</time>
      </trkpt>
      <trkpt lat="48.87944" lon="2.38314">
        <ele>93.3</ele>
        <time>2014-06-16T18:52:06Z</time>
      </trkpt>
      <trkpt lat="48.87945" lon="2.38299">
        <ele>93.4</ele>
        <time>2014-06-16T18:52:10Z</time>
      </trkpt>
      <trkpt lat="48.87947" lon="2.38285">
        <ele>93.2</ele>
        <time>2014-06-16T18:52:15Z</time>
      </trkpt>
      <trkpt lat="48.87952" lon="2.38273">
        <ele>92.7</ele>
        <time>2014-06-16T18:52:33Z</time>
      </trkpt>
      <trkpt lat="48.87957" lon="2.3826">
        <ele>93.9</ele>
        <time>2014-06-16T18:53:05Z</time>
      </trkpt>
      <trkpt lat="48.87958" lon="2.38243">
        <ele>93.5</ele>
        <time>2014-06-16T18:53:12Z</time>
      </trkpt>
      <trkpt lat="48.87957" lon="2.38226">
        <ele>93</ele>
        <time>2014-06-16T18:53:16Z</time>
      </trkpt>
      <trkpt lat="48.87954" lon="2.38211">
        <ele>92.9</ele>
        <time>2014-06-16T18:53:21Z</time>
      </trkpt>
      <trkpt lat="48.87952" lon="2.38197">
        <ele>92.5</ele>
        <time>2014-06-16T18:53:24Z</time>
      </trkpt>
      <trkpt lat="48.87952" lon="2.38183">
        <ele>91.7</ele>
        <time>2014-06-16T18:53:27Z</time>
      </trkpt>
      <trkpt lat="48.87951" lon="2.38167">
        <ele>90.9</ele>
        <time>2014-06-16T18:53:31Z</time>
      </trkpt>
      <trkpt lat="48.87949" lon="2.38153">
        <ele>90.5</ele>
        <time>2014-06-16T18:53:34Z</time>
      </trkpt>
      <trkpt lat="48.87946" lon="2.3814">
        <ele>89.7</ele>
        <time>2014-06-16T18:53:37Z</time>
      </trkpt>
      <trkpt lat="48.87944" lon="2.38126">
        <ele>89.3</ele>
        <time>2014-06-16T18:53:40Z</time>
      </trkpt>
      <trkpt lat="48.87944" lon="2.38111">
        <ele>88.8</ele>
        <time>2014-06-16T18:53:43Z</time>
      </trkpt>
      <trkpt lat="48.87942" lon="2.38095">
        <ele>88.3</ele>
        <time>2014-06-16T18:53:46Z</time>
      </trkpt>
      <trkpt lat="48.87942" lon="2.3808">
        <ele>87.7</ele>
        <time>2014-06-16T18:53:49Z</time>
      </trkpt>
      <trkpt lat="48.87942" lon="2.38064">
        <ele>86.1</ele>
        <time>2014-06-16T18:53:52Z</time>
      </trkpt>
      <trkpt lat="48.87942" lon="2.3805">
        <ele>85.3</ele>
        <time>2014-06-16T18:53:56Z</time>
      </trkpt>
      <trkpt lat="48.87939" lon="2.38036">
        <ele>84.9</ele>
        <time>2014-06-16T18:54:01Z</time>
      </trkpt>
      <trkpt lat="48.87938" lon="2.38022">
        <ele>83.8</ele>
        <time>2014-06-16T18:54:05Z</time>
      </trkpt>
      <trkpt lat="48.87936" lon="2.38007">
        <ele>84</ele>
        <time>2014-06-16T18:54:10Z</time>
      </trkpt>
      <trkpt lat="48.87935" lon="2.3799">
        <ele>83.1</ele>
        <time>2014-06-16T18:54:16Z</time>
      </trkpt>
      <trkpt lat="48.87932" lon="2.37976">
        <ele>83.2</ele>
        <time>2014-06-16T18:54:20Z</time>
      </trkpt>
      <trkpt lat="48.87929" lon="2.37959">
        <ele>82.1</ele>
        <time>2014-06-16T18:54:24Z</time>
      </trkpt>
      <trkpt lat="48.87924" lon="2.37947">
        <ele>81.3</ele>
        <time>2014-06-16T18:54:29Z</time>
      </trkpt>
      <trkpt lat="48.8792" lon="2.37934">
        <ele>81.2</ele>
        <time>2014-06-16T18:54:35Z</time>
      </trkpt>
      <trkpt lat="48.87915" lon="2.37923">
        <ele>80.4</ele>
        <time>2014-06-16T18:54:40Z</time>
      </trkpt>
      <trkpt lat="48.87908" lon="2.37913">
        <ele>81</ele>
        <time>2014-06-16T18:54:44Z</time>
      </trkpt>
      <trkpt lat="48.879" lon="2.37903">
        <ele>80.7</ele>
        <time>2014-06-16T18:54:49Z</time>
      </trkpt>
      <trkpt lat="48.87894" lon="2.37894">
        <ele>80.4</ele>
        <time>2014-06-16T18:54:56Z</time>
      </trkpt>
      <trkpt lat="48.87887" lon="2.37885">
        <ele>80.9</ele>
        <time>2014-06-16T18:55:06Z</time>
      </trkpt>
      <trkpt lat="48.87879" lon="2.37878">
        <ele>79.5</ele>
        <time>2014-06-16T18:55:52Z</time>
      </trkpt>
      <trkpt lat="48.87888" lon="2.37878">
        <ele>80.1</ele>
        <time>2014-06-16T18:56:21Z</time>
      </trkpt>
      <trkpt lat="48.87894" lon="2.37867">
        <ele>79.5</ele>
        <time>2014-06-16T18:56:47Z</time>
      </trkpt>
      <trkpt lat="48.87904" lon="2.37862">
        <ele>78.9</ele>
        <time>2014-06-16T18:57:20Z</time>
      </trkpt>
      <trkpt lat="48.87914" lon="2.37866">
        <ele>78.4</ele>
        <time>2014-06-16T18:57:24Z</time>
      </trkpt>
      <trkpt lat="48.87923" lon="2.37875">
        <ele>78.5</ele>
        <time>2014-06-16T18:57:28Z</time>
      </trkpt>
      <trkpt lat="48.87932" lon="2.37882">
        <ele>77.7</ele>
        <time>2014-06-16T18:57:33Z</time>
      </trkpt>
      <trkpt lat="48.87941" lon="2.37888">
        <ele>76.9</ele>
        <time>2014-06-16T18:57:36Z</time>
      </trkpt>
      <trkpt lat="48.8795" lon="2.37894">
        <ele>76.6</ele>
        <time>2014-06-16T18:57:39Z</time>
      </trkpt>
      <trkpt lat="48.8796" lon="2.37899">
        <ele>76.8</ele>
        <time>2014-06-16T18:57:42Z</time>
      </trkpt>
      <trkpt lat="48.87969" lon="2.37906">
        <ele>77.1</ele>
        <time>2014-06-16T18:57:45Z</time>
      </trkpt>
      <trkpt lat="48.87979" lon="2.37915">
        <ele>76.7</ele>
        <time>2014-06-16T18:57:48Z</time>
      </trkpt>
      <trkpt lat="48.87988" lon="2.37923">
        <ele>75.7</ele>
        <time>2014-06-16T18:57:51Z</time>
      </trkpt>
      <trkpt lat="48.88" lon="2.37931">
        <ele>75.1</ele>
        <time>2014-06-16T18:57:54Z</time>
      </trkpt>
      <trkpt lat="48.88008" lon="2.37939">
        <ele>74.7</ele>
        <time>2014-06-16T18:57:56Z</time>
      </trkpt>
      <trkpt lat="48.88016" lon="2.37945">
        <ele>73.9</ele>
        <time>2014-06-16T18:57:58Z</time>
      </trkpt>
      <trkpt lat="48.88025" lon="2.37954">
        <ele>74.1</ele>
        <time>2014-06-16T18:58:00Z</time>
      </trkpt>
      <trkpt lat="48.88033" lon="2.37964">
        <ele>73.8</ele>
        <time>2014-06-16T18:58:02Z</time>
      </trkpt>
      <trkpt lat="48.88045" lon="2.37974">
        <ele>73.4</ele>
        <time>2014-06-16T18:58:05Z</time>
      </trkpt>
      <trkpt lat="48.88054" lon="2.37982">
        <ele>73.2</ele>
        <time>2014-06-16T18:58:07Z</time>
      </trkpt>
      <trkpt lat="48.88065" lon="2.3799">
        <ele>73.2</ele>
        <time>2014-06-16T18:58:09Z</time>
      </trkpt>
      <trkpt lat="48.88075" lon="2.38">
        <ele>72.9</ele>
        <time>2014-06-16T18:58:11Z</time>
      </trkpt>
      <trkpt lat="48.88086" lon="2.38012">
        <ele>72.4</ele>
        <time>2014-06-16T18:58:13Z</time>
      </trkpt>
      <trkpt lat="48.88094" lon="2.3802">
        <ele>72.1</ele>
        <time>2014-06-16T18:58:15Z</time>
      </trkpt>
      <trkpt lat="48.88103" lon="2.3803">
        <ele>71.6</ele>
        <time>2014-06-16T18:58:18Z</time>
      </trkpt>
      <trkpt lat="48.88111" lon="2.3804">
        <ele>71.2</ele>
        <time>2014-06-16T18:58:21Z</time>
      </trkpt>
      <trkpt lat="48.88119" lon="2.38054">
        <ele>71</ele>
        <time>2014-06-16T18:58:24Z</time>
      </trkpt>
      <trkpt lat="48.88126" lon="2.38064">
        <ele>70.8</ele>
        <time>2014-06-16T18:58:26Z</time>
      </trkpt>
      <trkpt lat="48.88133" lon="2.38075">
        <ele>70.5</ele>
        <time>2014-06-16T18:58:28Z</time>
      </trkpt>
      <trkpt lat="48.88142" lon="2.38086">
        <ele>69.8</ele>
        <time>2014-06-16T18:58:30Z</time>
      </trkpt>
      <trkpt lat="48.88149" lon="2.38094">
        <ele>69.1</ele>
        <time>2014-06-16T18:58:32Z</time>
      </trkpt>
      <trkpt lat="48.88159" lon="2.38108">
        <ele>68.5</ele>
        <time>2014-06-16T18:58:35Z</time>
      </trkpt>
      <trkpt lat="48.8817" lon="2.3812">
        <ele>67.9</ele>
        <time>2014-06-16T18:58:38Z</time>
      </trkpt>
      <trkpt lat="48.88177" lon="2.38129">
        <ele>67.6</ele>
        <time>2014-06-16T18:58:40Z</time>
      </trkpt>
      <trkpt lat="48.88184" lon="2.38138">
        <ele>67.5</ele>
        <time>2014-06-16T18:58:42Z</time>
      </trkpt>
      <trkpt lat="48.88191" lon="2.38147">
        <ele>67.3</ele>
        <time>2014-06-16T18:58:44Z</time>
      </trkpt>
      <trkpt lat="48.882" lon="2.38159">
        <ele>67.1</ele>
        <time>2014-06-16T18:58:47Z</time>
      </trkpt>
      <trkpt lat="48.8821" lon="2.38169">
        <ele>67.8</ele>
        <time>2014-06-16T18:58:51Z</time>
      </trkpt>
      <trkpt lat="48.88219" lon="2.38179">
        <ele>68</ele>
        <time>2014-06-16T18:58:55Z</time>
      </trkpt>
      <trkpt lat="48.88229" lon="2.38185">
        <ele>66.9</ele>
        <time>2014-06-16T18:59:00Z</time>
      </trkpt>
      <trkpt lat="48.88238" lon="2.38188">
        <ele>67</ele>
        <time>2014-06-16T18:59:06Z</time>
      </trkpt>
      <trkpt lat="48.88247" lon="2.38194">
        <ele>66.5</ele>
        <time>2014-06-16T18:59:12Z</time>
      </trkpt>
      <trkpt lat="48.88257" lon="2.382">
        <ele>67.4</ele>
        <time>2014-06-16T18:59:18Z</time>
      </trkpt>
      <trkpt lat="48.88265" lon="2.38208">
        <ele>66.9</ele>
        <time>2014-06-16T18:59:23Z</time>
      </trkpt>
      <trkpt lat="48.88269" lon="2.3822">
        <ele>67.1</ele>
        <time>2014-06-16T18:59:51Z</time>
      </trkpt>
      <trkpt lat="48.88268" lon="2.38237">
        <ele>67</ele>
        <time>2014-06-16T19:00:05Z</time>
      </trkpt>
      <trkpt lat="48.88273" lon="2.38251">
        <ele>67</ele>
        <time>2014-06-16T19:00:12Z</time>
      </trkpt>
      <trkpt lat="48.8828" lon="2.38261">
        <ele>66.6</ele>
        <time>2014-06-16T19:00:19Z</time>
      </trkpt>
      <trkpt lat="48.88288" lon="2.38269">
        <ele>66.5</ele>
        <time>2014-06-16T19:00:24Z</time>
      </trkpt>
      <trkpt lat="48.88295" lon="2.38278">
        <ele>66.4</ele>
        <time>2014-06-16T19:00:28Z</time>
      </trkpt>
      <trkpt lat="48.88302" lon="2.38289">
        <ele>66.1</ele>
        <time>2014-06-16T19:00:32Z</time>
      </trkpt>
      <trkpt lat="48.88311" lon="2.38298">
        <ele>65.5</ele>
        <time>2014-06-16T19:00:35Z</time>
      </trkpt>
      <trkpt lat="48.88318" lon="2.38307">
        <ele>65.2</ele>
        <time>2014-06-16T19:00:38Z</time>
      </trkpt>
      <trkpt lat="48.88325" lon="2.38316">
        <ele>64.9</ele>
        <time>2014-06-16T19:00:41Z</time>
      </trkpt>
      <trkpt lat="48.88335" lon="2.38328">
        <ele>64.6</ele>
        <time>2014-06-16T19:00:44Z</time>
      </trkpt>
      <trkpt lat="48.88346" lon="2.38336">
        <ele>65</ele>
        <time>2014-06-16T19:00:47Z</time>
      </trkpt>
      <trkpt lat="48.88354" lon="2.38341">
        <ele>64.3</ele>
        <time>2014-06-16T19:00:49Z</time>
      </trkpt>
      <trkpt lat="48.88365" lon="2.38351">
        <ele>64</ele>
        <time>2014-06-16T19:00:52Z</time>
      </trkpt>
      <trkpt lat="48.88372" lon="2.38365">
        <ele>63</ele>
        <time>2014-06-16T19:00:55Z</time>
      </trkpt>
      <trkpt lat="48.8838" lon="2.38379">
        <ele>63.5</ele>
        <time>2014-06-16T19:00:58Z</time>
      </trkpt>
      <trkpt lat="48.88388" lon="2.38387">
        <ele>63.2</ele>
        <time>2014-06-16T19:01:00Z</time>
      </trkpt>
      <trkpt lat="48.88398" lon="2.38398">
        <ele>62.2</ele>
        <time>2014-06-16T19:01:03Z</time>
      </trkpt>
      <trkpt lat="48.88407" lon="2.38408">
        <ele>61.5</ele>
        <time>2014-06-16T19:01:06Z</time>
      </trkpt>
      <trkpt lat="48.88418" lon="2.38417">
        <ele>61.5</ele>
        <time>2014-06-16T19:01:09Z</time>
      </trkpt>
      <trkpt lat="48.88429" lon="2.38415">
        <ele>61.1</ele>
        <time>2014-06-16T19:01:12Z</time>
      </trkpt>
      <trkpt lat="48.88441" lon="2.38422">
        <ele>60.7</ele>
        <time>2014-06-16T19:01:15Z</time>
      </trkpt>
      <trkpt lat="48.88452" lon="2.38432">
        <ele>60.2</ele>
        <time>2014-06-16T19:01:18Z</time>
      </trkpt>
      <trkpt lat="48.88461" lon="2.38438">
        <ele>59.5</ele>
        <time>2014-06-16T19:01:21Z</time>
      </trkpt>
      <trkpt lat="48.8847" lon="2.38446">
        <ele>58</ele>
        <time>2014-06-16T19:01:24Z</time>
      </trkpt>
      <trkpt lat="48.88479" lon="2.3845">
        <ele>57.4</ele>
        <time>2014-06-16T19:01:26Z</time>
      </trkpt>
      <trkpt lat="48.88489" lon="2.38456">
        <ele>57.3</ele>
        <time>2014-06-16T19:01:29Z</time>
      </trkpt>
      <trkpt lat="48.88501" lon="2.38465">
        <ele>57.6</ele>
        <time>2014-06-16T19:01:32Z</time>
      </trkpt>
      <trkpt lat="48.8851" lon="2.38473">
        <ele>57.8</ele>
        <time>2014-06-16T19:01:34Z</time>
      </trkpt>
      <trkpt lat="48.88517" lon="2.38483">
        <ele>58.3</ele>
        <time>2014-06-16T19:01:36Z</time>
      </trkpt>
      <trkpt lat="48.88524" lon="2.38493">
        <ele>57.4</ele>
        <time>2014-06-16T19:01:39Z</time>
      </trkpt>
      <trkpt lat="48.88526" lon="2.38508">
        <ele>57.3</ele>
        <time>2014-06-16T19:01:42Z</time>
      </trkpt>
      <trkpt lat="48.88525" lon="2.38528">
        <ele>57.5</ele>
        <time>2014-06-16T19:01:45Z</time>
      </trkpt>
      <trkpt lat="48.88521" lon="2.38541">
        <ele>57.4</ele>
        <time>2014-06-16T19:01:47Z</time>
      </trkpt>
      <trkpt lat="48.88516" lon="2.3856">
        <ele>57.6</ele>
        <time>2014-06-16T19:01:50Z</time>
      </trkpt>
      <trkpt lat="48.88512" lon="2.38574">
        <ele>58.8</ele>
        <time>2014-06-16T19:01:53Z</time>
      </trkpt>
      <trkpt lat="48.88507" lon="2.3859">
        <ele>59.4</ele>
        <time>2014-06-16T19:01:56Z</time>
      </trkpt>
      <trkpt lat="48.88501" lon="2.38603">
        <ele>60</ele>
        <time>2014-06-16T19:01:59Z</time>
      </trkpt>
      <trkpt lat="48.88497" lon="2.38616">
        <ele>60</ele>
        <time>2014-06-16T19:02:02Z</time>
      </trkpt>
      <trkpt lat="48.8849" lon="2.38633">
        <ele>60.9</ele>
        <time>2014-06-16T19:02:05Z</time>
      </trkpt>
      <trkpt lat="48.88484" lon="2.38646">
        <ele>60.5</ele>
        <time>2014-06-16T19:02:07Z</time>
      </trkpt>
      <trkpt lat="48.88479" lon="2.38659">
        <ele>60.4</ele>
        <time>2014-06-16T19:02:09Z</time>
      </trkpt>
      <trkpt lat="48.88474" lon="2.38673">
        <ele>59.7</ele>
        <time>2014-06-16T19:02:12Z</time>
      </trkpt>
      <trkpt lat="48.88468" lon="2.38685">
        <ele>59.9</ele>
        <time>2014-06-16T19:02:16Z</time>
      </trkpt>
      <trkpt lat="48.88464" lon="2.38698">
        <ele>60.2</ele>
        <time>2014-06-16T19:02:19Z</time>
      </trkpt>
      <trkpt lat="48.88457" lon="2.38712">
        <ele>59.9</ele>
        <time>2014-06-16T19:02:22Z</time>
      </trkpt>
      <trkpt lat="48.88448" lon="2.38722">
        <ele>59.8</ele>
        <time>2014-06-16T19:02:26Z</time>
      </trkpt>
      <trkpt lat="48.8844" lon="2.38728">
        <ele>59.8</ele>
        <time>2014-06-16T19:02:29Z</time>
      </trkpt>
      <trkpt lat="48.88431" lon="2.38734">
        <ele>60.7</ele>
        <time>2014-06-16T19:02:32Z</time>
      </trkpt>
      <trkpt lat="48.88427" lon="2.38752">
        <ele>60.8</ele>
        <time>2014-06-16T19:02:36Z</time>
      </trkpt>
      <trkpt lat="48.88426" lon="2.38769">
        <ele>60.8</ele>
        <time>2014-06-16T19:02:39Z</time>
      </trkpt>
      <trkpt lat="48.88429" lon="2.38786">
        <ele>60.7</ele>
        <time>2014-06-16T19:02:42Z</time>
      </trkpt>
      <trkpt lat="48.88432" lon="2.38804">
        <ele>60.4</ele>
        <time>2014-06-16T19:02:45Z</time>
      </trkpt>
      <trkpt lat="48.88436" lon="2.38821">
        <ele>60.7</ele>
        <time>2014-06-16T19:02:48Z</time>
      </trkpt>
      <trkpt lat="48.8844" lon="2.38839">
        <ele>60.4</ele>
        <time>2014-06-16T19:02:51Z</time>
      </trkpt>
      <trkpt lat="48.88442" lon="2.38856">
        <ele>60.6</ele>
        <time>2014-06-16T19:02:54Z</time>
      </trkpt>
      <trkpt lat="48.88442" lon="2.38873">
        <ele>61</ele>
        <time>2014-06-16T19:02:57Z</time>
      </trkpt>
      <trkpt lat="48.88442" lon="2.38889">
        <ele>61.3</ele>
        <time>2014-06-16T19:03:00Z</time>
      </trkpt>
      <trkpt lat="48.88442" lon="2.38905">
        <ele>61.4</ele>
        <time>2014-06-16T19:03:03Z</time>
      </trkpt>
      <trkpt lat="48.88444" lon="2.3892">
        <ele>61.3</ele>
        <time>2014-06-16T19:03:06Z</time>
      </trkpt>
      <trkpt lat="48.88447" lon="2.38937">
        <ele>62.3</ele>
        <time>2014-06-16T19:03:10Z</time>
      </trkpt>
      <trkpt lat="48.88448" lon="2.38954">
        <ele>61.6</ele>
        <time>2014-06-16T19:03:15Z</time>
      </trkpt>
      <trkpt lat="48.88447" lon="2.38969">
        <ele>61.2</ele>
        <time>2014-06-16T19:03:19Z</time>
      </trkpt>
      <trkpt lat="48.88449" lon="2.38984">
        <ele>61.7</ele>
        <time>2014-06-16T19:03:23Z</time>
      </trkpt>
      <trkpt lat="48.88451" lon="2.39">
        <ele>61.3</ele>
        <time>2014-06-16T19:03:29Z</time>
      </trkpt>
      <trkpt lat="48.88453" lon="2.39016">
        <ele>61.2</ele>
        <time>2014-06-16T19:03:33Z</time>
      </trkpt>
      <trkpt lat="48.88458" lon="2.39032">
        <ele>61.5</ele>
        <time>2014-06-16T19:03:37Z</time>
      </trkpt>
      <trkpt lat="48.88462" lon="2.39048">
        <ele>60.5</ele>
        <time>2014-06-16T19:03:41Z</time>
      </trkpt>
      <trkpt lat="48.88463" lon="2.39068">
        <ele>59.8</ele>
        <time>2014-06-16T19:03:44Z</time>
      </trkpt>
      <trkpt lat="48.88465" lon="2.39086">
        <ele>59.9</ele>
        <time>2014-06-16T19:03:47Z</time>
      </trkpt>
      <trkpt lat="48.88468" lon="2.39105">
        <ele>59.6</ele>
        <time>2014-06-16T19:03:50Z</time>
      </trkpt>
      <trkpt lat="48.88472" lon="2.39119">
        <ele>59.3</ele>
        <time>2014-06-16T19:03:52Z</time>
      </trkpt>
      <trkpt lat="48.88476" lon="2.39136">
        <ele>59.4</ele>
        <time>2014-06-16T19:03:55Z</time>
      </trkpt>
      <trkpt lat="48.88479" lon="2.39153">
        <ele>59.2</ele>
        <time>2014-06-16T19:03:58Z</time>
      </trkpt>
      <trkpt lat="48.88488" lon="2.3917">
        <ele>59.2</ele>
        <time>2014-06-16T19:04:01Z</time>
      </trkpt>
      <trkpt lat="48.88495" lon="2.3918">
        <ele>58.6</ele>
        <time>2014-06-16T19:04:03Z</time>
      </trkpt>
      <trkpt lat="48.88503" lon="2.39191">
        <ele>58.5</ele>
        <time>2014-06-16T19:04:05Z</time>
      </trkpt>
      <trkpt lat="48.88512" lon="2.39201">
        <ele>58.7</ele>
        <time>2014-06-16T19:04:07Z</time>
      </trkpt>
      <trkpt lat="48.88518" lon="2.39212">
        <ele>58.9</ele>
        <time>2014-06-16T19:04:09Z</time>
      </trkpt>
      <trkpt lat="48.88524" lon="2.39223">
        <ele>59.4</ele>
        <time>2014-06-16T19:04:11Z</time>
      </trkpt>
      <trkpt lat="48.88531" lon="2.39234">
        <ele>58.9</ele>
        <time>2014-06-16T19:04:13Z</time>
      </trkpt>
      <trkpt lat="48.88537" lon="2.39244">
        <ele>58.8</ele>
        <time>2014-06-16T19:04:15Z</time>
      </trkpt>
      <trkpt lat="48.88544" lon="2.39252">
        <ele>59</ele>
        <time>2014-06-16T19:04:17Z</time>
      </trkpt>
      <trkpt lat="48.8855" lon="2.39266">
        <ele>58.9</ele>
        <time>2014-06-16T19:04:21Z</time>
      </trkpt>
      <trkpt lat="48.88557" lon="2.39275">
        <ele>58.8</ele>
        <time>2014-06-16T19:04:24Z</time>
      </trkpt>
      <trkpt lat="48.88566" lon="2.39284">
        <ele>58.7</ele>
        <time>2014-06-16T19:04:28Z</time>
      </trkpt>
      <trkpt lat="48.88576" lon="2.39297">
        <ele>58.7</ele>
        <time>2014-06-16T19:04:32Z</time>
      </trkpt>
      <trkpt lat="48.88587" lon="2.39306">
        <ele>58.4</ele>
        <time>2014-06-16T19:04:35Z</time>
      </trkpt>
      <trkpt lat="48.88597" lon="2.3931">
        <ele>59.2</ele>
        <time>2014-06-16T19:04:37Z</time>
      </trkpt>
      <trkpt lat="48.88606" lon="2.39316">
        <ele>60.1</ele>
        <time>2014-06-16T19:04:40Z</time>
      </trkpt>
      <trkpt lat="48.88614" lon="2.39324">
        <ele>60.5</ele>
        <time>2014-06-16T19:04:43Z</time>
      </trkpt>
      <trkpt lat="48.88624" lon="2.39333">
        <ele>60</ele>
        <time>2014-06-16T19:04:47Z</time>
      </trkpt>
      <trkpt lat="48.88633" lon="2.39341">
        <ele>61.2</ele>
        <time>2014-06-16T19:04:51Z</time>
      </trkpt>
      <trkpt lat="48.88642" lon="2.39346">
        <ele>61.3</ele>
        <time>2014-06-16T19:04:55Z</time>
      </trkpt>
      <trkpt lat="48.88651" lon="2.39354">
        <ele>60.8</ele>
        <time>2014-06-16T19:04:59Z</time>
      </trkpt>
      <trkpt lat="48.8866" lon="2.39362">
        <ele>60.3</ele>
        <time>2014-06-16T19:05:03Z</time>
      </trkpt>
      <trkpt lat="48.88669" lon="2.39367">
        <ele>59.4</ele>
        <time>2014-06-16T19:05:07Z</time>
      </trkpt>
      <trkpt lat="48.88679" lon="2.39368">
        <ele>59.1</ele>
        <time>2014-06-16T19:05:11Z</time>
      </trkpt>
      <trkpt lat="48.88688" lon="2.39372">
        <ele>58.7</ele>
        <time>2014-06-16T19:05:15Z</time>
      </trkpt>
      <trkpt lat="48.88696" lon="2.39379">
        <ele>59</ele>
        <time>2014-06-16T19:05:19Z</time>
      </trkpt>
      <trkpt lat="48.88704" lon="2.39389">
        <ele>58.2</ele>
        <time>2014-06-16T19:05:24Z</time>
      </trkpt>
      <trkpt lat="48.88713" lon="2.394">
        <ele>59.1</ele>
        <time>2014-06-16T19:05:28Z</time>
      </trkpt>
      <trkpt lat="48.88723" lon="2.39408">
        <ele>58.3</ele>
        <time>2014-06-16T19:05:31Z</time>
      </trkpt>
      <trkpt lat="48.88731" lon="2.39416">
        <ele>57.1</ele>
        <time>2014-06-16T19:05:34Z</time>
      </trkpt>
      <trkpt lat="48.88741" lon="2.39423">
        <ele>56.1</ele>
        <time>2014-06-16T19:05:37Z</time>
      </trkpt>
      <trkpt lat="48.88752" lon="2.3943">
        <ele>55.7</ele>
        <time>2014-06-16T19:05:40Z</time>
      </trkpt>
      <trkpt lat="48.8876" lon="2.3944">
        <ele>56</ele>
        <time>2014-06-16T19:05:43Z</time>
      </trkpt>
      <trkpt lat="48.88768" lon="2.39447">
        <ele>55</ele>
        <time>2014-06-16T19:05:46Z</time>
      </trkpt>
      <trkpt lat="48.88776" lon="2.39454">
        <ele>54.7</ele>
        <time>2014-06-16T19:05:50Z</time>
      </trkpt>
      <trkpt lat="48.88788" lon="2.3946">
        <ele>55.2</ele>
        <time>2014-06-16T19:05:53Z</time>
      </trkpt>
      <trkpt lat="48.88798" lon="2.39468">
        <ele>54.7</ele>
        <time>2014-06-16T19:05:56Z</time>
      </trkpt>
      <trkpt lat="48.88809" lon="2.39471">
        <ele>55</ele>
        <time>2014-06-16T19:05:59Z</time>
      </trkpt>
      <trkpt lat="48.88819" lon="2.39475">
        <ele>55.3</ele>
        <time>2014-06-16T19:06:04Z</time>
      </trkpt>
      <trkpt lat="48.88831" lon="2.39474">
        <ele>55.3</ele>
        <time>2014-06-16T19:06:08Z</time>
      </trkpt>
      <trkpt lat="48.88841" lon="2.39471">
        <ele>55</ele>
        <time>2014-06-16T19:06:11Z</time>
      </trkpt>
      <trkpt lat="48.88851" lon="2.39461">
        <ele>56.4</ele>
        <time>2014-06-16T19:06:15Z</time>
      </trkpt>
      <trkpt lat="48.8886" lon="2.39454">
        <ele>57</ele>
        <time>2014-06-16T19:06:18Z</time>
      </trkpt>
      <trkpt lat="48.88869" lon="2.39445">
        <ele>57.6</ele>
        <time>2014-06-16T19:06:23Z</time>
      </trkpt>
      <trkpt lat="48.88877" lon="2.39437">
        <ele>58.1</ele>
        <time>2014-06-16T19:06:27Z</time>
      </trkpt>
      <trkpt lat="48.88886" lon="2.39432">
        <ele>58.6</ele>
        <time>2014-06-16T19:06:32Z</time>
      </trkpt>
      <trkpt lat="48.88896" lon="2.3943">
        <ele>55.4</ele>
        <time>2014-06-16T19:06:38Z</time>
      </trkpt>
      <trkpt lat="48.88904" lon="2.39426">
        <ele>57.2</ele>
        <time>2014-06-16T19:06:46Z</time>
      </trkpt>
      <trkpt lat="48.88909" lon="2.39414">
        <ele>57.8</ele>
        <time>2014-06-16T19:06:57Z</time>
      </trkpt>
      <trkpt lat="48.88917" lon="2.39404">
        <ele>57.1</ele>
        <time>2014-06-16T19:07:06Z</time>
      </trkpt>
      <trkpt lat="48.88919" lon="2.39391">
        <ele>57.1</ele>
        <time>2014-06-16T19:07:11Z</time>
      </trkpt>
      <trkpt lat="48.88919" lon="2.39376">
        <ele>56</ele>
        <time>2014-06-16T19:07:16Z</time>
      </trkpt>
      <trkpt lat="48.88917" lon="2.39361">
        <ele>55.8</ele>
        <time>2014-06-16T19:07:20Z</time>
      </trkpt>
      <trkpt lat="48.88917" lon="2.39345">
        <ele>55.5</ele>
        <time>2014-06-16T19:07:25Z</time>
      </trkpt>
      <trkpt lat="48.88916" lon="2.39332">
        <ele>55.4</ele>
        <time>2014-06-16T19:07:29Z</time>
      </trkpt>
      <trkpt lat="48.88911" lon="2.39318">
        <ele>55</ele>
        <time>2014-06-16T19:07:32Z</time>
      </trkpt>
      <trkpt lat="48.88915" lon="2.39305">
        <ele>55.5</ele>
        <time>2014-06-16T19:07:36Z</time>
      </trkpt>
      <trkpt lat="48.88925" lon="2.39309">
        <ele>55.7</ele>
        <time>2014-06-16T19:07:40Z</time>
      </trkpt>
      <trkpt lat="48.88935" lon="2.3931">
        <ele>54.6</ele>
        <time>2014-06-16T19:07:44Z</time>
      </trkpt>
      <trkpt lat="48.88943" lon="2.39304">
        <ele>54.9</ele>
        <time>2014-06-16T19:07:47Z</time>
      </trkpt>
      <trkpt lat="48.88955" lon="2.39302">
        <ele>54.8</ele>
        <time>2014-06-16T19:07:51Z</time>
      </trkpt>
      <trkpt lat="48.88967" lon="2.39301">
        <ele>54.8</ele>
        <time>2014-06-16T19:07:54Z</time>
      </trkpt>
      <trkpt lat="48.88977" lon="2.39301">
        <ele>54.8</ele>
        <time>2014-06-16T19:07:57Z</time>
      </trkpt>
      <trkpt lat="48.88989" lon="2.39301">
        <ele>54.7</ele>
        <time>2014-06-16T19:08:00Z</time>
      </trkpt>
      <trkpt lat="48.89" lon="2.393">
        <ele>53.9</ele>
        <time>2014-06-16T19:08:03Z</time>
      </trkpt>
      <trkpt lat="48.8901" lon="2.393">
        <ele>54.7</ele>
        <time>2014-06-16T19:08:07Z</time>
      </trkpt>
      <trkpt lat="48.8902" lon="2.39301">
        <ele>55</ele>
        <time>2014-06-16T19:08:11Z</time>
      </trkpt>
      <trkpt lat="48.89031" lon="2.39301">
        <ele>55.2</ele>
        <time>2014-06-16T19:08:14Z</time>
      </trkpt>
      <trkpt lat="48.8904" lon="2.393">
        <ele>55.3</ele>
        <time>2014-06-16T19:08:16Z</time>
      </trkpt>
      <trkpt lat="48.89051" lon="2.393">
        <ele>55</ele>
        <time>2014-06-16T19:08:18Z</time>
      </trkpt>
      <trkpt lat="48.8906" lon="2.393">
        <ele>55.2</ele>
        <time>2014-06-16T19:08:20Z</time>
      </trkpt>
      <trkpt lat="48.89069" lon="2.39299">
        <ele>54.6</ele>
        <time>2014-06-16T19:08:22Z</time>
      </trkpt>
      <trkpt lat="48.8908" lon="2.39301">
        <ele>54.6</ele>
        <time>2014-06-16T19:08:24Z</time>
      </trkpt>
      <trkpt lat="48.8909" lon="2.39301">
        <ele>54.8</ele>
        <time>2014-06-16T19:08:26Z</time>
      </trkpt>
      <trkpt lat="48.891" lon="2.39302">
        <ele>54.8</ele>
        <time>2014-06-16T19:08:28Z</time>
      </trkpt>
      <trkpt lat="48.89109" lon="2.39303">
        <ele>54.5</ele>
        <time>2014-06-16T19:08:30Z</time>
      </trkpt>
      <trkpt lat="48.89119" lon="2.39303">
        <ele>54.6</ele>
        <time>2014-06-16T19:08:32Z</time>
      </trkpt>
      <trkpt lat="48.89132" lon="2.39303">
        <ele>55.2</ele>
        <time>2014-06-16T19:08:35Z</time>
      </trkpt>
      <trkpt lat="48.89145" lon="2.39304">
        <ele>55.2</ele>
        <time>2014-06-16T19:08:38Z</time>
      </trkpt>
      <trkpt lat="48.89158" lon="2.39306">
        <ele>55</ele>
        <time>2014-06-16T19:08:41Z</time>
      </trkpt>
      <trkpt lat="48.89171" lon="2.39307">
        <ele>54.6</ele>
        <time>2014-06-16T19:08:44Z</time>
      </trkpt>
      <trkpt lat="48.89182" lon="2.39309">
        <ele>54.7</ele>
        <time>2014-06-16T19:08:47Z</time>
      </trkpt>
      <trkpt lat="48.89192" lon="2.3931">
        <ele>54.9</ele>
        <time>2014-06-16T19:08:50Z</time>
      </trkpt>
      <trkpt lat="48.89202" lon="2.39311">
        <ele>54.2</ele>
        <time>2014-06-16T19:08:53Z</time>
      </trkpt>
      <trkpt lat="48.89213" lon="2.39311">
        <ele>54.5</ele>
        <time>2014-06-16T19:08:57Z</time>
      </trkpt>
      <trkpt lat="48.89222" lon="2.39312">
        <ele>54.7</ele>
        <time>2014-06-16T19:09:00Z</time>
      </trkpt>
      <trkpt lat="48.89235" lon="2.39312">
        <ele>53.9</ele>
        <time>2014-06-16T19:09:04Z</time>
      </trkpt>
      <trkpt lat="48.89245" lon="2.39312">
        <ele>54.1</ele>
        <time>2014-06-16T19:09:07Z</time>
      </trkpt>
      <trkpt lat="48.89256" lon="2.39312">
        <ele>54.4</ele>
        <time>2014-06-16T19:09:10Z</time>
      </trkpt>
      <trkpt lat="48.89268" lon="2.39312">
        <ele>53.9</ele>
        <time>2014-06-16T19:09:13Z</time>
      </trkpt>
      <trkpt lat="48.8928" lon="2.39314">
        <ele>54.4</ele>
        <time>2014-06-16T19:09:16Z</time>
      </trkpt>
      <trkpt lat="48.8929" lon="2.39315">
        <ele>54.7</ele>
        <time>2014-06-16T19:09:19Z</time>
      </trkpt>
      <trkpt lat="48.89301" lon="2.39314">
        <ele>55.1</ele>
        <time>2014-06-16T19:09:23Z</time>
      </trkpt>
      <trkpt lat="48.89309" lon="2.39306">
        <ele>54.8</ele>
        <time>2014-06-16T19:09:27Z</time>
      </trkpt>
      <trkpt lat="48.89316" lon="2.39298">
        <ele>54.7</ele>
        <time>2014-06-16T19:09:30Z</time>
      </trkpt>
      <trkpt lat="48.89324" lon="2.39288">
        <ele>54.7</ele>
        <time>2014-06-16T19:09:34Z</time>
      </trkpt>
      <trkpt lat="48.89335" lon="2.39288">
        <ele>55.1</ele>
        <time>2014-06-16T19:09:38Z</time>
      </trkpt>
      <trkpt lat="48.89347" lon="2.39285">
        <ele>54.4</ele>
        <time>2014-06-16T19:09:41Z</time>
      </trkpt>
      <trkpt lat="48.89358" lon="2.39282">
        <ele>54.8</ele>
        <time>2014-06-16T19:09:44Z</time>
      </trkpt>
      <trkpt lat="48.89367" lon="2.39279">
        <ele>55.3</ele>
        <time>2014-06-16T19:09:46Z</time>
      </trkpt>
      <trkpt lat="48.8938" lon="2.39274">
        <ele>55.5</ele>
        <time>2014-06-16T19:09:49Z</time>
      </trkpt>
      <trkpt lat="48.89389" lon="2.39265">
        <ele>55.3</ele>
        <time>2014-06-16T19:09:52Z</time>
      </trkpt>
      <trkpt lat="48.89398" lon="2.39257">
        <ele>55.4</ele>
        <time>2014-06-16T19:09:55Z</time>
      </trkpt>
      <trkpt lat="48.89406" lon="2.39249">
        <ele>54.9</ele>
        <time>2014-06-16T19:09:58Z</time>
      </trkpt>
      <trkpt lat="48.89417" lon="2.39243">
        <ele>54.9</ele>
        <time>2014-06-16T19:10:01Z</time>
      </trkpt>
      <trkpt lat="48.89425" lon="2.39233">
        <ele>55</ele>
        <time>2014-06-16T19:10:05Z</time>
      </trkpt>
      <trkpt lat="48.89431" lon="2.3922">
        <ele>54.3</ele>
        <time>2014-06-16T19:10:10Z</time>
      </trkpt>
      <trkpt lat="48.89433" lon="2.39205">
        <ele>54.5</ele>
        <time>2014-06-16T19:10:17Z</time>
      </trkpt>
      <trkpt lat="48.8943" lon="2.39192">
        <ele>54.8</ele>
        <time>2014-06-16T19:10:26Z</time>
      </trkpt>
      <trkpt lat="48.89439" lon="2.39191">
        <ele>60.8</ele>
        <time>2014-06-16T19:11:18Z</time>
      </trkpt>
      <trkpt lat="48.89446" lon="2.39181">
        <ele>61.5</ele>
        <time>2014-06-16T19:11:23Z</time>
      </trkpt>
      <trkpt lat="48.89455" lon="2.39173">
        <ele>61.3</ele>
        <time>2014-06-16T19:11:30Z</time>
      </trkpt>
      <trkpt lat="48.89462" lon="2.39165">
        <ele>61.3</ele>
        <time>2014-06-16T19:11:35Z</time>
      </trkpt>
      <trkpt lat="48.89471" lon="2.39157">
        <ele>61.6</ele>
        <time>2014-06-16T19:11:43Z</time>
      </trkpt>
      <trkpt lat="48.89481" lon="2.39151">
        <ele>60.2</ele>
        <time>2014-06-16T19:11:52Z</time>
      </trkpt>
      <trkpt lat="48.89489" lon="2.39146">
        <ele>58.7</ele>
        <time>2014-06-16T19:11:57Z</time>
      </trkpt>
      <trkpt lat="48.89498" lon="2.39143">
        <ele>57.6</ele>
        <time>2014-06-16T19:12:04Z</time>
      </trkpt>
      <trkpt lat="48.89507" lon="2.39142">
        <ele>56.2</ele>
        <time>2014-06-16T19:12:12Z</time>
      </trkpt>
      <trkpt lat="48.89517" lon="2.39144">
        <ele>56.2</ele>
        <time>2014-06-16T19:12:19Z</time>
      </trkpt>
      <trkpt lat="48.89525" lon="2.39137">
        <ele>54.1</ele>
        <time>2014-06-16T19:12:30Z</time>
      </trkpt>
      <trkpt lat="48.89526" lon="2.39123">
        <ele>54.6</ele>
        <time>2014-06-16T19:13:04Z</time>
      </trkpt>
      <trkpt lat="48.89517" lon="2.39125">
        <ele>54.4</ele>
        <time>2014-06-16T19:13:56Z</time>
      </trkpt>
      <trkpt lat="48.89508" lon="2.3913">
        <ele>54.3</ele>
        <time>2014-06-16T19:14:03Z</time>
      </trkpt>
      <trkpt lat="48.89514" lon="2.3914">
        <ele>54.8</ele>
        <time>2014-06-16T19:14:13Z</time>
      </trkpt>
      <trkpt lat="48.8951" lon="2.39127">
        <ele>54.3</ele>
        <time>2014-06-16T19:14:29Z</time>
      </trkpt>
      <trkpt lat="48.89505" lon="2.39115">
        <ele>54.7</ele>
        <time>2014-06-16T19:14:38Z</time>
      </trkpt>
      <trkpt lat="48.895" lon="2.39128">
        <ele>54.4</ele>
        <time>2014-06-16T19:14:51Z</time>
      </trkpt>
      <trkpt lat="48.89502" lon="2.39143">
        <ele>54</ele>
        <time>2014-06-16T19:15:01Z</time>
      </trkpt>
      <trkpt lat="48.89496" lon="2.39153">
        <ele>54.3</ele>
        <time>2014-06-16T19:15:10Z</time>
      </trkpt>
      <trkpt lat="48.89488" lon="2.39159">
        <ele>54.1</ele>
        <time>2014-06-16T19:15:20Z</time>
      </trkpt>
      <trkpt lat="48.89484" lon="2.39173">
        <ele>54.6</ele>
        <time>2014-06-16T19:15:28Z</time>
      </trkpt>
      <trkpt lat="48.89489" lon="2.39188">
        <ele>54.8</ele>
        <time>2014-06-16T19:15:33Z</time>
      </trkpt>
      <trkpt lat="48.89493" lon="2.39201">
        <ele>54.5</ele>
        <time>2014-06-16T19:15:37Z</time>
      </trkpt>
      <trkpt lat="48.89499" lon="2.39211">
        <ele>54.8</ele>
        <time>2014-06-16T19:15:41Z</time>
      </trkpt>
      <trkpt lat="48.89509" lon="2.39215">
        <ele>53.9</ele>
        <time>2014-06-16T19:15:46Z</time>
      </trkpt>
      <trkpt lat="48.89516" lon="2.39228">
        <ele>54.2</ele>
        <time>2014-06-16T19:15:50Z</time>
      </trkpt>
      <trkpt lat="48.89523" lon="2.39243">
        <ele>53.7</ele>
        <time>2014-06-16T19:15:54Z</time>
      </trkpt>
      <trkpt lat="48.8953" lon="2.39258">
        <ele>53.5</ele>
        <time>2014-06-16T19:15:58Z</time>
      </trkpt>
      <trkpt lat="48.89536" lon="2.39271">
        <ele>53.6</ele>
        <time>2014-06-16T19:16:01Z</time>
      </trkpt>
      <trkpt lat="48.89542" lon="2.39284">
        <ele>54</ele>
        <time>2014-06-16T19:16:04Z</time>
      </trkpt>
      <trkpt lat="48.89548" lon="2.39296">
        <ele>54.4</ele>
        <time>2014-06-16T19:16:07Z</time>
      </trkpt>
      <trkpt lat="48.89555" lon="2.39309">
        <ele>53.9</ele>
        <time>2014-06-16T19:16:11Z</time>
      </trkpt>
      <trkpt lat="48.89564" lon="2.39318">
        <ele>54.1</ele>
        <time>2014-06-16T19:16:16Z</time>
      </trkpt>
      <trkpt lat="48.89574" lon="2.39323">
        <ele>53.6</ele>
        <time>2014-06-16T19:16:22Z</time>
      </trkpt>
      <trkpt lat="48.89585" lon="2.39322">
        <ele>54.3</ele>
        <time>2014-06-16T19:16:26Z</time>
      </trkpt>
      <trkpt lat="48.89596" lon="2.39318">
        <ele>54.1</ele>
        <time>2014-06-16T19:16:30Z</time>
      </trkpt>
      <trkpt lat="48.89606" lon="2.39314">
        <ele>53.5</ele>
        <time>2014-06-16T19:16:33Z</time>
      </trkpt>
      <trkpt lat="48.89616" lon="2.39305">
        <ele>53.4</ele>
        <time>2014-06-16T19:16:37Z</time>
      </trkpt>
      <trkpt lat="48.89624" lon="2.39296">
        <ele>54.1</ele>
        <time>2014-06-16T19:16:40Z</time>
      </trkpt>
      <trkpt lat="48.89631" lon="2.39285">
        <ele>54.1</ele>
        <time>2014-06-16T19:16:43Z</time>
      </trkpt>
      <trkpt lat="48.89639" lon="2.39275">
        <ele>54.5</ele>
        <time>2014-06-16T19:16:46Z</time>
      </trkpt>
      <trkpt lat="48.89647" lon="2.39264">
        <ele>54.8</ele>
        <time>2014-06-16T19:16:49Z</time>
      </trkpt>
      <trkpt lat="48.89655" lon="2.39256">
        <ele>54.6</ele>
        <time>2014-06-16T19:16:52Z</time>
      </trkpt>
      <trkpt lat="48.89661" lon="2.39243">
        <ele>54.6</ele>
        <time>2014-06-16T19:16:56Z</time>
      </trkpt>
      <trkpt lat="48.89662" lon="2.39227">
        <ele>54.5</ele>
        <time>2014-06-16T19:17:01Z</time>
      </trkpt>
      <trkpt lat="48.89657" lon="2.39213">
        <ele>54.3</ele>
        <time>2014-06-16T19:17:05Z</time>
      </trkpt>
      <trkpt lat="48.89651" lon="2.39201">
        <ele>54.7</ele>
        <time>2014-06-16T19:17:10Z</time>
      </trkpt>
      <trkpt lat="48.89646" lon="2.39189">
        <ele>54.8</ele>
        <time>2014-06-16T19:17:17Z</time>
      </trkpt>
      <trkpt lat="48.89641" lon="2.39174">
        <ele>54.3</ele>
        <time>2014-06-16T19:17:23Z</time>
      </trkpt>
      <trkpt lat="48.89634" lon="2.3916">
        <ele>54</ele>
        <time>2014-06-16T19:17:27Z</time>
      </trkpt>
      <trkpt lat="48.89626" lon="2.39148">
        <ele>53.8</ele>
        <time>2014-06-16T19:17:31Z</time>
      </trkpt>
      <trkpt lat="48.8962" lon="2.39132">
        <ele>51.6</ele>
        <time>2014-06-16T19:17:34Z</time>
      </trkpt>
      <trkpt lat="48.89615" lon="2.39117">
        <ele>50.4</ele>
        <time>2014-06-16T19:17:36Z</time>
      </trkpt>
      <trkpt lat="48.89608" lon="2.39103">
        <ele>49.8</ele>
        <time>2014-06-16T19:17:38Z</time>
      </trkpt>
      <trkpt lat="48.89601" lon="2.39089">
        <ele>49.7</ele>
        <time>2014-06-16T19:17:40Z</time>
      </trkpt>
      <trkpt lat="48.89594" lon="2.39075">
        <ele>49.1</ele>
        <time>2014-06-16T19:17:42Z</time>
      </trkpt>
      <trkpt lat="48.89588" lon="2.39062">
        <ele>48.5</ele>
        <time>2014-06-16T19:17:44Z</time>
      </trkpt>
      <trkpt lat="48.89581" lon="2.39047">
        <ele>48</ele>
        <time>2014-06-16T19:17:47Z</time>
      </trkpt>
      <trkpt lat="48.89573" lon="2.39032">
        <ele>49.4</ele>
        <time>2014-06-16T19:17:50Z</time>
      </trkpt>
      <trkpt lat="48.89565" lon="2.39017">
        <ele>48.7</ele>
        <time>2014-06-16T19:17:53Z</time>
      </trkpt>
      <trkpt lat="48.89558" lon="2.39002">
        <ele>48.9</ele>
        <time>2014-06-16T19:17:56Z</time>
      </trkpt>
      <trkpt lat="48.8955" lon="2.38988">
        <ele>48.9</ele>
        <time>2014-06-16T19:17:59Z</time>
      </trkpt>
      <trkpt lat="48.89542" lon="2.38973">
        <ele>49.4</ele>
        <time>2014-06-16T19:18:02Z</time>
      </trkpt>
      <trkpt lat="48.89535" lon="2.38958">
        <ele>49.5</ele>
        <time>2014-06-16T19:18:05Z</time>
      </trkpt>
      <trkpt lat="48.89528" lon="2.38944">
        <ele>49.6</ele>
        <time>2014-06-16T19:18:08Z</time>
      </trkpt>
      <trkpt lat="48.8952" lon="2.3893">
        <ele>49.2</ele>
        <time>2014-06-16T19:18:11Z</time>
      </trkpt>
      <trkpt lat="48.89513" lon="2.38914">
        <ele>48.9</ele>
        <time>2014-06-16T19:18:14Z</time>
      </trkpt>
      <trkpt lat="48.89506" lon="2.389">
        <ele>49</ele>
        <time>2014-06-16T19:18:17Z</time>
      </trkpt>
      <trkpt lat="48.89499" lon="2.38885">
        <ele>49.4</ele>
        <time>2014-06-16T19:18:21Z</time>
      </trkpt>
      <trkpt lat="48.89492" lon="2.3887">
        <ele>48.7</ele>
        <time>2014-06-16T19:18:27Z</time>
      </trkpt>
      <trkpt lat="48.89485" lon="2.38858">
        <ele>49.1</ele>
        <time>2014-06-16T19:18:30Z</time>
      </trkpt>
      <trkpt lat="48.89479" lon="2.38849">
        <ele>49.1</ele>
        <time>2014-06-16T19:18:33Z</time>
      </trkpt>
      <trkpt lat="48.89473" lon="2.38835">
        <ele>48.8</ele>
        <time>2014-06-16T19:18:36Z</time>
      </trkpt>
      <trkpt lat="48.89464" lon="2.3882">
        <ele>48.7</ele>
        <time>2014-06-16T19:18:39Z</time>
      </trkpt>
      <trkpt lat="48.89458" lon="2.38805">
        <ele>47.9</ele>
        <time>2014-06-16T19:18:42Z</time>
      </trkpt>
      <trkpt lat="48.8945" lon="2.3879">
        <ele>48.5</ele>
        <time>2014-06-16T19:18:45Z</time>
      </trkpt>
      <trkpt lat="48.89443" lon="2.38775">
        <ele>48.5</ele>
        <time>2014-06-16T19:18:48Z</time>
      </trkpt>
      <trkpt lat="48.89435" lon="2.38764">
        <ele>48.4</ele>
        <time>2014-06-16T19:18:51Z</time>
      </trkpt>
      <trkpt lat="48.89425" lon="2.38757">
        <ele>47.8</ele>
        <time>2014-06-16T19:18:54Z</time>
      </trkpt>
      <trkpt lat="48.89416" lon="2.38751">
        <ele>48.5</ele>
        <time>2014-06-16T19:18:57Z</time>
      </trkpt>
      <trkpt lat="48.89409" lon="2.38743">
        <ele>48.9</ele>
        <time>2014-06-16T19:19:00Z</time>
      </trkpt>
      <trkpt lat="48.89404" lon="2.38728">
        <ele>48.4</ele>
        <time>2014-06-16T19:19:03Z</time>
      </trkpt>
      <trkpt lat="48.89402" lon="2.38713">
        <ele>49</ele>
        <time>2014-06-16T19:19:06Z</time>
      </trkpt>
      <trkpt lat="48.89403" lon="2.38699">
        <ele>47.9</ele>
        <time>2014-06-16T19:19:09Z</time>
      </trkpt>
      <trkpt lat="48.89406" lon="2.38685">
        <ele>48.8</ele>
        <time>2014-06-16T19:19:13Z</time>
      </trkpt>
      <trkpt lat="48.89415" lon="2.38679">
        <ele>48.7</ele>
        <time>2014-06-16T19:19:16Z</time>
      </trkpt>
      <trkpt lat="48.89427" lon="2.38679">
        <ele>49.4</ele>
        <time>2014-06-16T19:19:19Z</time>
      </trkpt>
      <trkpt lat="48.89438" lon="2.38672">
        <ele>49.1</ele>
        <time>2014-06-16T19:19:22Z</time>
      </trkpt>
      <trkpt lat="48.89447" lon="2.38664">
        <ele>49.7</ele>
        <time>2014-06-16T19:19:25Z</time>
      </trkpt>
      <trkpt lat="48.89458" lon="2.38656">
        <ele>49.9</ele>
        <time>2014-06-16T19:19:29Z</time>
      </trkpt>
      <trkpt lat="48.89468" lon="2.38651">
        <ele>51.7</ele>
        <time>2014-06-16T19:19:33Z</time>
      </trkpt>
      <trkpt lat="48.89477" lon="2.38646">
        <ele>52</ele>
        <time>2014-06-16T19:19:38Z</time>
      </trkpt>
      <trkpt lat="48.89489" lon="2.38646">
        <ele>53.3</ele>
        <time>2014-06-16T19:19:43Z</time>
      </trkpt>
      <trkpt lat="48.895" lon="2.38645">
        <ele>53</ele>
        <time>2014-06-16T19:19:48Z</time>
      </trkpt>
      <trkpt lat="48.89507" lon="2.38637">
        <ele>53.2</ele>
        <time>2014-06-16T19:19:51Z</time>
      </trkpt>
      <trkpt lat="48.89515" lon="2.38629">
        <ele>52.7</ele>
        <time>2014-06-16T19:19:54Z</time>
      </trkpt>
      <trkpt lat="48.89523" lon="2.38621">
        <ele>52.9</ele>
        <time>2014-06-16T19:19:57Z</time>
      </trkpt>
      <trkpt lat="48.8953" lon="2.38612">
        <ele>53.6</ele>
        <time>2014-06-16T19:20:00Z</time>
      </trkpt>
      <trkpt lat="48.89536" lon="2.38599">
        <ele>53.3</ele>
        <time>2014-06-16T19:20:04Z</time>
      </trkpt>
      <trkpt lat="48.89541" lon="2.38585">
        <ele>53.3</ele>
        <time>2014-06-16T19:20:08Z</time>
      </trkpt>
      <trkpt lat="48.89544" lon="2.38571">
        <ele>52.9</ele>
        <time>2014-06-16T19:20:12Z</time>
      </trkpt>
      <trkpt lat="48.89547" lon="2.38556">
        <ele>52.1</ele>
        <time>2014-06-16T19:20:18Z</time>
      </trkpt>
      <trkpt lat="48.89545" lon="2.38541">
        <ele>52</ele>
        <time>2014-06-16T19:20:24Z</time>
      </trkpt>
      <trkpt lat="48.89542" lon="2.38527">
        <ele>53.1</ele>
        <time>2014-06-16T19:20:30Z</time>
      </trkpt>
      <trkpt lat="48.8954" lon="2.38513">
        <ele>52.8</ele>
        <time>2014-06-16T19:20:34Z</time>
      </trkpt>
      <trkpt lat="48.89545" lon="2.38499">
        <ele>52.4</ele>
        <time>2014-06-16T19:20:39Z</time>
      </trkpt>
      <trkpt lat="48.89553" lon="2.38486">
        <ele>52.9</ele>
        <time>2014-06-16T19:20:43Z</time>
      </trkpt>
      <trkpt lat="48.89561" lon="2.38476">
        <ele>51.8</ele>
        <time>2014-06-16T19:20:46Z</time>
      </trkpt>
      <trkpt lat="48.8957" lon="2.38467">
        <ele>51.3</ele>
        <time>2014-06-16T19:20:49Z</time>
      </trkpt>
      <trkpt lat="48.89581" lon="2.38461">
        <ele>51.1</ele>
        <time>2014-06-16T19:20:52Z</time>
      </trkpt>
      <trkpt lat="48.89592" lon="2.38452">
        <ele>51.6</ele>
        <time>2014-06-16T19:20:55Z</time>
      </trkpt>
      <trkpt lat="48.896" lon="2.38441">
        <ele>50.8</ele>
        <time>2014-06-16T19:20:58Z</time>
      </trkpt>
      <trkpt lat="48.89605" lon="2.38429">
        <ele>50.1</ele>
        <time>2014-06-16T19:21:04Z</time>
      </trkpt>
      <trkpt lat="48.896" lon="2.38415">
        <ele>50.1</ele>
        <time>2014-06-16T19:21:09Z</time>
      </trkpt>
      <trkpt lat="48.89593" lon="2.38402">
        <ele>50.5</ele>
        <time>2014-06-16T19:21:13Z</time>
      </trkpt>
      <trkpt lat="48.89587" lon="2.38391">
        <ele>50.4</ele>
        <time>2014-06-16T19:21:18Z</time>
      </trkpt>
      <trkpt lat="48.89578" lon="2.38383">
        <ele>50.8</ele>
        <time>2014-06-16T19:21:25Z</time>
      </trkpt>
      <trkpt lat="48.89571" lon="2.38372">
        <ele>50.5</ele>
        <time>2014-06-16T19:21:33Z</time>
      </trkpt>
      <trkpt lat="48.89564" lon="2.38363">
        <ele>48.6</ele>
        <time>2014-06-16T19:21:40Z</time>
      </trkpt>
      <trkpt lat="48.89555" lon="2.38356">
        <ele>49.3</ele>
        <time>2014-06-16T19:21:45Z</time>
      </trkpt>
      <trkpt lat="48.89549" lon="2.38344">
        <ele>51.7</ele>
        <time>2014-06-16T19:21:52Z</time>
      </trkpt>
      <trkpt lat="48.89542" lon="2.38334">
        <ele>51.8</ele>
        <time>2014-06-16T19:21:56Z</time>
      </trkpt>
      <trkpt lat="48.89534" lon="2.38324">
        <ele>52</ele>
        <time>2014-06-16T19:21:59Z</time>
      </trkpt>
      <trkpt lat="48.89527" lon="2.38313">
        <ele>50.8</ele>
        <time>2014-06-16T19:22:03Z</time>
      </trkpt>
      <trkpt lat="48.89518" lon="2.38303">
        <ele>49</ele>
        <time>2014-06-16T19:22:07Z</time>
      </trkpt>
      <trkpt lat="48.8951" lon="2.38295">
        <ele>48.4</ele>
        <time>2014-06-16T19:22:10Z</time>
      </trkpt>
      <trkpt lat="48.895" lon="2.38289">
        <ele>48.6</ele>
        <time>2014-06-16T19:22:14Z</time>
      </trkpt>
      <trkpt lat="48.89491" lon="2.38285">
        <ele>48.7</ele>
        <time>2014-06-16T19:22:18Z</time>
      </trkpt>
      <trkpt lat="48.89479" lon="2.38288">
        <ele>48.5</ele>
        <time>2014-06-16T19:22:22Z</time>
      </trkpt>
      <trkpt lat="48.89469" lon="2.38296">
        <ele>48.9</ele>
        <time>2014-06-16T19:22:25Z</time>
      </trkpt>
      <trkpt lat="48.89458" lon="2.38308">
        <ele>49.3</ele>
        <time>2014-06-16T19:22:28Z</time>
      </trkpt>
      <trkpt lat="48.89448" lon="2.38317">
        <ele>49.3</ele>
        <time>2014-06-16T19:22:31Z</time>
      </trkpt>
      <trkpt lat="48.89438" lon="2.38325">
        <ele>49.6</ele>
        <time>2014-06-16T19:22:34Z</time>
      </trkpt>
      <trkpt lat="48.8943" lon="2.38335">
        <ele>49.4</ele>
        <time>2014-06-16T19:22:37Z</time>
      </trkpt>
      <trkpt lat="48.89421" lon="2.38346">
        <ele>50.4</ele>
        <time>2014-06-16T19:22:41Z</time>
      </trkpt>
      <trkpt lat="48.8941" lon="2.3834">
        <ele>50.3</ele>
        <time>2014-06-16T19:22:45Z</time>
      </trkpt>
      <trkpt lat="48.894" lon="2.38334">
        <ele>50.1</ele>
        <time>2014-06-16T19:22:48Z</time>
      </trkpt>
      <trkpt lat="48.8939" lon="2.38334">
        <ele>50</ele>
        <time>2014-06-16T19:22:52Z</time>
      </trkpt>
      <trkpt lat="48.89381" lon="2.3834">
        <ele>50.2</ele>
        <time>2014-06-16T19:22:57Z</time>
      </trkpt>
      <trkpt lat="48.89372" lon="2.38345">
        <ele>50.3</ele>
        <time>2014-06-16T19:23:00Z</time>
      </trkpt>
      <trkpt lat="48.89362" lon="2.3835">
        <ele>50.8</ele>
        <time>2014-06-16T19:23:03Z</time>
      </trkpt>
      <trkpt lat="48.89352" lon="2.38354">
        <ele>50.6</ele>
        <time>2014-06-16T19:23:06Z</time>
      </trkpt>
      <trkpt lat="48.89342" lon="2.38359">
        <ele>50.6</ele>
        <time>2014-06-16T19:23:09Z</time>
      </trkpt>
      <trkpt lat="48.89332" lon="2.38362">
        <ele>51</ele>
        <time>2014-06-16T19:23:11Z</time>
      </trkpt>
      <trkpt lat="48.89323" lon="2.38367">
        <ele>52.3</ele>
        <time>2014-06-16T19:23:14Z</time>
      </trkpt>
      <trkpt lat="48.89314" lon="2.38371">
        <ele>52.5</ele>
        <time>2014-06-16T19:23:17Z</time>
      </trkpt>
      <trkpt lat="48.89304" lon="2.38374">
        <ele>51.5</ele>
        <time>2014-06-16T19:23:22Z</time>
      </trkpt>
      <trkpt lat="48.89296" lon="2.38381">
        <ele>52.7</ele>
        <time>2014-06-16T19:23:30Z</time>
      </trkpt>
      <trkpt lat="48.89287" lon="2.3838">
        <ele>52</ele>
        <time>2014-06-16T19:23:38Z</time>
      </trkpt>
      <trkpt lat="48.89281" lon="2.38392">
        <ele>52.6</ele>
        <time>2014-06-16T19:23:43Z</time>
      </trkpt>
      <trkpt lat="48.89275" lon="2.38403">
        <ele>52.5</ele>
        <time>2014-06-16T19:23:47Z</time>
      </trkpt>
      <trkpt lat="48.89268" lon="2.38413">
        <ele>52.6</ele>
        <time>2014-06-16T19:23:51Z</time>
      </trkpt>
      <trkpt lat="48.8926" lon="2.3842">
        <ele>52.9</ele>
        <time>2014-06-16T19:23:55Z</time>
      </trkpt>
      <trkpt lat="48.89252" lon="2.38425">
        <ele>53.4</ele>
        <time>2014-06-16T19:24:01Z</time>
      </trkpt>
      <trkpt lat="48.89243" lon="2.38433">
        <ele>53.3</ele>
        <time>2014-06-16T19:24:06Z</time>
      </trkpt>
      <trkpt lat="48.89234" lon="2.38435">
        <ele>53.3</ele>
        <time>2014-06-16T19:24:11Z</time>
      </trkpt>
      <trkpt lat="48.89223" lon="2.38434">
        <ele>52.8</ele>
        <time>2014-06-16T19:24:16Z</time>
      </trkpt>
      <trkpt lat="48.89213" lon="2.38438">
        <ele>53.7</ele>
        <time>2014-06-16T19:24:19Z</time>
      </trkpt>
      <trkpt lat="48.89205" lon="2.38442">
        <ele>53.6</ele>
        <time>2014-06-16T19:24:22Z</time>
      </trkpt>
      <trkpt lat="48.89195" lon="2.38448">
        <ele>53.5</ele>
        <time>2014-06-16T19:24:25Z</time>
      </trkpt>
      <trkpt lat="48.89186" lon="2.38453">
        <ele>54</ele>
        <time>2014-06-16T19:24:28Z</time>
      </trkpt>
      <trkpt lat="48.89176" lon="2.38458">
        <ele>54.4</ele>
        <time>2014-06-16T19:24:33Z</time>
      </trkpt>
      <trkpt lat="48.89166" lon="2.38458">
        <ele>55.3</ele>
        <time>2014-06-16T19:24:38Z</time>
      </trkpt>
      <trkpt lat="48.89157" lon="2.38456">
        <ele>55</ele>
        <time>2014-06-16T19:24:43Z</time>
      </trkpt>
      <trkpt lat="48.89145" lon="2.38452">
        <ele>54.8</ele>
        <time>2014-06-16T19:24:47Z</time>
      </trkpt>
      <trkpt lat="48.89134" lon="2.38445">
        <ele>56.4</ele>
        <time>2014-06-16T19:24:51Z</time>
      </trkpt>
      <trkpt lat="48.89127" lon="2.38436">
        <ele>56.7</ele>
        <time>2014-06-16T19:24:53Z</time>
      </trkpt>
      <trkpt lat="48.89117" lon="2.38422">
        <ele>56.4</ele>
        <time>2014-06-16T19:24:56Z</time>
      </trkpt>
      <trkpt lat="48.89108" lon="2.38409">
        <ele>56</ele>
        <time>2014-06-16T19:24:59Z</time>
      </trkpt>
      <trkpt lat="48.89104" lon="2.38395">
        <ele>55.8</ele>
        <time>2014-06-16T19:25:03Z</time>
      </trkpt>
      <trkpt lat="48.89107" lon="2.3838">
        <ele>56</ele>
        <time>2014-06-16T19:25:07Z</time>
      </trkpt>
      <trkpt lat="48.89109" lon="2.38366">
        <ele>56.5</ele>
        <time>2014-06-16T19:25:11Z</time>
      </trkpt>
      <trkpt lat="48.89112" lon="2.38351">
        <ele>55.7</ele>
        <time>2014-06-16T19:25:14Z</time>
      </trkpt>
      <trkpt lat="48.89117" lon="2.38332">
        <ele>56.2</ele>
        <time>2014-06-16T19:25:17Z</time>
      </trkpt>
      <trkpt lat="48.89123" lon="2.3832">
        <ele>55.7</ele>
        <time>2014-06-16T19:25:19Z</time>
      </trkpt>
      <trkpt lat="48.89129" lon="2.38308">
        <ele>54.6</ele>
        <time>2014-06-16T19:25:21Z</time>
      </trkpt>
      <trkpt lat="48.89133" lon="2.38295">
        <ele>54.3</ele>
        <time>2014-06-16T19:25:23Z</time>
      </trkpt>
      <trkpt lat="48.89139" lon="2.38283">
        <ele>54.4</ele>
        <time>2014-06-16T19:25:25Z</time>
      </trkpt>
      <trkpt lat="48.89145" lon="2.38272">
        <ele>55</ele>
        <time>2014-06-16T19:25:27Z</time>
      </trkpt>
      <trkpt lat="48.89152" lon="2.38261">
        <ele>54.5</ele>
        <time>2014-06-16T19:25:29Z</time>
      </trkpt>
      <trkpt lat="48.8916" lon="2.38246">
        <ele>53.5</ele>
        <time>2014-06-16T19:25:32Z</time>
      </trkpt>
      <trkpt lat="48.89165" lon="2.38234">
        <ele>53</ele>
        <time>2014-06-16T19:25:34Z</time>
      </trkpt>
      <trkpt lat="48.89172" lon="2.38223">
        <ele>52.6</ele>
        <time>2014-06-16T19:25:36Z</time>
      </trkpt>
      <trkpt lat="48.89181" lon="2.38209">
        <ele>52.1</ele>
        <time>2014-06-16T19:25:39Z</time>
      </trkpt>
      <trkpt lat="48.8919" lon="2.38195">
        <ele>51.9</ele>
        <time>2014-06-16T19:25:42Z</time>
      </trkpt>
      <trkpt lat="48.89197" lon="2.38179">
        <ele>51.9</ele>
        <time>2014-06-16T19:25:45Z</time>
      </trkpt>
      <trkpt lat="48.89203" lon="2.38169">
        <ele>51.5</ele>
        <time>2014-06-16T19:25:47Z</time>
      </trkpt>
      <trkpt lat="48.89211" lon="2.38153">
        <ele>50.7</ele>
        <time>2014-06-16T19:25:50Z</time>
      </trkpt>
      <trkpt lat="48.89218" lon="2.38143">
        <ele>50.5</ele>
        <time>2014-06-16T19:25:52Z</time>
      </trkpt>
      <trkpt lat="48.89226" lon="2.38132">
        <ele>50.5</ele>
        <time>2014-06-16T19:25:54Z</time>
      </trkpt>
      <trkpt lat="48.89233" lon="2.38121">
        <ele>50.3</ele>
        <time>2014-06-16T19:25:56Z</time>
      </trkpt>
      <trkpt lat="48.89241" lon="2.38108">
        <ele>50</ele>
        <time>2014-06-16T19:25:58Z</time>
      </trkpt>
      <trkpt lat="48.89248" lon="2.38097">
        <ele>50.1</ele>
        <time>2014-06-16T19:26:00Z</time>
      </trkpt>
      <trkpt lat="48.89255" lon="2.38086">
        <ele>50.3</ele>
        <time>2014-06-16T19:26:02Z</time>
      </trkpt>
      <trkpt lat="48.89262" lon="2.38076">
        <ele>50.3</ele>
        <time>2014-06-16T19:26:04Z</time>
      </trkpt>
      <trkpt lat="48.89269" lon="2.38067">
        <ele>50</ele>
        <time>2014-06-16T19:26:06Z</time>
      </trkpt>
      <trkpt lat="48.89276" lon="2.38052">
        <ele>49.7</ele>
        <time>2014-06-16T19:26:09Z</time>
      </trkpt>
      <trkpt lat="48.89284" lon="2.38044">
        <ele>49.2</ele>
        <time>2014-06-16T19:26:12Z</time>
      </trkpt>
      <trkpt lat="48.89291" lon="2.38035">
        <ele>49.4</ele>
        <time>2014-06-16T19:26:15Z</time>
      </trkpt>
      <trkpt lat="48.89297" lon="2.38023">
        <ele>50.4</ele>
        <time>2014-06-16T19:26:23Z</time>
      </trkpt>
      <trkpt lat="48.89301" lon="2.38008">
        <ele>50.6</ele>
        <time>2014-06-16T19:26:35Z</time>
      </trkpt>
      <trkpt lat="48.89306" lon="2.37996">
        <ele>49.8</ele>
        <time>2014-06-16T19:26:40Z</time>
      </trkpt>
      <trkpt lat="48.893" lon="2.37982">
        <ele>49.8</ele>
        <time>2014-06-16T19:26:44Z</time>
      </trkpt>
      <trkpt lat="48.89291" lon="2.37969">
        <ele>49.9</ele>
        <time>2014-06-16T19:26:48Z</time>
      </trkpt>
      <trkpt lat="48.89284" lon="2.37958">
        <ele>50.3</ele>
        <time>2014-06-16T19:26:51Z</time>
      </trkpt>
      <trkpt lat="48.89275" lon="2.37947">
        <ele>50.9</ele>
        <time>2014-06-16T19:26:54Z</time>
      </trkpt>
      <trkpt lat="48.89268" lon="2.37939">
        <ele>50.9</ele>
        <time>2014-06-16T19:26:57Z</time>
      </trkpt>
      <trkpt lat="48.8926" lon="2.3793">
        <ele>50.9</ele>
        <time>2014-06-16T19:27:00Z</time>
      </trkpt>
      <trkpt lat="48.89256" lon="2.37915">
        <ele>49.8</ele>
        <time>2014-06-16T19:27:03Z</time>
      </trkpt>
      <trkpt lat="48.89261" lon="2.37897">
        <ele>50.4</ele>
        <time>2014-06-16T19:27:06Z</time>
      </trkpt>
      <trkpt lat="48.89266" lon="2.3788">
        <ele>50.1</ele>
        <time>2014-06-16T19:27:09Z</time>
      </trkpt>
      <trkpt lat="48.89272" lon="2.37861">
        <ele>50</ele>
        <time>2014-06-16T19:27:12Z</time>
      </trkpt>
      <trkpt lat="48.89273" lon="2.37847">
        <ele>50.1</ele>
        <time>2014-06-16T19:27:14Z</time>
      </trkpt>
      <trkpt lat="48.89279" lon="2.37828">
        <ele>50.6</ele>
        <time>2014-06-16T19:27:17Z</time>
      </trkpt>
      <trkpt lat="48.89287" lon="2.37818">
        <ele>50.2</ele>
        <time>2014-06-16T19:27:19Z</time>
      </trkpt>
      <trkpt lat="48.89294" lon="2.37806">
        <ele>50.2</ele>
        <time>2014-06-16T19:27:21Z</time>
      </trkpt>
      <trkpt lat="48.89298" lon="2.37794">
        <ele>50.3</ele>
        <time>2014-06-16T19:27:23Z</time>
      </trkpt>
      <trkpt lat="48.89303" lon="2.37782">
        <ele>50.5</ele>
        <time>2014-06-16T19:27:25Z</time>
      </trkpt>
      <trkpt lat="48.89308" lon="2.37769">
        <ele>50.4</ele>
        <time>2014-06-16T19:27:27Z</time>
      </trkpt>
      <trkpt lat="48.89311" lon="2.37756">
        <ele>50.2</ele>
        <time>2014-06-16T19:27:29Z</time>
      </trkpt>
      <trkpt lat="48.89316" lon="2.37743">
        <ele>50.5</ele>
        <time>2014-06-16T19:27:31Z</time>
      </trkpt>
      <trkpt lat="48.89321" lon="2.37731">
        <ele>50.1</ele>
        <time>2014-06-16T19:27:33Z</time>
      </trkpt>
      <trkpt lat="48.89328" lon="2.37715">
        <ele>49.3</ele>
        <time>2014-06-16T19:27:36Z</time>
      </trkpt>
      <trkpt lat="48.89334" lon="2.37696">
        <ele>49.2</ele>
        <time>2014-06-16T19:27:39Z</time>
      </trkpt>
      <trkpt lat="48.89339" lon="2.37678">
        <ele>48.7</ele>
        <time>2014-06-16T19:27:42Z</time>
      </trkpt>
      <trkpt lat="48.89342" lon="2.3766">
        <ele>49.2</ele>
        <time>2014-06-16T19:27:45Z</time>
      </trkpt>
      <trkpt lat="48.89344" lon="2.37645">
        <ele>49.1</ele>
        <time>2014-06-16T19:27:48Z</time>
      </trkpt>
      <trkpt lat="48.89349" lon="2.37629">
        <ele>49.7</ele>
        <time>2014-06-16T19:27:51Z</time>
      </trkpt>
      <trkpt lat="48.89356" lon="2.37613">
        <ele>49.8</ele>
        <time>2014-06-16T19:27:54Z</time>
      </trkpt>
      <trkpt lat="48.89361" lon="2.37595">
        <ele>49.1</ele>
        <time>2014-06-16T19:27:57Z</time>
      </trkpt>
      <trkpt lat="48.89365" lon="2.37581">
        <ele>48.8</ele>
        <time>2014-06-16T19:27:59Z</time>
      </trkpt>
      <trkpt lat="48.89371" lon="2.37568">
        <ele>48.6</ele>
        <time>2014-06-16T19:28:01Z</time>
      </trkpt>
      <trkpt lat="48.89375" lon="2.37555">
        <ele>48.8</ele>
        <time>2014-06-16T19:28:03Z</time>
      </trkpt>
      <trkpt lat="48.89378" lon="2.37541">
        <ele>49.2</ele>
        <time>2014-06-16T19:28:05Z</time>
      </trkpt>
      <trkpt lat="48.89384" lon="2.37529">
        <ele>49.4</ele>
        <time>2014-06-16T19:28:07Z</time>
      </trkpt>
      <trkpt lat="48.89389" lon="2.37515">
        <ele>49.4</ele>
        <time>2014-06-16T19:28:10Z</time>
      </trkpt>
      <trkpt lat="48.894" lon="2.37506">
        <ele>50.2</ele>
        <time>2014-06-16T19:28:13Z</time>
      </trkpt>
      <trkpt lat="48.8941" lon="2.37496">
        <ele>50.2</ele>
        <time>2014-06-16T19:28:16Z</time>
      </trkpt>
      <trkpt lat="48.89419" lon="2.37487">
        <ele>49.9</ele>
        <time>2014-06-16T19:28:19Z</time>
      </trkpt>
      <trkpt lat="48.89428" lon="2.37474">
        <ele>49.8</ele>
        <time>2014-06-16T19:28:23Z</time>
      </trkpt>
      <trkpt lat="48.89435" lon="2.37465">
        <ele>49.2</ele>
        <time>2014-06-16T19:28:26Z</time>
      </trkpt>
      <trkpt lat="48.8944" lon="2.37451">
        <ele>49.8</ele>
        <time>2014-06-16T19:28:29Z</time>
      </trkpt>
      <trkpt lat="48.89446" lon="2.3744">
        <ele>49.6</ele>
        <time>2014-06-16T19:28:32Z</time>
      </trkpt>
      <trkpt lat="48.89442" lon="2.37423">
        <ele>49.9</ele>
        <time>2014-06-16T19:28:40Z</time>
      </trkpt>
      <trkpt lat="48.89433" lon="2.37409">
        <ele>49.4</ele>
        <time>2014-06-16T19:28:44Z</time>
      </trkpt>
      <trkpt lat="48.89426" lon="2.37398">
        <ele>48.5</ele>
        <time>2014-06-16T19:28:47Z</time>
      </trkpt>
      <trkpt lat="48.89416" lon="2.3739">
        <ele>48.9</ele>
        <time>2014-06-16T19:28:52Z</time>
      </trkpt>
      <trkpt lat="48.8941" lon="2.3738">
        <ele>49.9</ele>
        <time>2014-06-16T19:28:56Z</time>
      </trkpt>
      <trkpt lat="48.89404" lon="2.37367">
        <ele>50.1</ele>
        <time>2014-06-16T19:29:02Z</time>
      </trkpt>
      <trkpt lat="48.89399" lon="2.37352">
        <ele>50</ele>
        <time>2014-06-16T19:29:06Z</time>
      </trkpt>
      <trkpt lat="48.89396" lon="2.37338">
        <ele>49.1</ele>
        <time>2014-06-16T19:29:10Z</time>
      </trkpt>
      <trkpt lat="48.89392" lon="2.37322">
        <ele>48.6</ele>
        <time>2014-06-16T19:29:15Z</time>
      </trkpt>
      <trkpt lat="48.89392" lon="2.37305">
        <ele>49.7</ele>
        <time>2014-06-16T19:29:19Z</time>
      </trkpt>
      <trkpt lat="48.89396" lon="2.37291">
        <ele>50.5</ele>
        <time>2014-06-16T19:29:22Z</time>
      </trkpt>
      <trkpt lat="48.89402" lon="2.37275">
        <ele>50.4</ele>
        <time>2014-06-16T19:29:26Z</time>
      </trkpt>
      <trkpt lat="48.89406" lon="2.37261">
        <ele>50.3</ele>
        <time>2014-06-16T19:29:29Z</time>
      </trkpt>
      <trkpt lat="48.8941" lon="2.37242">
        <ele>50.7</ele>
        <time>2014-06-16T19:29:32Z</time>
      </trkpt>
      <trkpt lat="48.89412" lon="2.37223">
        <ele>50.7</ele>
        <time>2014-06-16T19:29:35Z</time>
      </trkpt>
      <trkpt lat="48.89415" lon="2.37205">
        <ele>49.9</ele>
        <time>2014-06-16T19:29:38Z</time>
      </trkpt>
      <trkpt lat="48.89417" lon="2.37188">
        <ele>49.4</ele>
        <time>2014-06-16T19:29:41Z</time>
      </trkpt>
      <trkpt lat="48.89423" lon="2.37173">
        <ele>49.7</ele>
        <time>2014-06-16T19:29:45Z</time>
      </trkpt>
      <trkpt lat="48.89426" lon="2.37158">
        <ele>49.7</ele>
        <time>2014-06-16T19:29:48Z</time>
      </trkpt>
      <trkpt lat="48.89429" lon="2.37141">
        <ele>48.8</ele>
        <time>2014-06-16T19:29:51Z</time>
      </trkpt>
      <trkpt lat="48.89431" lon="2.37124">
        <ele>49.1</ele>
        <time>2014-06-16T19:29:54Z</time>
      </trkpt>
      <trkpt lat="48.89432" lon="2.3711">
        <ele>49.4</ele>
        <time>2014-06-16T19:29:57Z</time>
      </trkpt>
      <trkpt lat="48.89433" lon="2.37095">
        <ele>48.8</ele>
        <time>2014-06-16T19:30:01Z</time>
      </trkpt>
      <trkpt lat="48.89433" lon="2.37079">
        <ele>48.6</ele>
        <time>2014-06-16T19:30:05Z</time>
      </trkpt>
      <trkpt lat="48.89438" lon="2.37067">
        <ele>48</ele>
        <time>2014-06-16T19:30:13Z</time>
      </trkpt>
      <trkpt lat="48.89438" lon="2.37052">
        <ele>49.3</ele>
        <time>2014-06-16T19:30:20Z</time>
      </trkpt>
      <trkpt lat="48.89433" lon="2.3704">
        <ele>49.4</ele>
        <time>2014-06-16T19:30:24Z</time>
      </trkpt>
      <trkpt lat="48.89425" lon="2.37031">
        <ele>49.1</ele>
        <time>2014-06-16T19:30:27Z</time>
      </trkpt>
      <trkpt lat="48.89417" lon="2.37023">
        <ele>49</ele>
        <time>2014-06-16T19:30:30Z</time>
      </trkpt>
      <trkpt lat="48.89407" lon="2.37013">
        <ele>49.3</ele>
        <time>2014-06-16T19:30:33Z</time>
      </trkpt>
      <trkpt lat="48.89395" lon="2.37005">
        <ele>49.2</ele>
        <time>2014-06-16T19:30:36Z</time>
      </trkpt>
      <trkpt lat="48.89383" lon="2.36999">
        <ele>49.6</ele>
        <time>2014-06-16T19:30:39Z</time>
      </trkpt>
      <trkpt lat="48.89372" lon="2.36995">
        <ele>50.2</ele>
        <time>2014-06-16T19:30:42Z</time>
      </trkpt>
      <trkpt lat="48.8936" lon="2.3699">
        <ele>50.4</ele>
        <time>2014-06-16T19:30:45Z</time>
      </trkpt>
      <trkpt lat="48.89348" lon="2.36986">
        <ele>50.3</ele>
        <time>2014-06-16T19:30:48Z</time>
      </trkpt>
      <trkpt lat="48.89336" lon="2.36981">
        <ele>50.8</ele>
        <time>2014-06-16T19:30:51Z</time>
      </trkpt>
      <trkpt lat="48.89328" lon="2.36975">
        <ele>50.6</ele>
        <time>2014-06-16T19:30:53Z</time>
      </trkpt>
      <trkpt lat="48.89319" lon="2.36968">
        <ele>50.5</ele>
        <time>2014-06-16T19:30:55Z</time>
      </trkpt>
      <trkpt lat="48.89311" lon="2.36961">
        <ele>50.8</ele>
        <time>2014-06-16T19:30:57Z</time>
      </trkpt>
      <trkpt lat="48.893" lon="2.36953">
        <ele>50.8</ele>
        <time>2014-06-16T19:31:00Z</time>
      </trkpt>
      <trkpt lat="48.89288" lon="2.36944">
        <ele>51.2</ele>
        <time>2014-06-16T19:31:03Z</time>
      </trkpt>
      <trkpt lat="48.89279" lon="2.36939">
        <ele>51.3</ele>
        <time>2014-06-16T19:31:05Z</time>
      </trkpt>
      <trkpt lat="48.8927" lon="2.36932">
        <ele>51.3</ele>
        <time>2014-06-16T19:31:07Z</time>
      </trkpt>
      <trkpt lat="48.8926" lon="2.36927">
        <ele>51.7</ele>
        <time>2014-06-16T19:31:09Z</time>
      </trkpt>
      <trkpt lat="48.89248" lon="2.36922">
        <ele>52</ele>
        <time>2014-06-16T19:31:11Z</time>
      </trkpt>
      <trkpt lat="48.89238" lon="2.36917">
        <ele>52.1</ele>
        <time>2014-06-16T19:31:13Z</time>
      </trkpt>
      <trkpt lat="48.89227" lon="2.36911">
        <ele>52.1</ele>
        <time>2014-06-16T19:31:15Z</time>
      </trkpt>
      <trkpt lat="48.89217" lon="2.36906">
        <ele>52.1</ele>
        <time>2014-06-16T19:31:17Z</time>
      </trkpt>
      <trkpt lat="48.89208" lon="2.36902">
        <ele>52.6</ele>
        <time>2014-06-16T19:31:19Z</time>
      </trkpt>
      <trkpt lat="48.89195" lon="2.36898">
        <ele>52</ele>
        <time>2014-06-16T19:31:22Z</time>
      </trkpt>
      <trkpt lat="48.89182" lon="2.36896">
        <ele>51.2</ele>
        <time>2014-06-16T19:31:25Z</time>
      </trkpt>
      <trkpt lat="48.89168" lon="2.36893">
        <ele>51.3</ele>
        <time>2014-06-16T19:31:28Z</time>
      </trkpt>
      <trkpt lat="48.89158" lon="2.3689">
        <ele>51.6</ele>
        <time>2014-06-16T19:31:30Z</time>
      </trkpt>
      <trkpt lat="48.89149" lon="2.36885">
        <ele>51.7</ele>
        <time>2014-06-16T19:31:32Z</time>
      </trkpt>
      <trkpt lat="48.8914" lon="2.36879">
        <ele>51.7</ele>
        <time>2014-06-16T19:31:34Z</time>
      </trkpt>
      <trkpt lat="48.8913" lon="2.36873">
        <ele>51.8</ele>
        <time>2014-06-16T19:31:36Z</time>
      </trkpt>
      <trkpt lat="48.8912" lon="2.36866">
        <ele>51.5</ele>
        <time>2014-06-16T19:31:38Z</time>
      </trkpt>
      <trkpt lat="48.89109" lon="2.3686">
        <ele>51.9</ele>
        <time>2014-06-16T19:31:40Z</time>
      </trkpt>
      <trkpt lat="48.89098" lon="2.36855">
        <ele>52.6</ele>
        <time>2014-06-16T19:31:42Z</time>
      </trkpt>
      <trkpt lat="48.89088" lon="2.3685">
        <ele>52.9</ele>
        <time>2014-06-16T19:31:44Z</time>
      </trkpt>
      <trkpt lat="48.89079" lon="2.36846">
        <ele>52.5</ele>
        <time>2014-06-16T19:31:46Z</time>
      </trkpt>
      <trkpt lat="48.89069" lon="2.36842">
        <ele>51.8</ele>
        <time>2014-06-16T19:31:48Z</time>
      </trkpt>
      <trkpt lat="48.89057" lon="2.36837">
        <ele>51.3</ele>
        <time>2014-06-16T19:31:51Z</time>
      </trkpt>
      <trkpt lat="48.89048" lon="2.36832">
        <ele>51.3</ele>
        <time>2014-06-16T19:31:53Z</time>
      </trkpt>
      <trkpt lat="48.89039" lon="2.36828">
        <ele>51.6</ele>
        <time>2014-06-16T19:31:55Z</time>
      </trkpt>
      <trkpt lat="48.8903" lon="2.36824">
        <ele>51.4</ele>
        <time>2014-06-16T19:31:57Z</time>
      </trkpt>
      <trkpt lat="48.89021" lon="2.36821">
        <ele>52.1</ele>
        <time>2014-06-16T19:31:59Z</time>
      </trkpt>
      <trkpt lat="48.8901" lon="2.36817">
        <ele>52.2</ele>
        <time>2014-06-16T19:32:02Z</time>
      </trkpt>
      <trkpt lat="48.88999" lon="2.36814">
        <ele>52.4</ele>
        <time>2014-06-16T19:32:06Z</time>
      </trkpt>
      <trkpt lat="48.8899" lon="2.36808">
        <ele>52.6</ele>
        <time>2014-06-16T19:32:13Z</time>
      </trkpt>
      <trkpt lat="48.88985" lon="2.36796">
        <ele>52.1</ele>
        <time>2014-06-16T19:32:18Z</time>
      </trkpt>
      <trkpt lat="48.88985" lon="2.3678">
        <ele>52.4</ele>
        <time>2014-06-16T19:32:22Z</time>
      </trkpt>
      <trkpt lat="48.88984" lon="2.36764">
        <ele>53.1</ele>
        <time>2014-06-16T19:32:26Z</time>
      </trkpt>
      <trkpt lat="48.88983" lon="2.3675">
        <ele>53.5</ele>
        <time>2014-06-16T19:32:29Z</time>
      </trkpt>
      <trkpt lat="48.88982" lon="2.36732">
        <ele>54.7</ele>
        <time>2014-06-16T19:32:33Z</time>
      </trkpt>
      <trkpt lat="48.88982" lon="2.36717">
        <ele>55.4</ele>
        <time>2014-06-16T19:32:36Z</time>
      </trkpt>
      <trkpt lat="48.88982" lon="2.36702">
        <ele>56</ele>
        <time>2014-06-16T19:32:39Z</time>
      </trkpt>
      <trkpt lat="48.88981" lon="2.36687">
        <ele>55.9</ele>
        <time>2014-06-16T19:32:42Z</time>
      </trkpt>
      <trkpt lat="48.88982" lon="2.36673">
        <ele>56.9</ele>
        <time>2014-06-16T19:32:45Z</time>
      </trkpt>
      <trkpt lat="48.88982" lon="2.36659">
        <ele>57.3</ele>
        <time>2014-06-16T19:32:48Z</time>
      </trkpt>
      <trkpt lat="48.88983" lon="2.36641">
        <ele>57</ele>
        <time>2014-06-16T19:32:51Z</time>
      </trkpt>
      <trkpt lat="48.88984" lon="2.36624">
        <ele>57.5</ele>
        <time>2014-06-16T19:32:54Z</time>
      </trkpt>
      <trkpt lat="48.88985" lon="2.36607">
        <ele>57.5</ele>
        <time>2014-06-16T19:32:57Z</time>
      </trkpt>
      <trkpt lat="48.88987" lon="2.36589">
        <ele>57.4</ele>
        <time>2014-06-16T19:33:00Z</time>
      </trkpt>
      <trkpt lat="48.88987" lon="2.36569">
        <ele>58</ele>
        <time>2014-06-16T19:33:03Z</time>
      </trkpt>
      <trkpt lat="48.88989" lon="2.36552">
        <ele>57.4</ele>
        <time>2014-06-16T19:33:06Z</time>
      </trkpt>
      <trkpt lat="48.88991" lon="2.36537">
        <ele>56.8</ele>
        <time>2014-06-16T19:33:09Z</time>
      </trkpt>
      <trkpt lat="48.88993" lon="2.36521">
        <ele>56.9</ele>
        <time>2014-06-16T19:33:12Z</time>
      </trkpt>
      <trkpt lat="48.88993" lon="2.36503">
        <ele>57.7</ele>
        <time>2014-06-16T19:33:15Z</time>
      </trkpt>
      <trkpt lat="48.88994" lon="2.36486">
        <ele>57.4</ele>
        <time>2014-06-16T19:33:18Z</time>
      </trkpt>
      <trkpt lat="48.88995" lon="2.3647">
        <ele>56.7</ele>
        <time>2014-06-16T19:33:21Z</time>
      </trkpt>
      <trkpt lat="48.88996" lon="2.36454">
        <ele>57</ele>
        <time>2014-06-16T19:33:24Z</time>
      </trkpt>
      <trkpt lat="48.89" lon="2.36441">
        <ele>55.8</ele>
        <time>2014-06-16T19:33:28Z</time>
      </trkpt>
      <trkpt lat="48.88996" lon="2.36423">
        <ele>54.9</ele>
        <time>2014-06-16T19:33:31Z</time>
      </trkpt>
      <trkpt lat="48.88996" lon="2.36407">
        <ele>53.8</ele>
        <time>2014-06-16T19:33:35Z</time>
      </trkpt>
      <trkpt lat="48.88994" lon="2.3639">
        <ele>53.8</ele>
        <time>2014-06-16T19:33:38Z</time>
      </trkpt>
      <trkpt lat="48.88993" lon="2.36374">
        <ele>54.8</ele>
        <time>2014-06-16T19:33:41Z</time>
      </trkpt>
      <trkpt lat="48.88996" lon="2.36361">
        <ele>55.1</ele>
        <time>2014-06-16T19:33:45Z</time>
      </trkpt>
      <trkpt lat="48.88995" lon="2.36346">
        <ele>54.2</ele>
        <time>2014-06-16T19:33:51Z</time>
      </trkpt>
      <trkpt lat="48.8899" lon="2.36357">
        <ele>54.5</ele>
        <time>2014-06-16T19:34:05Z</time>
      </trkpt>
      <trkpt lat="48.88997" lon="2.36366">
        <ele>54.3</ele>
        <time>2014-06-16T19:34:11Z</time>
      </trkpt>
      <trkpt lat="48.89007" lon="2.36369">
        <ele>54.1</ele>
        <time>2014-06-16T19:34:15Z</time>
      </trkpt>
      <trkpt lat="48.89018" lon="2.36373">
        <ele>55.2</ele>
        <time>2014-06-16T19:34:19Z</time>
      </trkpt>
      <trkpt lat="48.89027" lon="2.36377">
        <ele>53.9</ele>
        <time>2014-06-16T19:34:23Z</time>
      </trkpt>
      <trkpt lat="48.8904" lon="2.3638">
        <ele>54.4</ele>
        <time>2014-06-16T19:34:26Z</time>
      </trkpt>
      <trkpt lat="48.89049" lon="2.3638">
        <ele>54.7</ele>
        <time>2014-06-16T19:34:28Z</time>
      </trkpt>
      <trkpt lat="48.89058" lon="2.36381">
        <ele>55.3</ele>
        <time>2014-06-16T19:34:30Z</time>
      </trkpt>
      <trkpt lat="48.89067" lon="2.36387">
        <ele>54.8</ele>
        <time>2014-06-16T19:34:33Z</time>
      </trkpt>
      <trkpt lat="48.89076" lon="2.36392">
        <ele>54.3</ele>
        <time>2014-06-16T19:34:36Z</time>
      </trkpt>
      <trkpt lat="48.89086" lon="2.36392">
        <ele>54.5</ele>
        <time>2014-06-16T19:34:39Z</time>
      </trkpt>
      <trkpt lat="48.89094" lon="2.36377">
        <ele>54.4</ele>
        <time>2014-06-16T19:34:42Z</time>
      </trkpt>
      <trkpt lat="48.89102" lon="2.36367">
        <ele>54.3</ele>
        <time>2014-06-16T19:34:45Z</time>
      </trkpt>
      <trkpt lat="48.89111" lon="2.36354">
        <ele>54.5</ele>
        <time>2014-06-16T19:34:48Z</time>
      </trkpt>
      <trkpt lat="48.89122" lon="2.3635">
        <ele>54.8</ele>
        <time>2014-06-16T19:34:52Z</time>
      </trkpt>
      <trkpt lat="48.89132" lon="2.3635">
        <ele>53.9</ele>
        <time>2014-06-16T19:34:55Z</time>
      </trkpt>
      <trkpt lat="48.89142" lon="2.36348">
        <ele>54.2</ele>
        <time>2014-06-16T19:34:57Z</time>
      </trkpt>
      <trkpt lat="48.89152" lon="2.36348">
        <ele>54.1</ele>
        <time>2014-06-16T19:34:59Z</time>
      </trkpt>
      <trkpt lat="48.89164" lon="2.36348">
        <ele>53.7</ele>
        <time>2014-06-16T19:35:02Z</time>
      </trkpt>
      <trkpt lat="48.89178" lon="2.36347">
        <ele>53.6</ele>
        <time>2014-06-16T19:35:05Z</time>
      </trkpt>
      <trkpt lat="48.8919" lon="2.36349">
        <ele>54</ele>
        <time>2014-06-16T19:35:08Z</time>
      </trkpt>
      <trkpt lat="48.89202" lon="2.36349">
        <ele>53.8</ele>
        <time>2014-06-16T19:35:11Z</time>
      </trkpt>
      <trkpt lat="48.89214" lon="2.3635">
        <ele>53.6</ele>
        <time>2014-06-16T19:35:15Z</time>
      </trkpt>
      <trkpt lat="48.89225" lon="2.3635">
        <ele>52.6</ele>
        <time>2014-06-16T19:35:19Z</time>
      </trkpt>
      <trkpt lat="48.89237" lon="2.36349">
        <ele>52.4</ele>
        <time>2014-06-16T19:35:22Z</time>
      </trkpt>
      <trkpt lat="48.89247" lon="2.3635">
        <ele>52</ele>
        <time>2014-06-16T19:35:25Z</time>
      </trkpt>
      <trkpt lat="48.89258" lon="2.3635">
        <ele>52.1</ele>
        <time>2014-06-16T19:35:29Z</time>
      </trkpt>
      <trkpt lat="48.89268" lon="2.36355">
        <ele>52.2</ele>
        <time>2014-06-16T19:35:32Z</time>
      </trkpt>
      <trkpt lat="48.89279" lon="2.36359">
        <ele>52.3</ele>
        <time>2014-06-16T19:35:35Z</time>
      </trkpt>
      <trkpt lat="48.8929" lon="2.36354">
        <ele>51.6</ele>
        <time>2014-06-16T19:35:38Z</time>
      </trkpt>
      <trkpt lat="48.89298" lon="2.36341">
        <ele>51.7</ele>
        <time>2014-06-16T19:35:41Z</time>
      </trkpt>
      <trkpt lat="48.89306" lon="2.3633">
        <ele>51.1</ele>
        <time>2014-06-16T19:35:44Z</time>
      </trkpt>
      <trkpt lat="48.89316" lon="2.36324">
        <ele>50.5</ele>
        <time>2014-06-16T19:35:47Z</time>
      </trkpt>
      <trkpt lat="48.89326" lon="2.36318">
        <ele>50.9</ele>
        <time>2014-06-16T19:35:50Z</time>
      </trkpt>
      <trkpt lat="48.89336" lon="2.36315">
        <ele>51.2</ele>
        <time>2014-06-16T19:35:55Z</time>
      </trkpt>
      <trkpt lat="48.89347" lon="2.36317">
        <ele>50.6</ele>
        <time>2014-06-16T19:35:59Z</time>
      </trkpt>
      <trkpt lat="48.89358" lon="2.3632">
        <ele>50.7</ele>
        <time>2014-06-16T19:36:02Z</time>
      </trkpt>
      <trkpt lat="48.89369" lon="2.36325">
        <ele>50.5</ele>
        <time>2014-06-16T19:36:05Z</time>
      </trkpt>
      <trkpt lat="48.89378" lon="2.36327">
        <ele>49.9</ele>
        <time>2014-06-16T19:36:07Z</time>
      </trkpt>
      <trkpt lat="48.89389" lon="2.36331">
        <ele>49.6</ele>
        <time>2014-06-16T19:36:09Z</time>
      </trkpt>
      <trkpt lat="48.894" lon="2.36334">
        <ele>48.8</ele>
        <time>2014-06-16T19:36:11Z</time>
      </trkpt>
      <trkpt lat="48.89409" lon="2.36338">
        <ele>47.6</ele>
        <time>2014-06-16T19:36:13Z</time>
      </trkpt>
      <trkpt lat="48.8942" lon="2.36341">
        <ele>48.5</ele>
        <time>2014-06-16T19:36:15Z</time>
      </trkpt>
      <trkpt lat="48.89432" lon="2.36345">
        <ele>48.6</ele>
        <time>2014-06-16T19:36:18Z</time>
      </trkpt>
      <trkpt lat="48.89445" lon="2.36343">
        <ele>48.8</ele>
        <time>2014-06-16T19:36:21Z</time>
      </trkpt>
      <trkpt lat="48.89456" lon="2.36342">
        <ele>48.9</ele>
        <time>2014-06-16T19:36:24Z</time>
      </trkpt>
      <trkpt lat="48.89467" lon="2.36344">
        <ele>48.2</ele>
        <time>2014-06-16T19:36:28Z</time>
      </trkpt>
      <trkpt lat="48.89476" lon="2.36346">
        <ele>48.2</ele>
        <time>2014-06-16T19:36:31Z</time>
      </trkpt>
      <trkpt lat="48.89487" lon="2.36349">
        <ele>48.5</ele>
        <time>2014-06-16T19:36:34Z</time>
      </trkpt>
      <trkpt lat="48.89498" lon="2.36347">
        <ele>47.7</ele>
        <time>2014-06-16T19:36:37Z</time>
      </trkpt>
      <trkpt lat="48.89512" lon="2.3634">
        <ele>48.2</ele>
        <time>2014-06-16T19:36:40Z</time>
      </trkpt>
      <trkpt lat="48.89521" lon="2.36334">
        <ele>48.9</ele>
        <time>2014-06-16T19:36:42Z</time>
      </trkpt>
      <trkpt lat="48.89525" lon="2.36319">
        <ele>49.3</ele>
        <time>2014-06-16T19:36:45Z</time>
      </trkpt>
      <trkpt lat="48.8953" lon="2.36304">
        <ele>49</ele>
        <time>2014-06-16T19:36:49Z</time>
      </trkpt>
      <trkpt lat="48.89532" lon="2.36287">
        <ele>48.3</ele>
        <time>2014-06-16T19:36:52Z</time>
      </trkpt>
      <trkpt lat="48.89535" lon="2.36273">
        <ele>48.2</ele>
        <time>2014-06-16T19:36:55Z</time>
      </trkpt>
      <trkpt lat="48.89538" lon="2.36259">
        <ele>48.3</ele>
        <time>2014-06-16T19:36:58Z</time>
      </trkpt>
      <trkpt lat="48.89534" lon="2.36247">
        <ele>48.1</ele>
        <time>2014-06-16T19:37:01Z</time>
      </trkpt>
      <trkpt lat="48.89531" lon="2.36231">
        <ele>48</ele>
        <time>2014-06-16T19:37:05Z</time>
      </trkpt>
      <trkpt lat="48.89531" lon="2.36217">
        <ele>47.7</ele>
        <time>2014-06-16T19:37:08Z</time>
      </trkpt>
      <trkpt lat="48.89533" lon="2.362">
        <ele>48.4</ele>
        <time>2014-06-16T19:37:11Z</time>
      </trkpt>
      <trkpt lat="48.89535" lon="2.36183">
        <ele>48.6</ele>
        <time>2014-06-16T19:37:14Z</time>
      </trkpt>
      <trkpt lat="48.89532" lon="2.36167">
        <ele>48.8</ele>
        <time>2014-06-16T19:37:16Z</time>
      </trkpt>
      <trkpt lat="48.89532" lon="2.36152">
        <ele>48.8</ele>
        <time>2014-06-16T19:37:18Z</time>
      </trkpt>
      <trkpt lat="48.89535" lon="2.36139">
        <ele>48.7</ele>
        <time>2014-06-16T19:37:21Z</time>
      </trkpt>
      <trkpt lat="48.89541" lon="2.36128">
        <ele>49.4</ele>
        <time>2014-06-16T19:37:25Z</time>
      </trkpt>
      <trkpt lat="48.89541" lon="2.36111">
        <ele>49.7</ele>
        <time>2014-06-16T19:37:29Z</time>
      </trkpt>
      <trkpt lat="48.89542" lon="2.36096">
        <ele>48.8</ele>
        <time>2014-06-16T19:37:32Z</time>
      </trkpt>
      <trkpt lat="48.8954" lon="2.36081">
        <ele>48.6</ele>
        <time>2014-06-16T19:37:35Z</time>
      </trkpt>
      <trkpt lat="48.89539" lon="2.36065">
        <ele>48.8</ele>
        <time>2014-06-16T19:37:38Z</time>
      </trkpt>
      <trkpt lat="48.89538" lon="2.3605">
        <ele>48</ele>
        <time>2014-06-16T19:37:41Z</time>
      </trkpt>
      <trkpt lat="48.89538" lon="2.36034">
        <ele>48.4</ele>
        <time>2014-06-16T19:37:44Z</time>
      </trkpt>
      <trkpt lat="48.89538" lon="2.36016">
        <ele>48.2</ele>
        <time>2014-06-16T19:37:47Z</time>
      </trkpt>
      <trkpt lat="48.89539" lon="2.35998">
        <ele>48.8</ele>
        <time>2014-06-16T19:37:50Z</time>
      </trkpt>
      <trkpt lat="48.89543" lon="2.35984">
        <ele>48.2</ele>
        <time>2014-06-16T19:37:53Z</time>
      </trkpt>
      <trkpt lat="48.89545" lon="2.35966">
        <ele>48.7</ele>
        <time>2014-06-16T19:37:56Z</time>
      </trkpt>
      <trkpt lat="48.89546" lon="2.35952">
        <ele>48.3</ele>
        <time>2014-06-16T19:37:58Z</time>
      </trkpt>
      <trkpt lat="48.89544" lon="2.35935">
        <ele>48.1</ele>
        <time>2014-06-16T19:38:01Z</time>
      </trkpt>
      <trkpt lat="48.89539" lon="2.35924">
        <ele>47.7</ele>
        <time>2014-06-16T19:38:04Z</time>
      </trkpt>
      <trkpt lat="48.89529" lon="2.3592">
        <ele>48.3</ele>
        <time>2014-06-16T19:38:07Z</time>
      </trkpt>
      <trkpt lat="48.89518" lon="2.35922">
        <ele>48.2</ele>
        <time>2014-06-16T19:38:11Z</time>
      </trkpt>
      <trkpt lat="48.89508" lon="2.35926">
        <ele>49</ele>
        <time>2014-06-16T19:38:16Z</time>
      </trkpt>
      <trkpt lat="48.89499" lon="2.35922">
        <ele>48.5</ele>
        <time>2014-06-16T19:38:21Z</time>
      </trkpt>
      <trkpt lat="48.89488" lon="2.35918">
        <ele>49.3</ele>
        <time>2014-06-16T19:38:26Z</time>
      </trkpt>
      <trkpt lat="48.89478" lon="2.35919">
        <ele>48.8</ele>
        <time>2014-06-16T19:38:30Z</time>
      </trkpt>
      <trkpt lat="48.8947" lon="2.35913">
        <ele>49.5</ele>
        <time>2014-06-16T19:38:33Z</time>
      </trkpt>
      <trkpt lat="48.8946" lon="2.35912">
        <ele>49.3</ele>
        <time>2014-06-16T19:38:36Z</time>
      </trkpt>
      <trkpt lat="48.89449" lon="2.35912">
        <ele>49.8</ele>
        <time>2014-06-16T19:38:40Z</time>
      </trkpt>
      <trkpt lat="48.89439" lon="2.35912">
        <ele>50.5</ele>
        <time>2014-06-16T19:38:43Z</time>
      </trkpt>
      <trkpt lat="48.89427" lon="2.35915">
        <ele>51.2</ele>
        <time>2014-06-16T19:38:47Z</time>
      </trkpt>
      <trkpt lat="48.89417" lon="2.35915">
        <ele>51.2</ele>
        <time>2014-06-16T19:38:49Z</time>
      </trkpt>
      <trkpt lat="48.89405" lon="2.35913">
        <ele>51.2</ele>
        <time>2014-06-16T19:38:52Z</time>
      </trkpt>
      <trkpt lat="48.89394" lon="2.35915">
        <ele>51.1</ele>
        <time>2014-06-16T19:38:56Z</time>
      </trkpt>
      <trkpt lat="48.89385" lon="2.35922">
        <ele>51.8</ele>
        <time>2014-06-16T19:39:00Z</time>
      </trkpt>
      <trkpt lat="48.89375" lon="2.35925">
        <ele>52.2</ele>
        <time>2014-06-16T19:39:03Z</time>
      </trkpt>
      <trkpt lat="48.89363" lon="2.35927">
        <ele>52.4</ele>
        <time>2014-06-16T19:39:07Z</time>
      </trkpt>
      <trkpt lat="48.89353" lon="2.35929">
        <ele>51.8</ele>
        <time>2014-06-16T19:39:11Z</time>
      </trkpt>
      <trkpt lat="48.89342" lon="2.3593">
        <ele>51.8</ele>
        <time>2014-06-16T19:39:15Z</time>
      </trkpt>
      <trkpt lat="48.89333" lon="2.35934">
        <ele>52.4</ele>
        <time>2014-06-16T19:39:18Z</time>
      </trkpt>
      <trkpt lat="48.89323" lon="2.35937">
        <ele>52.5</ele>
        <time>2014-06-16T19:39:22Z</time>
      </trkpt>
      <trkpt lat="48.89311" lon="2.35938">
        <ele>53.7</ele>
        <time>2014-06-16T19:39:25Z</time>
      </trkpt>
      <trkpt lat="48.893" lon="2.35941">
        <ele>54.5</ele>
        <time>2014-06-16T19:39:29Z</time>
      </trkpt>
      <trkpt lat="48.89289" lon="2.35945">
        <ele>54.2</ele>
        <time>2014-06-16T19:39:33Z</time>
      </trkpt>
      <trkpt lat="48.89277" lon="2.35946">
        <ele>54.3</ele>
        <time>2014-06-16T19:39:37Z</time>
      </trkpt>
      <trkpt lat="48.89267" lon="2.3595">
        <ele>54.7</ele>
        <time>2014-06-16T19:39:41Z</time>
      </trkpt>
      <trkpt lat="48.89258" lon="2.35953">
        <ele>54.3</ele>
        <time>2014-06-16T19:39:45Z</time>
      </trkpt>
      <trkpt lat="48.89247" lon="2.35954">
        <ele>54.8</ele>
        <time>2014-06-16T19:39:49Z</time>
      </trkpt>
      <trkpt lat="48.89237" lon="2.35959">
        <ele>55.5</ele>
        <time>2014-06-16T19:39:53Z</time>
      </trkpt>
      <trkpt lat="48.89227" lon="2.35963">
        <ele>55.5</ele>
        <time>2014-06-16T19:39:57Z</time>
      </trkpt>
      <trkpt lat="48.89218" lon="2.35964">
        <ele>55.7</ele>
        <time>2014-06-16T19:40:01Z</time>
      </trkpt>
      <trkpt lat="48.89206" lon="2.35965">
        <ele>55.6</ele>
        <time>2014-06-16T19:40:04Z</time>
      </trkpt>
      <trkpt lat="48.89195" lon="2.35965">
        <ele>56</ele>
        <time>2014-06-16T19:40:07Z</time>
      </trkpt>
      <trkpt lat="48.89185" lon="2.35967">
        <ele>55.7</ele>
        <time>2014-06-16T19:40:10Z</time>
      </trkpt>
      <trkpt lat="48.89174" lon="2.35971">
        <ele>55.2</ele>
        <time>2014-06-16T19:40:14Z</time>
      </trkpt>
      <trkpt lat="48.89162" lon="2.35973">
        <ele>55.7</ele>
        <time>2014-06-16T19:40:18Z</time>
      </trkpt>
      <trkpt lat="48.89152" lon="2.35974">
        <ele>56.4</ele>
        <time>2014-06-16T19:40:22Z</time>
      </trkpt>
      <trkpt lat="48.89143" lon="2.35974">
        <ele>57</ele>
        <time>2014-06-16T19:40:25Z</time>
      </trkpt>
      <trkpt lat="48.89132" lon="2.35969">
        <ele>56.6</ele>
        <time>2014-06-16T19:40:29Z</time>
      </trkpt>
      <trkpt lat="48.8912" lon="2.35975">
        <ele>56.2</ele>
        <time>2014-06-16T19:40:34Z</time>
      </trkpt>
      <trkpt lat="48.89111" lon="2.3598">
        <ele>57.1</ele>
        <time>2014-06-16T19:40:37Z</time>
      </trkpt>
      <trkpt lat="48.89102" lon="2.35979">
        <ele>56.7</ele>
        <time>2014-06-16T19:40:40Z</time>
      </trkpt>
      <trkpt lat="48.8909" lon="2.35978">
        <ele>56.6</ele>
        <time>2014-06-16T19:40:43Z</time>
      </trkpt>
      <trkpt lat="48.89081" lon="2.35978">
        <ele>56.3</ele>
        <time>2014-06-16T19:40:45Z</time>
      </trkpt>
      <trkpt lat="48.8907" lon="2.35977">
        <ele>55.7</ele>
        <time>2014-06-16T19:40:48Z</time>
      </trkpt>
      <trkpt lat="48.89057" lon="2.35978">
        <ele>55.6</ele>
        <time>2014-06-16T19:40:51Z</time>
      </trkpt>
      <trkpt lat="48.89048" lon="2.35967">
        <ele>55.3</ele>
        <time>2014-06-16T19:40:56Z</time>
      </trkpt>
      <trkpt lat="48.89046" lon="2.3595">
        <ele>54.3</ele>
        <time>2014-06-16T19:40:59Z</time>
      </trkpt>
      <trkpt lat="48.89046" lon="2.35936">
        <ele>54.3</ele>
        <time>2014-06-16T19:41:01Z</time>
      </trkpt>
      <trkpt lat="48.89045" lon="2.35916">
        <ele>54.1</ele>
        <time>2014-06-16T19:41:04Z</time>
      </trkpt>
      <trkpt lat="48.89043" lon="2.35901">
        <ele>54.2</ele>
        <time>2014-06-16T19:41:06Z</time>
      </trkpt>
      <trkpt lat="48.89043" lon="2.35886">
        <ele>54.7</ele>
        <time>2014-06-16T19:41:08Z</time>
      </trkpt>
      <trkpt lat="48.89042" lon="2.35872">
        <ele>54.8</ele>
        <time>2014-06-16T19:41:10Z</time>
      </trkpt>
      <trkpt lat="48.89039" lon="2.35854">
        <ele>55.1</ele>
        <time>2014-06-16T19:41:13Z</time>
      </trkpt>
      <trkpt lat="48.89028" lon="2.35848">
        <ele>55</ele>
        <time>2014-06-16T19:41:16Z</time>
      </trkpt>
      <trkpt lat="48.89018" lon="2.35843">
        <ele>55.3</ele>
        <time>2014-06-16T19:41:19Z</time>
      </trkpt>
      <trkpt lat="48.89009" lon="2.35838">
        <ele>56</ele>
        <time>2014-06-16T19:41:22Z</time>
      </trkpt>
      <trkpt lat="48.88998" lon="2.3583">
        <ele>56.1</ele>
        <time>2014-06-16T19:41:26Z</time>
      </trkpt>
      <trkpt lat="48.88987" lon="2.35827">
        <ele>55.6</ele>
        <time>2014-06-16T19:41:29Z</time>
      </trkpt>
      <trkpt lat="48.88974" lon="2.35825">
        <ele>55.1</ele>
        <time>2014-06-16T19:41:32Z</time>
      </trkpt>
      <trkpt lat="48.88961" lon="2.35824">
        <ele>54.5</ele>
        <time>2014-06-16T19:41:35Z</time>
      </trkpt>
      <trkpt lat="48.88949" lon="2.35822">
        <ele>54.3</ele>
        <time>2014-06-16T19:41:38Z</time>
      </trkpt>
      <trkpt lat="48.88938" lon="2.3582">
        <ele>54.4</ele>
        <time>2014-06-16T19:41:41Z</time>
      </trkpt>
      <trkpt lat="48.88928" lon="2.35818">
        <ele>54.5</ele>
        <time>2014-06-16T19:41:45Z</time>
      </trkpt>
      <trkpt lat="48.88921" lon="2.35809">
        <ele>54.7</ele>
        <time>2014-06-16T19:41:50Z</time>
      </trkpt>
      <trkpt lat="48.88915" lon="2.35799">
        <ele>55.3</ele>
        <time>2014-06-16T19:41:54Z</time>
      </trkpt>
      <trkpt lat="48.88908" lon="2.35785">
        <ele>55.1</ele>
        <time>2014-06-16T19:41:58Z</time>
      </trkpt>
      <trkpt lat="48.88903" lon="2.3577">
        <ele>54.8</ele>
        <time>2014-06-16T19:42:01Z</time>
      </trkpt>
      <trkpt lat="48.88897" lon="2.35754">
        <ele>54.5</ele>
        <time>2014-06-16T19:42:04Z</time>
      </trkpt>
      <trkpt lat="48.88893" lon="2.35734">
        <ele>54.7</ele>
        <time>2014-06-16T19:42:07Z</time>
      </trkpt>
      <trkpt lat="48.8889" lon="2.3572">
        <ele>54.6</ele>
        <time>2014-06-16T19:42:09Z</time>
      </trkpt>
      <trkpt lat="48.88888" lon="2.35706">
        <ele>55.3</ele>
        <time>2014-06-16T19:42:11Z</time>
      </trkpt>
      <trkpt lat="48.88885" lon="2.35689">
        <ele>54.9</ele>
        <time>2014-06-16T19:42:14Z</time>
      </trkpt>
      <trkpt lat="48.88882" lon="2.35675">
        <ele>55.1</ele>
        <time>2014-06-16T19:42:17Z</time>
      </trkpt>
      <trkpt lat="48.88879" lon="2.35659">
        <ele>55.7</ele>
        <time>2014-06-16T19:42:21Z</time>
      </trkpt>
      <trkpt lat="48.88876" lon="2.35643">
        <ele>55.6</ele>
        <time>2014-06-16T19:42:26Z</time>
      </trkpt>
      <trkpt lat="48.88874" lon="2.35627">
        <ele>56.1</ele>
        <time>2014-06-16T19:42:30Z</time>
      </trkpt>
      <trkpt lat="48.88874" lon="2.35612">
        <ele>56</ele>
        <time>2014-06-16T19:42:33Z</time>
      </trkpt>
      <trkpt lat="48.88872" lon="2.35592">
        <ele>56.5</ele>
        <time>2014-06-16T19:42:36Z</time>
      </trkpt>
      <trkpt lat="48.88869" lon="2.35578">
        <ele>56.9</ele>
        <time>2014-06-16T19:42:38Z</time>
      </trkpt>
      <trkpt lat="48.88868" lon="2.35559">
        <ele>56.3</ele>
        <time>2014-06-16T19:42:41Z</time>
      </trkpt>
      <trkpt lat="48.88868" lon="2.35541">
        <ele>56.3</ele>
        <time>2014-06-16T19:42:44Z</time>
      </trkpt>
      <trkpt lat="48.88866" lon="2.35522">
        <ele>56.6</ele>
        <time>2014-06-16T19:42:47Z</time>
      </trkpt>
      <trkpt lat="48.88864" lon="2.35507">
        <ele>56.8</ele>
        <time>2014-06-16T19:42:49Z</time>
      </trkpt>
      <trkpt lat="48.88862" lon="2.35494">
        <ele>57</ele>
        <time>2014-06-16T19:42:51Z</time>
      </trkpt>
      <trkpt lat="48.88857" lon="2.35475">
        <ele>57.6</ele>
        <time>2014-06-16T19:42:54Z</time>
      </trkpt>
      <trkpt lat="48.88854" lon="2.35455">
        <ele>58</ele>
        <time>2014-06-16T19:42:57Z</time>
      </trkpt>
      <trkpt lat="48.88854" lon="2.35441">
        <ele>58.3</ele>
        <time>2014-06-16T19:42:59Z</time>
      </trkpt>
      <trkpt lat="48.88852" lon="2.35427">
        <ele>58.3</ele>
        <time>2014-06-16T19:43:01Z</time>
      </trkpt>
      <trkpt lat="48.88849" lon="2.35414">
        <ele>58.3</ele>
        <time>2014-06-16T19:43:03Z</time>
      </trkpt>
      <trkpt lat="48.88846" lon="2.35395">
        <ele>58.4</ele>
        <time>2014-06-16T19:43:06Z</time>
      </trkpt>
      <trkpt lat="48.88846" lon="2.3538">
        <ele>59.2</ele>
        <time>2014-06-16T19:43:08Z</time>
      </trkpt>
      <trkpt lat="48.88845" lon="2.35366">
        <ele>59.6</ele>
        <time>2014-06-16T19:43:10Z</time>
      </trkpt>
      <trkpt lat="48.88844" lon="2.35351">
        <ele>60</ele>
        <time>2014-06-16T19:43:12Z</time>
      </trkpt>
      <trkpt lat="48.88844" lon="2.35336">
        <ele>59.8</ele>
        <time>2014-06-16T19:43:14Z</time>
      </trkpt>
      <trkpt lat="48.88842" lon="2.3532">
        <ele>59.2</ele>
        <time>2014-06-16T19:43:16Z</time>
      </trkpt>
      <trkpt lat="48.8884" lon="2.35304">
        <ele>59.6</ele>
        <time>2014-06-16T19:43:18Z</time>
      </trkpt>
      <trkpt lat="48.88838" lon="2.35289">
        <ele>60</ele>
        <time>2014-06-16T19:43:20Z</time>
      </trkpt>
      <trkpt lat="48.88837" lon="2.35274">
        <ele>59.9</ele>
        <time>2014-06-16T19:43:22Z</time>
      </trkpt>
      <trkpt lat="48.88836" lon="2.3526">
        <ele>59.9</ele>
        <time>2014-06-16T19:43:24Z</time>
      </trkpt>
      <trkpt lat="48.88835" lon="2.3524">
        <ele>60.4</ele>
        <time>2014-06-16T19:43:27Z</time>
      </trkpt>
      <trkpt lat="48.88834" lon="2.35222">
        <ele>60.4</ele>
        <time>2014-06-16T19:43:30Z</time>
      </trkpt>
      <trkpt lat="48.88833" lon="2.35204">
        <ele>60.9</ele>
        <time>2014-06-16T19:43:33Z</time>
      </trkpt>
      <trkpt lat="48.88831" lon="2.35186">
        <ele>60.9</ele>
        <time>2014-06-16T19:43:36Z</time>
      </trkpt>
      <trkpt lat="48.88829" lon="2.3517">
        <ele>61.1</ele>
        <time>2014-06-16T19:43:39Z</time>
      </trkpt>
      <trkpt lat="48.88828" lon="2.35149">
        <ele>60.9</ele>
        <time>2014-06-16T19:43:42Z</time>
      </trkpt>
      <trkpt lat="48.88826" lon="2.35135">
        <ele>61.6</ele>
        <time>2014-06-16T19:43:44Z</time>
      </trkpt>
      <trkpt lat="48.88826" lon="2.35121">
        <ele>62.1</ele>
        <time>2014-06-16T19:43:46Z</time>
      </trkpt>
      <trkpt lat="48.88826" lon="2.35106">
        <ele>62.1</ele>
        <time>2014-06-16T19:43:49Z</time>
      </trkpt>
      <trkpt lat="48.88829" lon="2.35093">
        <ele>62.8</ele>
        <time>2014-06-16T19:43:52Z</time>
      </trkpt>
      <trkpt lat="48.88832" lon="2.35079">
        <ele>63.3</ele>
        <time>2014-06-16T19:43:55Z</time>
      </trkpt>
      <trkpt lat="48.88834" lon="2.35063">
        <ele>62.9</ele>
        <time>2014-06-16T19:43:58Z</time>
      </trkpt>
      <trkpt lat="48.88836" lon="2.35046">
        <ele>63.2</ele>
        <time>2014-06-16T19:44:01Z</time>
      </trkpt>
      <trkpt lat="48.88837" lon="2.3503">
        <ele>62.5</ele>
        <time>2014-06-16T19:44:04Z</time>
      </trkpt>
      <trkpt lat="48.88837" lon="2.35014">
        <ele>63.1</ele>
        <time>2014-06-16T19:44:08Z</time>
      </trkpt>
      <trkpt lat="48.88838" lon="2.35">
        <ele>63.5</ele>
        <time>2014-06-16T19:44:13Z</time>
      </trkpt>
      <trkpt lat="48.88836" lon="2.34986">
        <ele>62.6</ele>
        <time>2014-06-16T19:44:21Z</time>
      </trkpt>
      <trkpt lat="48.88833" lon="2.34972">
        <ele>62.9</ele>
        <time>2014-06-16T19:44:34Z</time>
      </trkpt>
      <trkpt lat="48.8883" lon="2.34959">
        <ele>64.2</ele>
        <time>2014-06-16T19:44:46Z</time>
      </trkpt>
      <trkpt lat="48.88829" lon="2.34945">
        <ele>62.8</ele>
        <time>2014-06-16T19:44:50Z</time>
      </trkpt>
      <trkpt lat="48.88827" lon="2.3493">
        <ele>62.9</ele>
        <time>2014-06-16T19:44:53Z</time>
      </trkpt>
      <trkpt lat="48.88824" lon="2.34914">
        <ele>64.3</ele>
        <time>2014-06-16T19:44:56Z</time>
      </trkpt>
      <trkpt lat="48.88826" lon="2.34897">
        <ele>64.8</ele>
        <time>2014-06-16T19:45:00Z</time>
      </trkpt>
      <trkpt lat="48.88829" lon="2.34884">
        <ele>65.3</ele>
        <time>2014-06-16T19:45:04Z</time>
      </trkpt>
      <trkpt lat="48.88836" lon="2.34874">
        <ele>66.1</ele>
        <time>2014-06-16T19:45:08Z</time>
      </trkpt>
      <trkpt lat="48.88842" lon="2.34861">
        <ele>67.5</ele>
        <time>2014-06-16T19:45:13Z</time>
      </trkpt>
      <trkpt lat="48.88845" lon="2.34846">
        <ele>68.7</ele>
        <time>2014-06-16T19:45:19Z</time>
      </trkpt>
      <trkpt lat="48.88843" lon="2.34832">
        <ele>69.4</ele>
        <time>2014-06-16T19:45:26Z</time>
      </trkpt>
      <trkpt lat="48.8884" lon="2.34819">
        <ele>70.4</ele>
        <time>2014-06-16T19:45:35Z</time>
      </trkpt>
      <trkpt lat="48.88844" lon="2.34806">
        <ele>68.5</ele>
        <time>2014-06-16T19:45:43Z</time>
      </trkpt>
      <trkpt lat="48.88846" lon="2.34792">
        <ele>68.8</ele>
        <time>2014-06-16T19:45:48Z</time>
      </trkpt>
      <trkpt lat="48.8885" lon="2.34779">
        <ele>69</ele>
        <time>2014-06-16T19:45:51Z</time>
      </trkpt>
      <trkpt lat="48.88854" lon="2.34761">
        <ele>69.6</ele>
        <time>2014-06-16T19:45:55Z</time>
      </trkpt>
      <trkpt lat="48.88856" lon="2.34743">
        <ele>70.1</ele>
        <time>2014-06-16T19:45:58Z</time>
      </trkpt>
      <trkpt lat="48.88857" lon="2.3473">
        <ele>70.7</ele>
        <time>2014-06-16T19:46:00Z</time>
      </trkpt>
      <trkpt lat="48.88857" lon="2.34714">
        <ele>71</ele>
        <time>2014-06-16T19:46:02Z</time>
      </trkpt>
      <trkpt lat="48.88856" lon="2.347">
        <ele>70.6</ele>
        <time>2014-06-16T19:46:04Z</time>
      </trkpt>
      <trkpt lat="48.8886" lon="2.34685">
        <ele>71.5</ele>
        <time>2014-06-16T19:46:07Z</time>
      </trkpt>
      <trkpt lat="48.88865" lon="2.34669">
        <ele>72.1</ele>
        <time>2014-06-16T19:46:11Z</time>
      </trkpt>
      <trkpt lat="48.8887" lon="2.34653">
        <ele>71.7</ele>
        <time>2014-06-16T19:46:15Z</time>
      </trkpt>
      <trkpt lat="48.88872" lon="2.3464">
        <ele>72.1</ele>
        <time>2014-06-16T19:46:18Z</time>
      </trkpt>
      <trkpt lat="48.88879" lon="2.34626">
        <ele>71.8</ele>
        <time>2014-06-16T19:46:22Z</time>
      </trkpt>
      <trkpt lat="48.88887" lon="2.34617">
        <ele>72.9</ele>
        <time>2014-06-16T19:46:25Z</time>
      </trkpt>
      <trkpt lat="48.88893" lon="2.34604">
        <ele>73.1</ele>
        <time>2014-06-16T19:46:28Z</time>
      </trkpt>
      <trkpt lat="48.889" lon="2.34592">
        <ele>72.7</ele>
        <time>2014-06-16T19:46:31Z</time>
      </trkpt>
      <trkpt lat="48.88909" lon="2.3458">
        <ele>72.3</ele>
        <time>2014-06-16T19:46:34Z</time>
      </trkpt>
      <trkpt lat="48.8892" lon="2.3457">
        <ele>72.1</ele>
        <time>2014-06-16T19:46:37Z</time>
      </trkpt>
      <trkpt lat="48.88925" lon="2.34557">
        <ele>72.9</ele>
        <time>2014-06-16T19:46:40Z</time>
      </trkpt>
      <trkpt lat="48.8893" lon="2.34543">
        <ele>73.6</ele>
        <time>2014-06-16T19:46:43Z</time>
      </trkpt>
      <trkpt lat="48.88931" lon="2.34524">
        <ele>73.6</ele>
        <time>2014-06-16T19:46:46Z</time>
      </trkpt>
      <trkpt lat="48.88929" lon="2.34506">
        <ele>74</ele>
        <time>2014-06-16T19:46:49Z</time>
      </trkpt>
      <trkpt lat="48.8893" lon="2.34489">
        <ele>74</ele>
        <time>2014-06-16T19:46:52Z</time>
      </trkpt>
      <trkpt lat="48.88934" lon="2.34473">
        <ele>74.4</ele>
        <time>2014-06-16T19:46:56Z</time>
      </trkpt>
      <trkpt lat="48.88937" lon="2.34458">
        <ele>75.1</ele>
        <time>2014-06-16T19:47:00Z</time>
      </trkpt>
      <trkpt lat="48.8894" lon="2.34445">
        <ele>75.7</ele>
        <time>2014-06-16T19:47:03Z</time>
      </trkpt>
      <trkpt lat="48.88944" lon="2.34432">
        <ele>75.1</ele>
        <time>2014-06-16T19:47:06Z</time>
      </trkpt>
      <trkpt lat="48.88947" lon="2.34418">
        <ele>75.8</ele>
        <time>2014-06-16T19:47:09Z</time>
      </trkpt>
      <trkpt lat="48.88949" lon="2.34403">
        <ele>76.3</ele>
        <time>2014-06-16T19:47:12Z</time>
      </trkpt>
      <trkpt lat="48.88953" lon="2.3439">
        <ele>76.8</ele>
        <time>2014-06-16T19:47:15Z</time>
      </trkpt>
      <trkpt lat="48.88957" lon="2.34377">
        <ele>76.8</ele>
        <time>2014-06-16T19:47:18Z</time>
      </trkpt>
      <trkpt lat="48.88961" lon="2.34361">
        <ele>76.1</ele>
        <time>2014-06-16T19:47:21Z</time>
      </trkpt>
      <trkpt lat="48.88964" lon="2.34347">
        <ele>76</ele>
        <time>2014-06-16T19:47:24Z</time>
      </trkpt>
      <trkpt lat="48.88969" lon="2.34334">
        <ele>76.8</ele>
        <time>2014-06-16T19:47:28Z</time>
      </trkpt>
      <trkpt lat="48.88975" lon="2.34322">
        <ele>77.2</ele>
        <time>2014-06-16T19:47:33Z</time>
      </trkpt>
      <trkpt lat="48.88982" lon="2.34309">
        <ele>77.6</ele>
        <time>2014-06-16T19:47:37Z</time>
      </trkpt>
      <trkpt lat="48.88983" lon="2.34294">
        <ele>77.4</ele>
        <time>2014-06-16T19:47:40Z</time>
      </trkpt>
      <trkpt lat="48.88981" lon="2.34278">
        <ele>77.5</ele>
        <time>2014-06-16T19:47:43Z</time>
      </trkpt>
      <trkpt lat="48.88982" lon="2.34262">
        <ele>78</ele>
        <time>2014-06-16T19:47:46Z</time>
      </trkpt>
      <trkpt lat="48.88982" lon="2.34248">
        <ele>78.3</ele>
        <time>2014-06-16T19:47:49Z</time>
      </trkpt>
      <trkpt lat="48.88982" lon="2.34232">
        <ele>78.5</ele>
        <time>2014-06-16T19:47:52Z</time>
      </trkpt>
      <trkpt lat="48.88981" lon="2.34218">
        <ele>78</ele>
        <time>2014-06-16T19:47:55Z</time>
      </trkpt>
      <trkpt lat="48.88979" lon="2.34203">
        <ele>78</ele>
        <time>2014-06-16T19:47:59Z</time>
      </trkpt>
      <trkpt lat="48.88978" lon="2.34189">
        <ele>79</ele>
        <time>2014-06-16T19:48:03Z</time>
      </trkpt>
      <trkpt lat="48.88979" lon="2.34171">
        <ele>78.7</ele>
        <time>2014-06-16T19:48:07Z</time>
      </trkpt>
      <trkpt lat="48.8898" lon="2.34154">
        <ele>78.3</ele>
        <time>2014-06-16T19:48:10Z</time>
      </trkpt>
      <trkpt lat="48.8898" lon="2.3414">
        <ele>79.3</ele>
        <time>2014-06-16T19:48:13Z</time>
      </trkpt>
      <trkpt lat="48.8898" lon="2.34122">
        <ele>79.5</ele>
        <time>2014-06-16T19:48:17Z</time>
      </trkpt>
      <trkpt lat="48.8898" lon="2.34106">
        <ele>80.4</ele>
        <time>2014-06-16T19:48:20Z</time>
      </trkpt>
      <trkpt lat="48.88979" lon="2.34091">
        <ele>81.6</ele>
        <time>2014-06-16T19:48:23Z</time>
      </trkpt>
      <trkpt lat="48.88976" lon="2.34073">
        <ele>81.2</ele>
        <time>2014-06-16T19:48:26Z</time>
      </trkpt>
      <trkpt lat="48.88975" lon="2.34059">
        <ele>81.1</ele>
        <time>2014-06-16T19:48:28Z</time>
      </trkpt>
      <trkpt lat="48.88973" lon="2.34045">
        <ele>81.1</ele>
        <time>2014-06-16T19:48:30Z</time>
      </trkpt>
      <trkpt lat="48.88971" lon="2.34029">
        <ele>80.9</ele>
        <time>2014-06-16T19:48:32Z</time>
      </trkpt>
      <trkpt lat="48.88971" lon="2.34013">
        <ele>80.9</ele>
        <time>2014-06-16T19:48:34Z</time>
      </trkpt>
      <trkpt lat="48.88971" lon="2.33993">
        <ele>81.8</ele>
        <time>2014-06-16T19:48:37Z</time>
      </trkpt>
      <trkpt lat="48.88972" lon="2.33976">
        <ele>81.9</ele>
        <time>2014-06-16T19:48:40Z</time>
      </trkpt>
      <trkpt lat="48.8897" lon="2.33959">
        <ele>82.4</ele>
        <time>2014-06-16T19:48:43Z</time>
      </trkpt>
      <trkpt lat="48.88968" lon="2.33941">
        <ele>82.8</ele>
        <time>2014-06-16T19:48:47Z</time>
      </trkpt>
      <trkpt lat="48.88965" lon="2.33927">
        <ele>83.4</ele>
        <time>2014-06-16T19:48:50Z</time>
      </trkpt>
      <trkpt lat="48.88962" lon="2.33911">
        <ele>83.6</ele>
        <time>2014-06-16T19:48:53Z</time>
      </trkpt>
      <trkpt lat="48.8896" lon="2.33895">
        <ele>84.8</ele>
        <time>2014-06-16T19:48:56Z</time>
      </trkpt>
      <trkpt lat="48.8896" lon="2.33876">
        <ele>84.6</ele>
        <time>2014-06-16T19:48:59Z</time>
      </trkpt>
      <trkpt lat="48.88958" lon="2.33857">
        <ele>83.9</ele>
        <time>2014-06-16T19:49:02Z</time>
      </trkpt>
      <trkpt lat="48.88957" lon="2.33839">
        <ele>84.5</ele>
        <time>2014-06-16T19:49:05Z</time>
      </trkpt>
      <trkpt lat="48.88955" lon="2.33822">
        <ele>84.4</ele>
        <time>2014-06-16T19:49:08Z</time>
      </trkpt>
      <trkpt lat="48.88953" lon="2.33804">
        <ele>84.8</ele>
        <time>2014-06-16T19:49:11Z</time>
      </trkpt>
      <trkpt lat="48.88951" lon="2.33788">
        <ele>85.6</ele>
        <time>2014-06-16T19:49:14Z</time>
      </trkpt>
      <trkpt lat="48.8895" lon="2.33773">
        <ele>86.6</ele>
        <time>2014-06-16T19:49:17Z</time>
      </trkpt>
      <trkpt lat="48.8895" lon="2.33758">
        <ele>87.2</ele>
        <time>2014-06-16T19:49:20Z</time>
      </trkpt>
      <trkpt lat="48.88949" lon="2.33742">
        <ele>87.6</ele>
        <time>2014-06-16T19:49:24Z</time>
      </trkpt>
      <trkpt lat="48.88948" lon="2.33728">
        <ele>87.8</ele>
        <time>2014-06-16T19:49:29Z</time>
      </trkpt>
      <trkpt lat="48.88943" lon="2.33716">
        <ele>87.5</ele>
        <time>2014-06-16T19:49:37Z</time>
      </trkpt>
      <trkpt lat="48.88939" lon="2.33703">
        <ele>89</ele>
        <time>2014-06-16T19:49:46Z</time>
      </trkpt>
      <trkpt lat="48.88934" lon="2.3369">
        <ele>90.4</ele>
        <time>2014-06-16T19:49:53Z</time>
      </trkpt>
      <trkpt lat="48.8893" lon="2.33677">
        <ele>90.8</ele>
        <time>2014-06-16T19:49:58Z</time>
      </trkpt>
      <trkpt lat="48.88926" lon="2.33661">
        <ele>91.5</ele>
        <time>2014-06-16T19:50:04Z</time>
      </trkpt>
      <trkpt lat="48.88919" lon="2.33649">
        <ele>91.3</ele>
        <time>2014-06-16T19:50:09Z</time>
      </trkpt>
      <trkpt lat="48.88915" lon="2.33634">
        <ele>92</ele>
        <time>2014-06-16T19:50:13Z</time>
      </trkpt>
      <trkpt lat="48.88908" lon="2.33624">
        <ele>92.8</ele>
        <time>2014-06-16T19:50:18Z</time>
      </trkpt>
      <trkpt lat="48.88898" lon="2.33619">
        <ele>93</ele>
        <time>2014-06-16T19:50:24Z</time>
      </trkpt>
      <trkpt lat="48.88889" lon="2.33612">
        <ele>94</ele>
        <time>2014-06-16T19:50:29Z</time>
      </trkpt>
      <trkpt lat="48.88881" lon="2.33604">
        <ele>94.7</ele>
        <time>2014-06-16T19:50:34Z</time>
      </trkpt>
      <trkpt lat="48.88871" lon="2.33595">
        <ele>95.4</ele>
        <time>2014-06-16T19:50:38Z</time>
      </trkpt>
      <trkpt lat="48.88864" lon="2.33584">
        <ele>96.2</ele>
        <time>2014-06-16T19:50:43Z</time>
      </trkpt>
      <trkpt lat="48.88854" lon="2.3358">
        <ele>96.3</ele>
        <time>2014-06-16T19:50:51Z</time>
      </trkpt>
      <trkpt lat="48.88845" lon="2.33578">
        <ele>97.9</ele>
        <time>2014-06-16T19:50:57Z</time>
      </trkpt>
      <trkpt lat="48.88835" lon="2.3358">
        <ele>99.1</ele>
        <time>2014-06-16T19:51:05Z</time>
      </trkpt>
      <trkpt lat="48.88826" lon="2.33587">
        <ele>98.3</ele>
        <time>2014-06-16T19:51:13Z</time>
      </trkpt>
      <trkpt lat="48.88819" lon="2.33598">
        <ele>99.8</ele>
        <time>2014-06-16T19:51:20Z</time>
      </trkpt>
      <trkpt lat="48.88815" lon="2.33612">
        <ele>99.5</ele>
        <time>2014-06-16T19:51:25Z</time>
      </trkpt>
      <trkpt lat="48.88811" lon="2.33625">
        <ele>99.9</ele>
        <time>2014-06-16T19:51:30Z</time>
      </trkpt>
      <trkpt lat="48.88806" lon="2.33639">
        <ele>99.9</ele>
        <time>2014-06-16T19:51:36Z</time>
      </trkpt>
      <trkpt lat="48.88802" lon="2.33652">
        <ele>102.1</ele>
        <time>2014-06-16T19:51:41Z</time>
      </trkpt>
      <trkpt lat="48.88797" lon="2.33665">
        <ele>101.7</ele>
        <time>2014-06-16T19:51:46Z</time>
      </trkpt>
      <trkpt lat="48.8879" lon="2.33676">
        <ele>102</ele>
        <time>2014-06-16T19:51:51Z</time>
      </trkpt>
      <trkpt lat="48.88786" lon="2.3369">
        <ele>103.3</ele>
        <time>2014-06-16T19:51:56Z</time>
      </trkpt>
      <trkpt lat="48.88778" lon="2.33701">
        <ele>103.5</ele>
        <time>2014-06-16T19:52:01Z</time>
      </trkpt>
      <trkpt lat="48.88774" lon="2.33714">
        <ele>104</ele>
        <time>2014-06-16T19:52:09Z</time>
      </trkpt>
      <trkpt lat="48.88773" lon="2.33728">
        <ele>103.9</ele>
        <time>2014-06-16T19:52:18Z</time>
      </trkpt>
      <trkpt lat="48.88772" lon="2.33742">
        <ele>103.1</ele>
        <time>2014-06-16T19:52:39Z</time>
      </trkpt>
      <trkpt lat="48.88764" lon="2.33751">
        <ele>103.3</ele>
        <time>2014-06-16T19:53:55Z</time>
      </trkpt>
      <trkpt lat="48.88756" lon="2.33747">
        <ele>103.3</ele>
        <time>2014-06-16T19:54:09Z</time>
      </trkpt>
      <trkpt lat="48.88746" lon="2.33745">
        <ele>102.3</ele>
        <time>2014-06-16T19:54:18Z</time>
      </trkpt>
      <trkpt lat="48.88737" lon="2.33741">
        <ele>100.8</ele>
        <time>2014-06-16T19:54:34Z</time>
      </trkpt>
      <trkpt lat="48.88731" lon="2.33731">
        <ele>100.1</ele>
        <time>2014-06-16T19:54:54Z</time>
      </trkpt>
      <trkpt lat="48.88728" lon="2.33717">
        <ele>99.7</ele>
        <time>2014-06-16T19:55:15Z</time>
      </trkpt>
      <trkpt lat="48.88727" lon="2.33703">
        <ele>97.5</ele>
        <time>2014-06-16T19:55:26Z</time>
      </trkpt>
      <trkpt lat="48.88729" lon="2.33689">
        <ele>97.4</ele>
        <time>2014-06-16T19:55:33Z</time>
      </trkpt>
      <trkpt lat="48.88731" lon="2.33676">
        <ele>95.8</ele>
        <time>2014-06-16T19:55:40Z</time>
      </trkpt>
      <trkpt lat="48.88733" lon="2.33662">
        <ele>94.9</ele>
        <time>2014-06-16T19:55:47Z</time>
      </trkpt>
      <trkpt lat="48.88733" lon="2.33648">
        <ele>94.8</ele>
        <time>2014-06-16T19:55:58Z</time>
      </trkpt>
      <trkpt lat="48.88737" lon="2.33634">
        <ele>92.7</ele>
        <time>2014-06-16T19:56:07Z</time>
      </trkpt>
      <trkpt lat="48.8874" lon="2.33621">
        <ele>91.1</ele>
        <time>2014-06-16T19:56:16Z</time>
      </trkpt>
      <trkpt lat="48.88742" lon="2.33605">
        <ele>90</ele>
        <time>2014-06-16T19:56:22Z</time>
      </trkpt>
      <trkpt lat="48.88746" lon="2.33592">
        <ele>90</ele>
        <time>2014-06-16T19:56:26Z</time>
      </trkpt>
      <trkpt lat="48.8875" lon="2.33578">
        <ele>89.3</ele>
        <time>2014-06-16T19:56:32Z</time>
      </trkpt>
      <trkpt lat="48.8875" lon="2.33563">
        <ele>88.7</ele>
        <time>2014-06-16T19:56:42Z</time>
      </trkpt>
      <trkpt lat="48.88753" lon="2.33548">
        <ele>87.6</ele>
        <time>2014-06-16T19:56:48Z</time>
      </trkpt>
      <trkpt lat="48.88756" lon="2.33534">
        <ele>86.8</ele>
        <time>2014-06-16T19:56:57Z</time>
      </trkpt>
      <trkpt lat="48.88759" lon="2.3352">
        <ele>85.7</ele>
        <time>2014-06-16T19:57:05Z</time>
      </trkpt>
      <trkpt lat="48.88761" lon="2.33505">
        <ele>85.1</ele>
        <time>2014-06-16T19:57:12Z</time>
      </trkpt>
      <trkpt lat="48.88763" lon="2.33491">
        <ele>83.3</ele>
        <time>2014-06-16T19:57:20Z</time>
      </trkpt>
      <trkpt lat="48.88762" lon="2.33476">
        <ele>82.1</ele>
        <time>2014-06-16T19:57:31Z</time>
      </trkpt>
      <trkpt lat="48.88759" lon="2.33463">
        <ele>80.2</ele>
        <time>2014-06-16T19:57:40Z</time>
      </trkpt>
      <trkpt lat="48.88753" lon="2.33452">
        <ele>79.5</ele>
        <time>2014-06-16T19:57:46Z</time>
      </trkpt>
      <trkpt lat="48.88746" lon="2.33443">
        <ele>78.6</ele>
        <time>2014-06-16T19:58:07Z</time>
      </trkpt>
      <trkpt lat="48.88738" lon="2.33436">
        <ele>76.7</ele>
        <time>2014-06-16T19:58:18Z</time>
      </trkpt>
      <trkpt lat="48.8873" lon="2.33429">
        <ele>75.7</ele>
        <time>2014-06-16T19:58:30Z</time>
      </trkpt>
      <trkpt lat="48.88721" lon="2.33426">
        <ele>76.6</ele>
        <time>2014-06-16T19:58:51Z</time>
      </trkpt>
      <trkpt lat="48.88713" lon="2.33419">
        <ele>74.5</ele>
        <time>2014-06-16T19:59:16Z</time>
      </trkpt>
      <trkpt lat="48.88716" lon="2.33406">
        <ele>74.3</ele>
        <time>2014-06-16T19:59:29Z</time>
      </trkpt>
      <trkpt lat="48.88706" lon="2.33401">
        <ele>71</ele>
        <time>2014-06-16T20:04:57Z</time>
      </trkpt>
      <trkpt lat="48.88696" lon="2.33399">
        <ele>70.3</ele>
        <time>2014-06-16T20:05:08Z</time>
      </trkpt>
      <trkpt lat="48.88686" lon="2.33398">
        <ele>69.7</ele>
        <time>2014-06-16T20:05:15Z</time>
      </trkpt>
      <trkpt lat="48.88676" lon="2.33398">
        <ele>68.1</ele>
        <time>2014-06-16T20:05:21Z</time>
      </trkpt>
      <trkpt lat="48.88667" lon="2.33394">
        <ele>68</ele>
        <time>2014-06-16T20:05:27Z</time>
      </trkpt>
      <trkpt lat="48.88658" lon="2.33392">
        <ele>67</ele>
        <time>2014-06-16T20:05:36Z</time>
      </trkpt>
      <trkpt lat="48.88649" lon="2.33398">
        <ele>65.7</ele>
        <time>2014-06-16T20:05:46Z</time>
      </trkpt>
      <trkpt lat="48.88639" lon="2.33406">
        <ele>64.3</ele>
        <time>2014-06-16T20:05:53Z</time>
      </trkpt>
      <trkpt lat="48.88631" lon="2.33415">
        <ele>63.8</ele>
        <time>2014-06-16T20:05:58Z</time>
      </trkpt>
      <trkpt lat="48.88624" lon="2.33425">
        <ele>63.2</ele>
        <time>2014-06-16T20:06:03Z</time>
      </trkpt>
      <trkpt lat="48.88616" lon="2.33433">
        <ele>63.5</ele>
        <time>2014-06-16T20:06:08Z</time>
      </trkpt>
      <trkpt lat="48.88608" lon="2.33447">
        <ele>62.7</ele>
        <time>2014-06-16T20:06:13Z</time>
      </trkpt>
      <trkpt lat="48.88602" lon="2.33461">
        <ele>62.9</ele>
        <time>2014-06-16T20:06:16Z</time>
      </trkpt>
      <trkpt lat="48.88597" lon="2.33475">
        <ele>63.5</ele>
        <time>2014-06-16T20:06:19Z</time>
      </trkpt>
      <trkpt lat="48.88589" lon="2.33484">
        <ele>63.3</ele>
        <time>2014-06-16T20:06:23Z</time>
      </trkpt>
      <trkpt lat="48.88582" lon="2.33497">
        <ele>63</ele>
        <time>2014-06-16T20:06:27Z</time>
      </trkpt>
      <trkpt lat="48.88576" lon="2.33513">
        <ele>64.1</ele>
        <time>2014-06-16T20:06:31Z</time>
      </trkpt>
      <trkpt lat="48.88573" lon="2.33527">
        <ele>64.6</ele>
        <time>2014-06-16T20:06:35Z</time>
      </trkpt>
      <trkpt lat="48.88568" lon="2.33541">
        <ele>64.2</ele>
        <time>2014-06-16T20:06:40Z</time>
      </trkpt>
      <trkpt lat="48.88564" lon="2.33555">
        <ele>65</ele>
        <time>2014-06-16T20:06:44Z</time>
      </trkpt>
      <trkpt lat="48.88561" lon="2.33568">
        <ele>65.3</ele>
        <time>2014-06-16T20:06:48Z</time>
      </trkpt>
      <trkpt lat="48.88557" lon="2.33581">
        <ele>65.9</ele>
        <time>2014-06-16T20:06:52Z</time>
      </trkpt>
      <trkpt lat="48.88554" lon="2.33597">
        <ele>66.2</ele>
        <time>2014-06-16T20:06:55Z</time>
      </trkpt>
      <trkpt lat="48.88548" lon="2.33611">
        <ele>66</ele>
        <time>2014-06-16T20:06:58Z</time>
      </trkpt>
      <trkpt lat="48.88542" lon="2.33622">
        <ele>66.4</ele>
        <time>2014-06-16T20:07:01Z</time>
      </trkpt>
      <trkpt lat="48.88537" lon="2.33637">
        <ele>66.6</ele>
        <time>2014-06-16T20:07:05Z</time>
      </trkpt>
      <trkpt lat="48.88533" lon="2.33649">
        <ele>66.9</ele>
        <time>2014-06-16T20:07:10Z</time>
      </trkpt>
      <trkpt lat="48.88528" lon="2.33665">
        <ele>67.3</ele>
        <time>2014-06-16T20:07:15Z</time>
      </trkpt>
      <trkpt lat="48.88522" lon="2.3368">
        <ele>67.4</ele>
        <time>2014-06-16T20:07:19Z</time>
      </trkpt>
      <trkpt lat="48.88516" lon="2.3369">
        <ele>67.9</ele>
        <time>2014-06-16T20:07:23Z</time>
      </trkpt>
      <trkpt lat="48.88512" lon="2.33703">
        <ele>67.3</ele>
        <time>2014-06-16T20:07:28Z</time>
      </trkpt>
      <trkpt lat="48.88508" lon="2.33716">
        <ele>67.7</ele>
        <time>2014-06-16T20:07:33Z</time>
      </trkpt>
      <trkpt lat="48.88502" lon="2.33729">
        <ele>67.3</ele>
        <time>2014-06-16T20:07:38Z</time>
      </trkpt>
      <trkpt lat="48.88496" lon="2.33743">
        <ele>67</ele>
        <time>2014-06-16T20:07:43Z</time>
      </trkpt>
      <trkpt lat="48.8849" lon="2.33752">
        <ele>66.5</ele>
        <time>2014-06-16T20:07:49Z</time>
      </trkpt>
      <trkpt lat="48.88483" lon="2.33763">
        <ele>65.6</ele>
        <time>2014-06-16T20:07:54Z</time>
      </trkpt>
      <trkpt lat="48.88475" lon="2.33771">
        <ele>65.4</ele>
        <time>2014-06-16T20:07:59Z</time>
      </trkpt>
      <trkpt lat="48.88468" lon="2.33782">
        <ele>64.3</ele>
        <time>2014-06-16T20:08:04Z</time>
      </trkpt>
      <trkpt lat="48.8846" lon="2.33788">
        <ele>63.9</ele>
        <time>2014-06-16T20:08:08Z</time>
      </trkpt>
      <trkpt lat="48.88452" lon="2.33799">
        <ele>63.3</ele>
        <time>2014-06-16T20:08:13Z</time>
      </trkpt>
      <trkpt lat="48.88446" lon="2.3381">
        <ele>63.2</ele>
        <time>2014-06-16T20:08:17Z</time>
      </trkpt>
      <trkpt lat="48.8844" lon="2.33824">
        <ele>63.5</ele>
        <time>2014-06-16T20:08:22Z</time>
      </trkpt>
      <trkpt lat="48.88433" lon="2.33837">
        <ele>62.9</ele>
        <time>2014-06-16T20:08:27Z</time>
      </trkpt>
      <trkpt lat="48.8843" lon="2.33852">
        <ele>61.3</ele>
        <time>2014-06-16T20:08:32Z</time>
      </trkpt>
      <trkpt lat="48.88424" lon="2.33864">
        <ele>60.8</ele>
        <time>2014-06-16T20:08:36Z</time>
      </trkpt>
      <trkpt lat="48.88417" lon="2.33879">
        <ele>60.7</ele>
        <time>2014-06-16T20:08:39Z</time>
      </trkpt>
      <trkpt lat="48.88411" lon="2.33891">
        <ele>59.9</ele>
        <time>2014-06-16T20:08:43Z</time>
      </trkpt>
      <trkpt lat="48.88404" lon="2.33904">
        <ele>59.4</ele>
        <time>2014-06-16T20:08:47Z</time>
      </trkpt>
      <trkpt lat="48.88399" lon="2.33916">
        <ele>59.3</ele>
        <time>2014-06-16T20:08:50Z</time>
      </trkpt>
      <trkpt lat="48.88394" lon="2.33928">
        <ele>57.9</ele>
        <time>2014-06-16T20:08:54Z</time>
      </trkpt>
      <trkpt lat="48.88389" lon="2.33941">
        <ele>58.8</ele>
        <time>2014-06-16T20:08:58Z</time>
      </trkpt>
      <trkpt lat="48.88385" lon="2.33954">
        <ele>59</ele>
        <time>2014-06-16T20:09:02Z</time>
      </trkpt>
      <trkpt lat="48.88381" lon="2.33971">
        <ele>58.8</ele>
        <time>2014-06-16T20:09:06Z</time>
      </trkpt>
      <trkpt lat="48.8838" lon="2.33987">
        <ele>58.3</ele>
        <time>2014-06-16T20:09:10Z</time>
      </trkpt>
      <trkpt lat="48.88378" lon="2.34004">
        <ele>59</ele>
        <time>2014-06-16T20:09:13Z</time>
      </trkpt>
      <trkpt lat="48.88375" lon="2.3402">
        <ele>59.3</ele>
        <time>2014-06-16T20:09:16Z</time>
      </trkpt>
      <trkpt lat="48.88373" lon="2.34036">
        <ele>59.5</ele>
        <time>2014-06-16T20:09:19Z</time>
      </trkpt>
      <trkpt lat="48.88372" lon="2.34052">
        <ele>59</ele>
        <time>2014-06-16T20:09:24Z</time>
      </trkpt>
      <trkpt lat="48.88368" lon="2.34066">
        <ele>59</ele>
        <time>2014-06-16T20:09:29Z</time>
      </trkpt>
      <trkpt lat="48.88364" lon="2.3408">
        <ele>58.2</ele>
        <time>2014-06-16T20:09:33Z</time>
      </trkpt>
      <trkpt lat="48.88358" lon="2.34093">
        <ele>57.8</ele>
        <time>2014-06-16T20:09:37Z</time>
      </trkpt>
      <trkpt lat="48.88354" lon="2.34106">
        <ele>58.1</ele>
        <time>2014-06-16T20:09:41Z</time>
      </trkpt>
      <trkpt lat="48.88353" lon="2.3412">
        <ele>58.6</ele>
        <time>2014-06-16T20:09:48Z</time>
      </trkpt>
      <trkpt lat="48.88351" lon="2.34134">
        <ele>59.2</ele>
        <time>2014-06-16T20:09:53Z</time>
      </trkpt>
      <trkpt lat="48.88349" lon="2.34148">
        <ele>58.7</ele>
        <time>2014-06-16T20:09:59Z</time>
      </trkpt>
      <trkpt lat="48.88346" lon="2.34163">
        <ele>58.4</ele>
        <time>2014-06-16T20:10:04Z</time>
      </trkpt>
      <trkpt lat="48.88346" lon="2.34178">
        <ele>58</ele>
        <time>2014-06-16T20:10:10Z</time>
      </trkpt>
      <trkpt lat="48.88347" lon="2.34192">
        <ele>57.4</ele>
        <time>2014-06-16T20:10:16Z</time>
      </trkpt>
      <trkpt lat="48.8835" lon="2.34207">
        <ele>57.7</ele>
        <time>2014-06-16T20:10:23Z</time>
      </trkpt>
      <trkpt lat="48.88353" lon="2.34222">
        <ele>57.6</ele>
        <time>2014-06-16T20:10:30Z</time>
      </trkpt>
      <trkpt lat="48.88356" lon="2.34236">
        <ele>56</ele>
        <time>2014-06-16T20:10:36Z</time>
      </trkpt>
      <trkpt lat="48.88359" lon="2.34252">
        <ele>56.5</ele>
        <time>2014-06-16T20:10:40Z</time>
      </trkpt>
      <trkpt lat="48.88361" lon="2.34268">
        <ele>56.4</ele>
        <time>2014-06-16T20:10:44Z</time>
      </trkpt>
      <trkpt lat="48.88362" lon="2.34285">
        <ele>56.1</ele>
        <time>2014-06-16T20:10:48Z</time>
      </trkpt>
      <trkpt lat="48.88366" lon="2.343">
        <ele>55.3</ele>
        <time>2014-06-16T20:10:52Z</time>
      </trkpt>
      <trkpt lat="48.88368" lon="2.34314">
        <ele>54.5</ele>
        <time>2014-06-16T20:10:56Z</time>
      </trkpt>
      <trkpt lat="48.8837" lon="2.34328">
        <ele>54</ele>
        <time>2014-06-16T20:11:00Z</time>
      </trkpt>
      <trkpt lat="48.88375" lon="2.34342">
        <ele>53.3</ele>
        <time>2014-06-16T20:11:05Z</time>
      </trkpt>
      <trkpt lat="48.88381" lon="2.34356">
        <ele>52.9</ele>
        <time>2014-06-16T20:11:10Z</time>
      </trkpt>
      <trkpt lat="48.88388" lon="2.34369">
        <ele>52.6</ele>
        <time>2014-06-16T20:11:15Z</time>
      </trkpt>
      <trkpt lat="48.88388" lon="2.34382">
        <ele>52.7</ele>
        <time>2014-06-16T20:11:18Z</time>
      </trkpt>
      <trkpt lat="48.88389" lon="2.34399">
        <ele>51.9</ele>
        <time>2014-06-16T20:11:22Z</time>
      </trkpt>
      <trkpt lat="48.88393" lon="2.34414">
        <ele>51.7</ele>
        <time>2014-06-16T20:11:26Z</time>
      </trkpt>
      <trkpt lat="48.88398" lon="2.34429">
        <ele>52.1</ele>
        <time>2014-06-16T20:11:30Z</time>
      </trkpt>
      <trkpt lat="48.88403" lon="2.34446">
        <ele>52.2</ele>
        <time>2014-06-16T20:11:34Z</time>
      </trkpt>
      <trkpt lat="48.88408" lon="2.34458">
        <ele>52.3</ele>
        <time>2014-06-16T20:11:38Z</time>
      </trkpt>
      <trkpt lat="48.88411" lon="2.34473">
        <ele>53.3</ele>
        <time>2014-06-16T20:11:42Z</time>
      </trkpt>
      <trkpt lat="48.88414" lon="2.34488">
        <ele>52.8</ele>
        <time>2014-06-16T20:11:46Z</time>
      </trkpt>
      <trkpt lat="48.88416" lon="2.34503">
        <ele>52.8</ele>
        <time>2014-06-16T20:11:50Z</time>
      </trkpt>
      <trkpt lat="48.88418" lon="2.34521">
        <ele>52.4</ele>
        <time>2014-06-16T20:11:54Z</time>
      </trkpt>
      <trkpt lat="48.88418" lon="2.34536">
        <ele>52</ele>
        <time>2014-06-16T20:11:57Z</time>
      </trkpt>
      <trkpt lat="48.88416" lon="2.34551">
        <ele>51.7</ele>
        <time>2014-06-16T20:12:01Z</time>
      </trkpt>
      <trkpt lat="48.88414" lon="2.34567">
        <ele>51.5</ele>
        <time>2014-06-16T20:12:06Z</time>
      </trkpt>
      <trkpt lat="48.88413" lon="2.34583">
        <ele>51.2</ele>
        <time>2014-06-16T20:12:11Z</time>
      </trkpt>
      <trkpt lat="48.88413" lon="2.34598">
        <ele>51.2</ele>
        <time>2014-06-16T20:12:16Z</time>
      </trkpt>
      <trkpt lat="48.88414" lon="2.34614">
        <ele>51.1</ele>
        <time>2014-06-16T20:12:22Z</time>
      </trkpt>
      <trkpt lat="48.88413" lon="2.34629">
        <ele>50.6</ele>
        <time>2014-06-16T20:12:28Z</time>
      </trkpt>
      <trkpt lat="48.8841" lon="2.34643">
        <ele>49.4</ele>
        <time>2014-06-16T20:12:33Z</time>
      </trkpt>
      <trkpt lat="48.88408" lon="2.34657">
        <ele>49.2</ele>
        <time>2014-06-16T20:12:39Z</time>
      </trkpt>
      <trkpt lat="48.88406" lon="2.3467">
        <ele>49.7</ele>
        <time>2014-06-16T20:12:46Z</time>
      </trkpt>
      <trkpt lat="48.88399" lon="2.34679">
        <ele>49.2</ele>
        <time>2014-06-16T20:12:51Z</time>
      </trkpt>
      <trkpt lat="48.88389" lon="2.34683">
        <ele>49</ele>
        <time>2014-06-16T20:12:55Z</time>
      </trkpt>
      <trkpt lat="48.88381" lon="2.34687">
        <ele>48.6</ele>
        <time>2014-06-16T20:12:59Z</time>
      </trkpt>
      <trkpt lat="48.8837" lon="2.34689">
        <ele>48.5</ele>
        <time>2014-06-16T20:13:05Z</time>
      </trkpt>
      <trkpt lat="48.8836" lon="2.3469">
        <ele>48.3</ele>
        <time>2014-06-16T20:13:11Z</time>
      </trkpt>
      <trkpt lat="48.8835" lon="2.34688">
        <ele>48.6</ele>
        <time>2014-06-16T20:13:16Z</time>
      </trkpt>
      <trkpt lat="48.8834" lon="2.34688">
        <ele>48.7</ele>
        <time>2014-06-16T20:13:20Z</time>
      </trkpt>
      <trkpt lat="48.88329" lon="2.34686">
        <ele>48.2</ele>
        <time>2014-06-16T20:13:25Z</time>
      </trkpt>
      <trkpt lat="48.88321" lon="2.3468">
        <ele>47.3</ele>
        <time>2014-06-16T20:13:31Z</time>
      </trkpt>
      <trkpt lat="48.88314" lon="2.34669">
        <ele>47.1</ele>
        <time>2014-06-16T20:13:34Z</time>
      </trkpt>
      <trkpt lat="48.88307" lon="2.34658">
        <ele>47.9</ele>
        <time>2014-06-16T20:13:37Z</time>
      </trkpt>
      <trkpt lat="48.88298" lon="2.34645">
        <ele>47.9</ele>
        <time>2014-06-16T20:13:41Z</time>
      </trkpt>
      <trkpt lat="48.88289" lon="2.34635">
        <ele>47.1</ele>
        <time>2014-06-16T20:13:45Z</time>
      </trkpt>
      <trkpt lat="48.88283" lon="2.34624">
        <ele>46.9</ele>
        <time>2014-06-16T20:13:48Z</time>
      </trkpt>
      <trkpt lat="48.88275" lon="2.34616">
        <ele>47.6</ele>
        <time>2014-06-16T20:13:51Z</time>
      </trkpt>
      <trkpt lat="48.88267" lon="2.34604">
        <ele>47.9</ele>
        <time>2014-06-16T20:13:54Z</time>
      </trkpt>
      <trkpt lat="48.88261" lon="2.34592">
        <ele>47.5</ele>
        <time>2014-06-16T20:14:01Z</time>
      </trkpt>
      <trkpt lat="48.88254" lon="2.34582">
        <ele>47.2</ele>
        <time>2014-06-16T20:14:04Z</time>
      </trkpt>
      <trkpt lat="48.88245" lon="2.34571">
        <ele>47.2</ele>
        <time>2014-06-16T20:14:07Z</time>
      </trkpt>
      <trkpt lat="48.88237" lon="2.34564">
        <ele>47</ele>
        <time>2014-06-16T20:14:10Z</time>
      </trkpt>
      <trkpt lat="48.88227" lon="2.34556">
        <ele>47</ele>
        <time>2014-06-16T20:14:14Z</time>
      </trkpt>
      <trkpt lat="48.88218" lon="2.34547">
        <ele>46.6</ele>
        <time>2014-06-16T20:14:18Z</time>
      </trkpt>
      <trkpt lat="48.8821" lon="2.34537">
        <ele>46.8</ele>
        <time>2014-06-16T20:14:22Z</time>
      </trkpt>
      <trkpt lat="48.882" lon="2.3453">
        <ele>46.8</ele>
        <time>2014-06-16T20:14:26Z</time>
      </trkpt>
      <trkpt lat="48.8819" lon="2.34524">
        <ele>46.6</ele>
        <time>2014-06-16T20:14:32Z</time>
      </trkpt>
      <trkpt lat="48.88183" lon="2.34515">
        <ele>46.5</ele>
        <time>2014-06-16T20:14:36Z</time>
      </trkpt>
      <trkpt lat="48.88175" lon="2.34506">
        <ele>45.8</ele>
        <time>2014-06-16T20:14:40Z</time>
      </trkpt>
      <trkpt lat="48.88168" lon="2.34498">
        <ele>46.4</ele>
        <time>2014-06-16T20:14:45Z</time>
      </trkpt>
      <trkpt lat="48.88159" lon="2.3449">
        <ele>46.6</ele>
        <time>2014-06-16T20:14:53Z</time>
      </trkpt>
      <trkpt lat="48.88149" lon="2.34489">
        <ele>46.7</ele>
        <time>2014-06-16T20:15:00Z</time>
      </trkpt>
      <trkpt lat="48.88139" lon="2.34488">
        <ele>46.9</ele>
        <time>2014-06-16T20:15:08Z</time>
      </trkpt>
      <trkpt lat="48.88128" lon="2.34491">
        <ele>45.7</ele>
        <time>2014-06-16T20:15:13Z</time>
      </trkpt>
      <trkpt lat="48.88117" lon="2.34493">
        <ele>46.1</ele>
        <time>2014-06-16T20:15:17Z</time>
      </trkpt>
      <trkpt lat="48.88108" lon="2.34496">
        <ele>45.4</ele>
        <time>2014-06-16T20:15:20Z</time>
      </trkpt>
      <trkpt lat="48.88096" lon="2.34498">
        <ele>43.9</ele>
        <time>2014-06-16T20:15:24Z</time>
      </trkpt>
      <trkpt lat="48.88085" lon="2.34504">
        <ele>43.7</ele>
        <time>2014-06-16T20:15:28Z</time>
      </trkpt>
      <trkpt lat="48.88075" lon="2.34509">
        <ele>42.7</ele>
        <time>2014-06-16T20:15:31Z</time>
      </trkpt>
      <trkpt lat="48.88063" lon="2.34512">
        <ele>42.1</ele>
        <time>2014-06-16T20:15:34Z</time>
      </trkpt>
      <trkpt lat="48.88053" lon="2.34521">
        <ele>41.6</ele>
        <time>2014-06-16T20:15:37Z</time>
      </trkpt>
      <trkpt lat="48.88043" lon="2.34524">
        <ele>40.6</ele>
        <time>2014-06-16T20:15:41Z</time>
      </trkpt>
      <trkpt lat="48.88032" lon="2.3453">
        <ele>40.2</ele>
        <time>2014-06-16T20:15:45Z</time>
      </trkpt>
      <trkpt lat="48.88023" lon="2.34534">
        <ele>40.2</ele>
        <time>2014-06-16T20:15:48Z</time>
      </trkpt>
      <trkpt lat="48.88012" lon="2.34537">
        <ele>39.6</ele>
        <time>2014-06-16T20:15:53Z</time>
      </trkpt>
      <trkpt lat="48.88002" lon="2.34539">
        <ele>38.5</ele>
        <time>2014-06-16T20:15:58Z</time>
      </trkpt>
      <trkpt lat="48.88001" lon="2.3452">
        <ele>37.3</ele>
        <time>2014-06-16T20:16:04Z</time>
      </trkpt>
      <trkpt lat="48.88" lon="2.34506">
        <ele>38.1</ele>
        <time>2014-06-16T20:16:08Z</time>
      </trkpt>
      <trkpt lat="48.87999" lon="2.34492">
        <ele>37.9</ele>
        <time>2014-06-16T20:16:11Z</time>
      </trkpt>
      <trkpt lat="48.88001" lon="2.34474">
        <ele>37.8</ele>
        <time>2014-06-16T20:16:15Z</time>
      </trkpt>
      <trkpt lat="48.88005" lon="2.34459">
        <ele>39.4</ele>
        <time>2014-06-16T20:16:18Z</time>
      </trkpt>
      <trkpt lat="48.88009" lon="2.34445">
        <ele>39.9</ele>
        <time>2014-06-16T20:16:21Z</time>
      </trkpt>
      <trkpt lat="48.88011" lon="2.3443">
        <ele>39.9</ele>
        <time>2014-06-16T20:16:24Z</time>
      </trkpt>
      <trkpt lat="48.88014" lon="2.34413">
        <ele>41.1</ele>
        <time>2014-06-16T20:16:28Z</time>
      </trkpt>
      <trkpt lat="48.88015" lon="2.34397">
        <ele>40.5</ele>
        <time>2014-06-16T20:16:32Z</time>
      </trkpt>
      <trkpt lat="48.88016" lon="2.34379">
        <ele>41</ele>
        <time>2014-06-16T20:16:36Z</time>
      </trkpt>
      <trkpt lat="48.88017" lon="2.34362">
        <ele>41</ele>
        <time>2014-06-16T20:16:40Z</time>
      </trkpt>
      <trkpt lat="48.88019" lon="2.34347">
        <ele>40.6</ele>
        <time>2014-06-16T20:16:43Z</time>
      </trkpt>
      <trkpt lat="48.88018" lon="2.34334">
        <ele>40</ele>
        <time>2014-06-16T20:16:46Z</time>
      </trkpt>
      <trkpt lat="48.88019" lon="2.34318">
        <ele>40.4</ele>
        <time>2014-06-16T20:16:49Z</time>
      </trkpt>
      <trkpt lat="48.88019" lon="2.34302">
        <ele>40.8</ele>
        <time>2014-06-16T20:16:52Z</time>
      </trkpt>
      <trkpt lat="48.88023" lon="2.34289">
        <ele>40.3</ele>
        <time>2014-06-16T20:16:55Z</time>
      </trkpt>
      <trkpt lat="48.88033" lon="2.34259">
        <ele>39</ele>
        <time>2014-06-16T20:17:01Z</time>
      </trkpt>
      <trkpt lat="48.88037" lon="2.34235">
        <ele>38</ele>
        <time>2014-06-16T20:17:05Z</time>
      </trkpt>
      <trkpt lat="48.88039" lon="2.34221">
        <ele>38.6</ele>
        <time>2014-06-16T20:17:08Z</time>
      </trkpt>
      <trkpt lat="48.88043" lon="2.34204">
        <ele>38.8</ele>
        <time>2014-06-16T20:17:11Z</time>
      </trkpt>
      <trkpt lat="48.88044" lon="2.34187">
        <ele>38.8</ele>
        <time>2014-06-16T20:17:14Z</time>
      </trkpt>
      <trkpt lat="48.88043" lon="2.34169">
        <ele>38.5</ele>
        <time>2014-06-16T20:17:17Z</time>
      </trkpt>
      <trkpt lat="48.88041" lon="2.34149">
        <ele>39</ele>
        <time>2014-06-16T20:17:20Z</time>
      </trkpt>
      <trkpt lat="48.88041" lon="2.34128">
        <ele>38.4</ele>
        <time>2014-06-16T20:17:23Z</time>
      </trkpt>
      <trkpt lat="48.88043" lon="2.34113">
        <ele>38.2</ele>
        <time>2014-06-16T20:17:25Z</time>
      </trkpt>
      <trkpt lat="48.88042" lon="2.34098">
        <ele>38.2</ele>
        <time>2014-06-16T20:17:27Z</time>
      </trkpt>
      <trkpt lat="48.88041" lon="2.34084">
        <ele>38.3</ele>
        <time>2014-06-16T20:17:29Z</time>
      </trkpt>
      <trkpt lat="48.88044" lon="2.34068">
        <ele>37.8</ele>
        <time>2014-06-16T20:17:32Z</time>
      </trkpt>
      <trkpt lat="48.88045" lon="2.34048">
        <ele>38.1</ele>
        <time>2014-06-16T20:17:35Z</time>
      </trkpt>
      <trkpt lat="48.88047" lon="2.34032">
        <ele>38.4</ele>
        <time>2014-06-16T20:17:37Z</time>
      </trkpt>
      <trkpt lat="48.88051" lon="2.34015">
        <ele>38.7</ele>
        <time>2014-06-16T20:17:39Z</time>
      </trkpt>
      <trkpt lat="48.88055" lon="2.33998">
        <ele>38.7</ele>
        <time>2014-06-16T20:17:41Z</time>
      </trkpt>
      <trkpt lat="48.88058" lon="2.33982">
        <ele>38.6</ele>
        <time>2014-06-16T20:17:43Z</time>
      </trkpt>
      <trkpt lat="48.8806" lon="2.33965">
        <ele>39</ele>
        <time>2014-06-16T20:17:45Z</time>
      </trkpt>
      <trkpt lat="48.88062" lon="2.33947">
        <ele>39</ele>
        <time>2014-06-16T20:17:47Z</time>
      </trkpt>
      <trkpt lat="48.88064" lon="2.33931">
        <ele>39.2</ele>
        <time>2014-06-16T20:17:49Z</time>
      </trkpt>
      <trkpt lat="48.88065" lon="2.33913">
        <ele>39.3</ele>
        <time>2014-06-16T20:17:51Z</time>
      </trkpt>
      <trkpt lat="48.88067" lon="2.33895">
        <ele>39.3</ele>
        <time>2014-06-16T20:17:53Z</time>
      </trkpt>
      <trkpt lat="48.88071" lon="2.33879">
        <ele>39.2</ele>
        <time>2014-06-16T20:17:55Z</time>
      </trkpt>
      <trkpt lat="48.88074" lon="2.33865">
        <ele>39.3</ele>
        <time>2014-06-16T20:17:57Z</time>
      </trkpt>
      <trkpt lat="48.88077" lon="2.3385">
        <ele>39.2</ele>
        <time>2014-06-16T20:18:00Z</time>
      </trkpt>
      <trkpt lat="48.88081" lon="2.33836">
        <ele>39.3</ele>
        <time>2014-06-16T20:18:04Z</time>
      </trkpt>
      <trkpt lat="48.88089" lon="2.33823">
        <ele>39.6</ele>
        <time>2014-06-16T20:18:08Z</time>
      </trkpt>
      <trkpt lat="48.88091" lon="2.33809">
        <ele>39.8</ele>
        <time>2014-06-16T20:18:10Z</time>
      </trkpt>
      <trkpt lat="48.88094" lon="2.33791">
        <ele>40.7</ele>
        <time>2014-06-16T20:18:13Z</time>
      </trkpt>
      <trkpt lat="48.88095" lon="2.33776">
        <ele>40.3</ele>
        <time>2014-06-16T20:18:16Z</time>
      </trkpt>
      <trkpt lat="48.88097" lon="2.33758">
        <ele>40.4</ele>
        <time>2014-06-16T20:18:20Z</time>
      </trkpt>
      <trkpt lat="48.88097" lon="2.33741">
        <ele>39.7</ele>
        <time>2014-06-16T20:18:23Z</time>
      </trkpt>
      <trkpt lat="48.88098" lon="2.33725">
        <ele>39.6</ele>
        <time>2014-06-16T20:18:25Z</time>
      </trkpt>
      <trkpt lat="48.88099" lon="2.33705">
        <ele>39.9</ele>
        <time>2014-06-16T20:18:28Z</time>
      </trkpt>
      <trkpt lat="48.88095" lon="2.33687">
        <ele>38.8</ele>
        <time>2014-06-16T20:18:30Z</time>
      </trkpt>
      <trkpt lat="48.88097" lon="2.33669">
        <ele>39.6</ele>
        <time>2014-06-16T20:18:32Z</time>
      </trkpt>
      <trkpt lat="48.88104" lon="2.33653">
        <ele>39.5</ele>
        <time>2014-06-16T20:18:34Z</time>
      </trkpt>
      <trkpt lat="48.88112" lon="2.33639">
        <ele>38.9</ele>
        <time>2014-06-16T20:18:36Z</time>
      </trkpt>
      <trkpt lat="48.88117" lon="2.33624">
        <ele>38.6</ele>
        <time>2014-06-16T20:18:38Z</time>
      </trkpt>
      <trkpt lat="48.88123" lon="2.33607">
        <ele>38.4</ele>
        <time>2014-06-16T20:18:40Z</time>
      </trkpt>
      <trkpt lat="48.88131" lon="2.3359">
        <ele>39.4</ele>
        <time>2014-06-16T20:18:42Z</time>
      </trkpt>
      <trkpt lat="48.88141" lon="2.33574">
        <ele>38.8</ele>
        <time>2014-06-16T20:18:44Z</time>
      </trkpt>
      <trkpt lat="48.88151" lon="2.33557">
        <ele>38.7</ele>
        <time>2014-06-16T20:18:46Z</time>
      </trkpt>
      <trkpt lat="48.88159" lon="2.3354">
        <ele>38.9</ele>
        <time>2014-06-16T20:18:48Z</time>
      </trkpt>
      <trkpt lat="48.88169" lon="2.33524">
        <ele>39</ele>
        <time>2014-06-16T20:18:50Z</time>
      </trkpt>
      <trkpt lat="48.88179" lon="2.33509">
        <ele>39.1</ele>
        <time>2014-06-16T20:18:52Z</time>
      </trkpt>
      <trkpt lat="48.88186" lon="2.33494">
        <ele>39.5</ele>
        <time>2014-06-16T20:18:54Z</time>
      </trkpt>
      <trkpt lat="48.8819" lon="2.33477">
        <ele>38.9</ele>
        <time>2014-06-16T20:18:56Z</time>
      </trkpt>
      <trkpt lat="48.88196" lon="2.33465">
        <ele>38.8</ele>
        <time>2014-06-16T20:18:58Z</time>
      </trkpt>
      <trkpt lat="48.88199" lon="2.3345">
        <ele>38.7</ele>
        <time>2014-06-16T20:19:00Z</time>
      </trkpt>
      <trkpt lat="48.88202" lon="2.33435">
        <ele>38.6</ele>
        <time>2014-06-16T20:19:02Z</time>
      </trkpt>
      <trkpt lat="48.88207" lon="2.33419">
        <ele>38.8</ele>
        <time>2014-06-16T20:19:06Z</time>
      </trkpt>
      <trkpt lat="48.88211" lon="2.33404">
        <ele>37.7</ele>
        <time>2014-06-16T20:19:10Z</time>
      </trkpt>
      <trkpt lat="48.8821" lon="2.33389">
        <ele>38.6</ele>
        <time>2014-06-16T20:19:13Z</time>
      </trkpt>
      <trkpt lat="48.88208" lon="2.33373">
        <ele>39.1</ele>
        <time>2014-06-16T20:19:16Z</time>
      </trkpt>
      <trkpt lat="48.88206" lon="2.33354">
        <ele>39.1</ele>
        <time>2014-06-16T20:19:19Z</time>
      </trkpt>
      <trkpt lat="48.8821" lon="2.33339">
        <ele>39</ele>
        <time>2014-06-16T20:19:22Z</time>
      </trkpt>
      <trkpt lat="48.88209" lon="2.33323">
        <ele>38.5</ele>
        <time>2014-06-16T20:19:25Z</time>
      </trkpt>
      <trkpt lat="48.88209" lon="2.33308">
        <ele>37.8</ele>
        <time>2014-06-16T20:19:28Z</time>
      </trkpt>
      <trkpt lat="48.88209" lon="2.33293">
        <ele>37.6</ele>
        <time>2014-06-16T20:19:31Z</time>
      </trkpt>
      <trkpt lat="48.8821" lon="2.33279">
        <ele>37.3</ele>
        <time>2014-06-16T20:19:34Z</time>
      </trkpt>
      <trkpt lat="48.88209" lon="2.33263">
        <ele>37.4</ele>
        <time>2014-06-16T20:19:37Z</time>
      </trkpt>
      <trkpt lat="48.88208" lon="2.33247">
        <ele>36.7</ele>
        <time>2014-06-16T20:19:40Z</time>
      </trkpt>
      <trkpt lat="48.8821" lon="2.33228">
        <ele>36</ele>
        <time>2014-06-16T20:19:43Z</time>
      </trkpt>
      <trkpt lat="48.88214" lon="2.33214">
        <ele>35.6</ele>
        <time>2014-06-16T20:19:45Z</time>
      </trkpt>
      <trkpt lat="48.88218" lon="2.33201">
        <ele>35.2</ele>
        <time>2014-06-16T20:19:47Z</time>
      </trkpt>
      <trkpt lat="48.88222" lon="2.33185">
        <ele>34.6</ele>
        <time>2014-06-16T20:19:49Z</time>
      </trkpt>
      <trkpt lat="48.88226" lon="2.33168">
        <ele>34.8</ele>
        <time>2014-06-16T20:19:51Z</time>
      </trkpt>
      <trkpt lat="48.88231" lon="2.3315">
        <ele>35.7</ele>
        <time>2014-06-16T20:19:53Z</time>
      </trkpt>
      <trkpt lat="48.88237" lon="2.33135">
        <ele>36</ele>
        <time>2014-06-16T20:19:55Z</time>
      </trkpt>
      <trkpt lat="48.88248" lon="2.33108">
        <ele>36</ele>
        <time>2014-06-16T20:19:58Z</time>
      </trkpt>
      <trkpt lat="48.88255" lon="2.33088">
        <ele>36.8</ele>
        <time>2014-06-16T20:20:01Z</time>
      </trkpt>
      <trkpt lat="48.88262" lon="2.33073">
        <ele>37.1</ele>
        <time>2014-06-16T20:20:03Z</time>
      </trkpt>
      <trkpt lat="48.88268" lon="2.33059">
        <ele>37.2</ele>
        <time>2014-06-16T20:20:05Z</time>
      </trkpt>
      <trkpt lat="48.88275" lon="2.33045">
        <ele>37.2</ele>
        <time>2014-06-16T20:20:07Z</time>
      </trkpt>
      <trkpt lat="48.88281" lon="2.33032">
        <ele>37.6</ele>
        <time>2014-06-16T20:20:09Z</time>
      </trkpt>
      <trkpt lat="48.8829" lon="2.3302">
        <ele>37.4</ele>
        <time>2014-06-16T20:20:12Z</time>
      </trkpt>
      <trkpt lat="48.88291" lon="2.33006">
        <ele>39.2</ele>
        <time>2014-06-16T20:20:17Z</time>
      </trkpt>
      <trkpt lat="48.88295" lon="2.3299">
        <ele>39.2</ele>
        <time>2014-06-16T20:20:22Z</time>
      </trkpt>
      <trkpt lat="48.88297" lon="2.32974">
        <ele>41.2</ele>
        <time>2014-06-16T20:20:26Z</time>
      </trkpt>
      <trkpt lat="48.88296" lon="2.32958">
        <ele>40.7</ele>
        <time>2014-06-16T20:20:30Z</time>
      </trkpt>
      <trkpt lat="48.88292" lon="2.32941">
        <ele>40.1</ele>
        <time>2014-06-16T20:20:34Z</time>
      </trkpt>
      <trkpt lat="48.8829" lon="2.32926">
        <ele>39.7</ele>
        <time>2014-06-16T20:20:37Z</time>
      </trkpt>
      <trkpt lat="48.88288" lon="2.32908">
        <ele>39.4</ele>
        <time>2014-06-16T20:20:40Z</time>
      </trkpt>
      <trkpt lat="48.88286" lon="2.32891">
        <ele>38.9</ele>
        <time>2014-06-16T20:20:43Z</time>
      </trkpt>
      <trkpt lat="48.88284" lon="2.32875">
        <ele>39</ele>
        <time>2014-06-16T20:20:46Z</time>
      </trkpt>
      <trkpt lat="48.88281" lon="2.32858">
        <ele>38.5</ele>
        <time>2014-06-16T20:20:49Z</time>
      </trkpt>
      <trkpt lat="48.88281" lon="2.32843">
        <ele>38.1</ele>
        <time>2014-06-16T20:20:52Z</time>
      </trkpt>
      <trkpt lat="48.88274" lon="2.32826">
        <ele>38</ele>
        <time>2014-06-16T20:20:55Z</time>
      </trkpt>
      <trkpt lat="48.8827" lon="2.32812">
        <ele>38.3</ele>
        <time>2014-06-16T20:20:58Z</time>
      </trkpt>
      <trkpt lat="48.88276" lon="2.328">
        <ele>38</ele>
        <time>2014-06-16T20:21:03Z</time>
      </trkpt>
      <trkpt lat="48.88286" lon="2.32791">
        <ele>37.6</ele>
        <time>2014-06-16T20:21:08Z</time>
      </trkpt>
      <trkpt lat="48.88295" lon="2.32784">
        <ele>38.1</ele>
        <time>2014-06-16T20:21:11Z</time>
      </trkpt>
      <trkpt lat="48.88303" lon="2.32778">
        <ele>38.7</ele>
        <time>2014-06-16T20:21:14Z</time>
      </trkpt>
      <trkpt lat="48.88315" lon="2.32771">
        <ele>39.2</ele>
        <time>2014-06-16T20:21:17Z</time>
      </trkpt>
      <trkpt lat="48.88325" lon="2.32769">
        <ele>39.8</ele>
        <time>2014-06-16T20:21:20Z</time>
      </trkpt>
      <trkpt lat="48.88336" lon="2.3277">
        <ele>40.6</ele>
        <time>2014-06-16T20:21:23Z</time>
      </trkpt>
      <trkpt lat="48.88348" lon="2.32772">
        <ele>40.6</ele>
        <time>2014-06-16T20:21:27Z</time>
      </trkpt>
      <trkpt lat="48.88353" lon="2.32759">
        <ele>40.8</ele>
        <time>2014-06-16T20:21:31Z</time>
      </trkpt>
      <trkpt lat="48.88354" lon="2.32743">
        <ele>41.1</ele>
        <time>2014-06-16T20:21:35Z</time>
      </trkpt>
      <trkpt lat="48.88355" lon="2.32726">
        <ele>40.8</ele>
        <time>2014-06-16T20:21:39Z</time>
      </trkpt>
      <trkpt lat="48.88356" lon="2.32711">
        <ele>40.6</ele>
        <time>2014-06-16T20:21:46Z</time>
      </trkpt>
      <trkpt lat="48.8836" lon="2.32697">
        <ele>40.6</ele>
        <time>2014-06-16T20:21:53Z</time>
      </trkpt>
      <trkpt lat="48.88368" lon="2.32688">
        <ele>40.7</ele>
        <time>2014-06-16T20:21:58Z</time>
      </trkpt>
      <trkpt lat="48.88378" lon="2.32679">
        <ele>40.4</ele>
        <time>2014-06-16T20:22:04Z</time>
      </trkpt>
      <trkpt lat="48.88388" lon="2.32673">
        <ele>40.5</ele>
        <time>2014-06-16T20:22:07Z</time>
      </trkpt>
      <trkpt lat="48.88397" lon="2.32665">
        <ele>40.3</ele>
        <time>2014-06-16T20:22:09Z</time>
      </trkpt>
      <trkpt lat="48.88407" lon="2.32657">
        <ele>40.6</ele>
        <time>2014-06-16T20:22:11Z</time>
      </trkpt>
      <trkpt lat="48.88416" lon="2.3265">
        <ele>40.4</ele>
        <time>2014-06-16T20:22:13Z</time>
      </trkpt>
      <trkpt lat="48.88423" lon="2.32641">
        <ele>40.9</ele>
        <time>2014-06-16T20:22:15Z</time>
      </trkpt>
      <trkpt lat="48.88433" lon="2.32632">
        <ele>41</ele>
        <time>2014-06-16T20:22:17Z</time>
      </trkpt>
      <trkpt lat="48.88441" lon="2.32622">
        <ele>41.2</ele>
        <time>2014-06-16T20:22:19Z</time>
      </trkpt>
      <trkpt lat="48.88448" lon="2.32613">
        <ele>40.9</ele>
        <time>2014-06-16T20:22:22Z</time>
      </trkpt>
      <trkpt lat="48.88455" lon="2.32602">
        <ele>41.1</ele>
        <time>2014-06-16T20:22:26Z</time>
      </trkpt>
      <trkpt lat="48.88464" lon="2.32597">
        <ele>41.3</ele>
        <time>2014-06-16T20:22:29Z</time>
      </trkpt>
      <trkpt lat="48.88473" lon="2.32587">
        <ele>41.6</ele>
        <time>2014-06-16T20:22:32Z</time>
      </trkpt>
      <trkpt lat="48.8848" lon="2.32578">
        <ele>42.8</ele>
        <time>2014-06-16T20:22:35Z</time>
      </trkpt>
      <trkpt lat="48.88488" lon="2.3257">
        <ele>42.9</ele>
        <time>2014-06-16T20:22:40Z</time>
      </trkpt>
      <trkpt lat="48.88493" lon="2.32558">
        <ele>42.6</ele>
        <time>2014-06-16T20:22:46Z</time>
      </trkpt>
      <trkpt lat="48.8849" lon="2.32541">
        <ele>41.5</ele>
        <time>2014-06-16T20:22:55Z</time>
      </trkpt>
      <trkpt lat="48.88484" lon="2.32525">
        <ele>41.3</ele>
        <time>2014-06-16T20:22:58Z</time>
      </trkpt>
      <trkpt lat="48.88482" lon="2.32506">
        <ele>41.1</ele>
        <time>2014-06-16T20:23:01Z</time>
      </trkpt>
      <trkpt lat="48.88487" lon="2.32493">
        <ele>40.5</ele>
        <time>2014-06-16T20:23:04Z</time>
      </trkpt>
      <trkpt lat="48.88494" lon="2.32476">
        <ele>40.5</ele>
        <time>2014-06-16T20:23:07Z</time>
      </trkpt>
      <trkpt lat="48.88504" lon="2.32464">
        <ele>39.6</ele>
        <time>2014-06-16T20:23:10Z</time>
      </trkpt>
      <trkpt lat="48.88512" lon="2.32455">
        <ele>39</ele>
        <time>2014-06-16T20:23:12Z</time>
      </trkpt>
      <trkpt lat="48.88519" lon="2.32445">
        <ele>38.7</ele>
        <time>2014-06-16T20:23:14Z</time>
      </trkpt>
      <trkpt lat="48.88527" lon="2.32437">
        <ele>38.7</ele>
        <time>2014-06-16T20:23:16Z</time>
      </trkpt>
      <trkpt lat="48.88538" lon="2.32428">
        <ele>38.9</ele>
        <time>2014-06-16T20:23:19Z</time>
      </trkpt>
      <trkpt lat="48.88549" lon="2.32416">
        <ele>39.4</ele>
        <time>2014-06-16T20:23:22Z</time>
      </trkpt>
      <trkpt lat="48.88556" lon="2.32407">
        <ele>39</ele>
        <time>2014-06-16T20:23:24Z</time>
      </trkpt>
      <trkpt lat="48.88563" lon="2.32398">
        <ele>39.1</ele>
        <time>2014-06-16T20:23:26Z</time>
      </trkpt>
      <trkpt lat="48.88572" lon="2.32384">
        <ele>39.2</ele>
        <time>2014-06-16T20:23:29Z</time>
      </trkpt>
      <trkpt lat="48.8858" lon="2.32371">
        <ele>38.9</ele>
        <time>2014-06-16T20:23:32Z</time>
      </trkpt>
      <trkpt lat="48.88588" lon="2.32359">
        <ele>39.1</ele>
        <time>2014-06-16T20:23:34Z</time>
      </trkpt>
      <trkpt lat="48.88596" lon="2.32347">
        <ele>38.7</ele>
        <time>2014-06-16T20:23:37Z</time>
      </trkpt>
      <trkpt lat="48.88603" lon="2.32337">
        <ele>38.7</ele>
        <time>2014-06-16T20:23:39Z</time>
      </trkpt>
      <trkpt lat="48.8861" lon="2.32325">
        <ele>38</ele>
        <time>2014-06-16T20:23:41Z</time>
      </trkpt>
      <trkpt lat="48.88618" lon="2.32312">
        <ele>37.8</ele>
        <time>2014-06-16T20:23:44Z</time>
      </trkpt>
      <trkpt lat="48.88626" lon="2.32303">
        <ele>37.4</ele>
        <time>2014-06-16T20:23:46Z</time>
      </trkpt>
      <trkpt lat="48.88633" lon="2.32294">
        <ele>36.9</ele>
        <time>2014-06-16T20:23:48Z</time>
      </trkpt>
      <trkpt lat="48.88636" lon="2.3228">
        <ele>37.4</ele>
        <time>2014-06-16T20:23:50Z</time>
      </trkpt>
      <trkpt lat="48.88641" lon="2.32262">
        <ele>37.9</ele>
        <time>2014-06-16T20:23:53Z</time>
      </trkpt>
      <trkpt lat="48.88647" lon="2.32246">
        <ele>37.4</ele>
        <time>2014-06-16T20:23:56Z</time>
      </trkpt>
      <trkpt lat="48.88653" lon="2.3223">
        <ele>37</ele>
        <time>2014-06-16T20:23:59Z</time>
      </trkpt>
      <trkpt lat="48.8866" lon="2.32214">
        <ele>36.4</ele>
        <time>2014-06-16T20:24:02Z</time>
      </trkpt>
      <trkpt lat="48.88668" lon="2.32199">
        <ele>36.1</ele>
        <time>2014-06-16T20:24:05Z</time>
      </trkpt>
      <trkpt lat="48.88677" lon="2.32186">
        <ele>35.7</ele>
        <time>2014-06-16T20:24:08Z</time>
      </trkpt>
      <trkpt lat="48.88686" lon="2.32173">
        <ele>35.4</ele>
        <time>2014-06-16T20:24:11Z</time>
      </trkpt>
      <trkpt lat="48.8869" lon="2.3216">
        <ele>34.4</ele>
        <time>2014-06-16T20:24:14Z</time>
      </trkpt>
      <trkpt lat="48.88697" lon="2.32149">
        <ele>34.3</ele>
        <time>2014-06-16T20:24:17Z</time>
      </trkpt>
      <trkpt lat="48.88705" lon="2.32139">
        <ele>34.2</ele>
        <time>2014-06-16T20:24:20Z</time>
      </trkpt>
      <trkpt lat="48.88713" lon="2.32127">
        <ele>33.1</ele>
        <time>2014-06-16T20:24:24Z</time>
      </trkpt>
      <trkpt lat="48.88718" lon="2.32113">
        <ele>32.9</ele>
        <time>2014-06-16T20:24:28Z</time>
      </trkpt>
      <trkpt lat="48.88722" lon="2.32099">
        <ele>33</ele>
        <time>2014-06-16T20:24:31Z</time>
      </trkpt>
      <trkpt lat="48.88727" lon="2.32086">
        <ele>32.7</ele>
        <time>2014-06-16T20:24:33Z</time>
      </trkpt>
      <trkpt lat="48.88735" lon="2.3207">
        <ele>32</ele>
        <time>2014-06-16T20:24:36Z</time>
      </trkpt>
      <trkpt lat="48.88741" lon="2.32059">
        <ele>32</ele>
        <time>2014-06-16T20:24:38Z</time>
      </trkpt>
      <trkpt lat="48.88748" lon="2.32043">
        <ele>31.1</ele>
        <time>2014-06-16T20:24:41Z</time>
      </trkpt>
      <trkpt lat="48.88755" lon="2.32028">
        <ele>31</ele>
        <time>2014-06-16T20:24:43Z</time>
      </trkpt>
      <trkpt lat="48.88761" lon="2.32016">
        <ele>30.6</ele>
        <time>2014-06-16T20:24:45Z</time>
      </trkpt>
      <trkpt lat="48.88766" lon="2.32005">
        <ele>30.2</ele>
        <time>2014-06-16T20:24:47Z</time>
      </trkpt>
      <trkpt lat="48.88774" lon="2.31992">
        <ele>29.3</ele>
        <time>2014-06-16T20:24:50Z</time>
      </trkpt>
      <trkpt lat="48.88781" lon="2.31981">
        <ele>29</ele>
        <time>2014-06-16T20:24:53Z</time>
      </trkpt>
      <trkpt lat="48.88792" lon="2.31967">
        <ele>28.6</ele>
        <time>2014-06-16T20:24:56Z</time>
      </trkpt>
      <trkpt lat="48.88799" lon="2.31957">
        <ele>28.4</ele>
        <time>2014-06-16T20:24:58Z</time>
      </trkpt>
      <trkpt lat="48.88806" lon="2.31945">
        <ele>28.6</ele>
        <time>2014-06-16T20:25:00Z</time>
      </trkpt>
      <trkpt lat="48.88814" lon="2.31932">
        <ele>28.2</ele>
        <time>2014-06-16T20:25:02Z</time>
      </trkpt>
      <trkpt lat="48.8882" lon="2.31918">
        <ele>27</ele>
        <time>2014-06-16T20:25:04Z</time>
      </trkpt>
      <trkpt lat="48.88827" lon="2.31904">
        <ele>25</ele>
        <time>2014-06-16T20:25:07Z</time>
      </trkpt>
      <trkpt lat="48.88836" lon="2.31891">
        <ele>25.7</ele>
        <time>2014-06-16T20:25:10Z</time>
      </trkpt>
      <trkpt lat="48.88843" lon="2.31878">
        <ele>25.6</ele>
        <time>2014-06-16T20:25:13Z</time>
      </trkpt>
      <trkpt lat="48.8885" lon="2.31861">
        <ele>24.9</ele>
        <time>2014-06-16T20:25:16Z</time>
      </trkpt>
      <trkpt lat="48.88854" lon="2.31848">
        <ele>24.4</ele>
        <time>2014-06-16T20:25:18Z</time>
      </trkpt>
      <trkpt lat="48.8886" lon="2.31836">
        <ele>24.7</ele>
        <time>2014-06-16T20:25:20Z</time>
      </trkpt>
      <trkpt lat="48.88868" lon="2.31824">
        <ele>24.7</ele>
        <time>2014-06-16T20:25:22Z</time>
      </trkpt>
      <trkpt lat="48.88877" lon="2.31813">
        <ele>24.1</ele>
        <time>2014-06-16T20:25:24Z</time>
      </trkpt>
      <trkpt lat="48.88886" lon="2.31802">
        <ele>23.5</ele>
        <time>2014-06-16T20:25:26Z</time>
      </trkpt>
      <trkpt lat="48.88895" lon="2.31792">
        <ele>22.9</ele>
        <time>2014-06-16T20:25:28Z</time>
      </trkpt>
      <trkpt lat="48.88903" lon="2.31783">
        <ele>22.8</ele>
        <time>2014-06-16T20:25:30Z</time>
      </trkpt>
      <trkpt lat="48.88911" lon="2.31774">
        <ele>22.2</ele>
        <time>2014-06-16T20:25:32Z</time>
      </trkpt>
      <trkpt lat="48.8892" lon="2.31765">
        <ele>21.9</ele>
        <time>2014-06-16T20:25:34Z</time>
      </trkpt>
      <trkpt lat="48.88929" lon="2.31756">
        <ele>21.9</ele>
        <time>2014-06-16T20:25:36Z</time>
      </trkpt>
      <trkpt lat="48.88937" lon="2.31744">
        <ele>21.9</ele>
        <time>2014-06-16T20:25:38Z</time>
      </trkpt>
      <trkpt lat="48.88943" lon="2.31733">
        <ele>21.7</ele>
        <time>2014-06-16T20:25:40Z</time>
      </trkpt>
      <trkpt lat="48.88949" lon="2.31716">
        <ele>21.1</ele>
        <time>2014-06-16T20:25:43Z</time>
      </trkpt>
      <trkpt lat="48.88948" lon="2.31699">
        <ele>21.1</ele>
        <time>2014-06-16T20:25:46Z</time>
      </trkpt>
      <trkpt lat="48.88945" lon="2.31683">
        <ele>20.3</ele>
        <time>2014-06-16T20:25:49Z</time>
      </trkpt>
      <trkpt lat="48.88937" lon="2.31665">
        <ele>20.6</ele>
        <time>2014-06-16T20:25:52Z</time>
      </trkpt>
      <trkpt lat="48.8893" lon="2.31654">
        <ele>20.5</ele>
        <time>2014-06-16T20:25:54Z</time>
      </trkpt>
      <trkpt lat="48.88923" lon="2.31642">
        <ele>20.4</ele>
        <time>2014-06-16T20:25:56Z</time>
      </trkpt>
      <trkpt lat="48.88916" lon="2.31626">
        <ele>20.8</ele>
        <time>2014-06-16T20:25:59Z</time>
      </trkpt>
      <trkpt lat="48.88911" lon="2.31609">
        <ele>20.9</ele>
        <time>2014-06-16T20:26:03Z</time>
      </trkpt>
      <trkpt lat="48.88902" lon="2.31599">
        <ele>22.1</ele>
        <time>2014-06-16T20:26:06Z</time>
      </trkpt>
      <trkpt lat="48.88894" lon="2.3159">
        <ele>21.8</ele>
        <time>2014-06-16T20:26:09Z</time>
      </trkpt>
      <trkpt lat="48.88884" lon="2.31584">
        <ele>22</ele>
        <time>2014-06-16T20:26:12Z</time>
      </trkpt>
      <trkpt lat="48.88876" lon="2.31577">
        <ele>22.6</ele>
        <time>2014-06-16T20:26:15Z</time>
      </trkpt>
      <trkpt lat="48.88868" lon="2.3157">
        <ele>22.6</ele>
        <time>2014-06-16T20:26:18Z</time>
      </trkpt>
      <trkpt lat="48.88857" lon="2.3156">
        <ele>23.2</ele>
        <time>2014-06-16T20:26:21Z</time>
      </trkpt>
      <trkpt lat="48.88846" lon="2.31549">
        <ele>24.1</ele>
        <time>2014-06-16T20:26:24Z</time>
      </trkpt>
      <trkpt lat="48.88837" lon="2.3154">
        <ele>24.5</ele>
        <time>2014-06-16T20:26:27Z</time>
      </trkpt>
      <trkpt lat="48.88827" lon="2.31531">
        <ele>25.6</ele>
        <time>2014-06-16T20:26:30Z</time>
      </trkpt>
      <trkpt lat="48.88818" lon="2.31523">
        <ele>25.8</ele>
        <time>2014-06-16T20:26:33Z</time>
      </trkpt>
      <trkpt lat="48.8881" lon="2.31513">
        <ele>26.7</ele>
        <time>2014-06-16T20:26:37Z</time>
      </trkpt>
      <trkpt lat="48.88802" lon="2.31502">
        <ele>27.3</ele>
        <time>2014-06-16T20:26:41Z</time>
      </trkpt>
      <trkpt lat="48.88794" lon="2.31491">
        <ele>27.2</ele>
        <time>2014-06-16T20:26:45Z</time>
      </trkpt>
      <trkpt lat="48.88786" lon="2.31482">
        <ele>27.3</ele>
        <time>2014-06-16T20:26:49Z</time>
      </trkpt>
      <trkpt lat="48.88778" lon="2.31472">
        <ele>27.4</ele>
        <time>2014-06-16T20:26:54Z</time>
      </trkpt>
      <trkpt lat="48.8877" lon="2.31461">
        <ele>27.4</ele>
        <time>2014-06-16T20:27:00Z</time>
      </trkpt>
      <trkpt lat="48.88763" lon="2.3145">
        <ele>27.4</ele>
        <time>2014-06-16T20:27:04Z</time>
      </trkpt>
      <trkpt lat="48.88756" lon="2.31439">
        <ele>27.8</ele>
        <time>2014-06-16T20:27:09Z</time>
      </trkpt>
      <trkpt lat="48.88751" lon="2.31427">
        <ele>29</ele>
        <time>2014-06-16T20:27:19Z</time>
      </trkpt>
      <trkpt lat="48.88747" lon="2.31414">
        <ele>29.7</ele>
        <time>2014-06-16T20:28:46Z</time>
      </trkpt>
      <trkpt lat="48.8874" lon="2.31407">
        <ele>31</ele>
        <time>2014-06-16T20:30:54Z</time>
      </trkpt>
      <trkpt lat="48.88735" lon="2.31393">
        <ele>30.2</ele>
        <time>2014-06-16T20:31:03Z</time>
      </trkpt>
      <trkpt lat="48.88733" lon="2.31379">
        <ele>31.2</ele>
        <time>2014-06-16T20:31:06Z</time>
      </trkpt>
      <trkpt lat="48.88729" lon="2.31364">
        <ele>30.9</ele>
        <time>2014-06-16T20:31:09Z</time>
      </trkpt>
      <trkpt lat="48.88725" lon="2.31347">
        <ele>30.8</ele>
        <time>2014-06-16T20:31:12Z</time>
      </trkpt>
      <trkpt lat="48.88721" lon="2.31333">
        <ele>30.7</ele>
        <time>2014-06-16T20:31:15Z</time>
      </trkpt>
      <trkpt lat="48.88716" lon="2.31315">
        <ele>30.3</ele>
        <time>2014-06-16T20:31:18Z</time>
      </trkpt>
      <trkpt lat="48.8871" lon="2.313">
        <ele>30.2</ele>
        <time>2014-06-16T20:31:21Z</time>
      </trkpt>
      <trkpt lat="48.88706" lon="2.31284">
        <ele>29.9</ele>
        <time>2014-06-16T20:31:24Z</time>
      </trkpt>
      <trkpt lat="48.887" lon="2.31266">
        <ele>29.8</ele>
        <time>2014-06-16T20:31:27Z</time>
      </trkpt>
      <trkpt lat="48.88697" lon="2.31249">
        <ele>29.6</ele>
        <time>2014-06-16T20:31:30Z</time>
      </trkpt>
      <trkpt lat="48.88693" lon="2.31236">
        <ele>29.7</ele>
        <time>2014-06-16T20:31:32Z</time>
      </trkpt>
      <trkpt lat="48.88687" lon="2.31223">
        <ele>30.2</ele>
        <time>2014-06-16T20:31:34Z</time>
      </trkpt>
      <trkpt lat="48.88681" lon="2.31211">
        <ele>30.9</ele>
        <time>2014-06-16T20:31:36Z</time>
      </trkpt>
      <trkpt lat="48.88676" lon="2.31198">
        <ele>30.2</ele>
        <time>2014-06-16T20:31:38Z</time>
      </trkpt>
      <trkpt lat="48.88672" lon="2.3118">
        <ele>30.1</ele>
        <time>2014-06-16T20:31:41Z</time>
      </trkpt>
      <trkpt lat="48.88669" lon="2.31167">
        <ele>30.6</ele>
        <time>2014-06-16T20:31:43Z</time>
      </trkpt>
      <trkpt lat="48.88662" lon="2.31151">
        <ele>31.2</ele>
        <time>2014-06-16T20:31:46Z</time>
      </trkpt>
      <trkpt lat="48.88655" lon="2.31134">
        <ele>31</ele>
        <time>2014-06-16T20:31:49Z</time>
      </trkpt>
      <trkpt lat="48.88652" lon="2.3112">
        <ele>31.3</ele>
        <time>2014-06-16T20:31:52Z</time>
      </trkpt>
      <trkpt lat="48.88648" lon="2.31102">
        <ele>31.6</ele>
        <time>2014-06-16T20:31:56Z</time>
      </trkpt>
      <trkpt lat="48.88642" lon="2.31085">
        <ele>31.6</ele>
        <time>2014-06-16T20:31:59Z</time>
      </trkpt>
      <trkpt lat="48.88638" lon="2.31072">
        <ele>31.8</ele>
        <time>2014-06-16T20:32:01Z</time>
      </trkpt>
      <trkpt lat="48.88633" lon="2.31058">
        <ele>31.6</ele>
        <time>2014-06-16T20:32:03Z</time>
      </trkpt>
      <trkpt lat="48.88628" lon="2.31044">
        <ele>31.7</ele>
        <time>2014-06-16T20:32:05Z</time>
      </trkpt>
      <trkpt lat="48.88624" lon="2.31031">
        <ele>32.2</ele>
        <time>2014-06-16T20:32:07Z</time>
      </trkpt>
      <trkpt lat="48.8862" lon="2.31019">
        <ele>32.1</ele>
        <time>2014-06-16T20:32:09Z</time>
      </trkpt>
      <trkpt lat="48.88615" lon="2.31004">
        <ele>32.3</ele>
        <time>2014-06-16T20:32:12Z</time>
      </trkpt>
      <trkpt lat="48.88612" lon="2.3099">
        <ele>32</ele>
        <time>2014-06-16T20:32:15Z</time>
      </trkpt>
      <trkpt lat="48.88609" lon="2.30977">
        <ele>32.4</ele>
        <time>2014-06-16T20:32:18Z</time>
      </trkpt>
      <trkpt lat="48.88603" lon="2.30963">
        <ele>31.5</ele>
        <time>2014-06-16T20:32:21Z</time>
      </trkpt>
      <trkpt lat="48.886" lon="2.30948">
        <ele>31.4</ele>
        <time>2014-06-16T20:32:24Z</time>
      </trkpt>
      <trkpt lat="48.88598" lon="2.30932">
        <ele>31.2</ele>
        <time>2014-06-16T20:32:27Z</time>
      </trkpt>
      <trkpt lat="48.88593" lon="2.30918">
        <ele>31.2</ele>
        <time>2014-06-16T20:32:30Z</time>
      </trkpt>
      <trkpt lat="48.88586" lon="2.30903">
        <ele>31.5</ele>
        <time>2014-06-16T20:32:33Z</time>
      </trkpt>
      <trkpt lat="48.88579" lon="2.30885">
        <ele>31.8</ele>
        <time>2014-06-16T20:32:36Z</time>
      </trkpt>
      <trkpt lat="48.88574" lon="2.30872">
        <ele>31.6</ele>
        <time>2014-06-16T20:32:38Z</time>
      </trkpt>
      <trkpt lat="48.88571" lon="2.3086">
        <ele>31.5</ele>
        <time>2014-06-16T20:32:40Z</time>
      </trkpt>
      <trkpt lat="48.88566" lon="2.30847">
        <ele>31.3</ele>
        <time>2014-06-16T20:32:42Z</time>
      </trkpt>
      <trkpt lat="48.88561" lon="2.30835">
        <ele>31.1</ele>
        <time>2014-06-16T20:32:44Z</time>
      </trkpt>
      <trkpt lat="48.88557" lon="2.30821">
        <ele>31.5</ele>
        <time>2014-06-16T20:32:46Z</time>
      </trkpt>
      <trkpt lat="48.88553" lon="2.30805">
        <ele>31.7</ele>
        <time>2014-06-16T20:32:49Z</time>
      </trkpt>
      <trkpt lat="48.8855" lon="2.30791">
        <ele>31.9</ele>
        <time>2014-06-16T20:32:52Z</time>
      </trkpt>
      <trkpt lat="48.88547" lon="2.30775">
        <ele>31.8</ele>
        <time>2014-06-16T20:32:55Z</time>
      </trkpt>
      <trkpt lat="48.88545" lon="2.30759">
        <ele>31.8</ele>
        <time>2014-06-16T20:32:58Z</time>
      </trkpt>
      <trkpt lat="48.88543" lon="2.30743">
        <ele>31.8</ele>
        <time>2014-06-16T20:33:01Z</time>
      </trkpt>
      <trkpt lat="48.88541" lon="2.30728">
        <ele>31.5</ele>
        <time>2014-06-16T20:33:04Z</time>
      </trkpt>
      <trkpt lat="48.8854" lon="2.30715">
        <ele>31.8</ele>
        <time>2014-06-16T20:33:07Z</time>
      </trkpt>
      <trkpt lat="48.88536" lon="2.30697">
        <ele>32.5</ele>
        <time>2014-06-16T20:33:11Z</time>
      </trkpt>
      <trkpt lat="48.88531" lon="2.30685">
        <ele>32</ele>
        <time>2014-06-16T20:33:13Z</time>
      </trkpt>
      <trkpt lat="48.88526" lon="2.30671">
        <ele>32.1</ele>
        <time>2014-06-16T20:33:15Z</time>
      </trkpt>
      <trkpt lat="48.88518" lon="2.30659">
        <ele>32</ele>
        <time>2014-06-16T20:33:17Z</time>
      </trkpt>
      <trkpt lat="48.8851" lon="2.30646">
        <ele>31.6</ele>
        <time>2014-06-16T20:33:19Z</time>
      </trkpt>
      <trkpt lat="48.88502" lon="2.30633">
        <ele>31.3</ele>
        <time>2014-06-16T20:33:21Z</time>
      </trkpt>
      <trkpt lat="48.88493" lon="2.30622">
        <ele>31.2</ele>
        <time>2014-06-16T20:33:23Z</time>
      </trkpt>
      <trkpt lat="48.88485" lon="2.3061">
        <ele>31.9</ele>
        <time>2014-06-16T20:33:25Z</time>
      </trkpt>
      <trkpt lat="48.88476" lon="2.30599">
        <ele>31.5</ele>
        <time>2014-06-16T20:33:27Z</time>
      </trkpt>
      <trkpt lat="48.88468" lon="2.30589">
        <ele>31.7</ele>
        <time>2014-06-16T20:33:29Z</time>
      </trkpt>
      <trkpt lat="48.88461" lon="2.30579">
        <ele>31.9</ele>
        <time>2014-06-16T20:33:31Z</time>
      </trkpt>
      <trkpt lat="48.88454" lon="2.30571">
        <ele>31.8</ele>
        <time>2014-06-16T20:33:33Z</time>
      </trkpt>
      <trkpt lat="48.88444" lon="2.30561">
        <ele>32.2</ele>
        <time>2014-06-16T20:33:36Z</time>
      </trkpt>
      <trkpt lat="48.88436" lon="2.30549">
        <ele>31.7</ele>
        <time>2014-06-16T20:33:39Z</time>
      </trkpt>
      <trkpt lat="48.88429" lon="2.30538">
        <ele>31.2</ele>
        <time>2014-06-16T20:33:42Z</time>
      </trkpt>
      <trkpt lat="48.88423" lon="2.30526">
        <ele>30.7</ele>
        <time>2014-06-16T20:33:45Z</time>
      </trkpt>
      <trkpt lat="48.88417" lon="2.30511">
        <ele>31</ele>
        <time>2014-06-16T20:33:49Z</time>
      </trkpt>
      <trkpt lat="48.88411" lon="2.30501">
        <ele>30.6</ele>
        <time>2014-06-16T20:33:52Z</time>
      </trkpt>
      <trkpt lat="48.88404" lon="2.30488">
        <ele>30.4</ele>
        <time>2014-06-16T20:33:56Z</time>
      </trkpt>
      <trkpt lat="48.88395" lon="2.30476">
        <ele>30.9</ele>
        <time>2014-06-16T20:34:00Z</time>
      </trkpt>
      <trkpt lat="48.88385" lon="2.30465">
        <ele>30.8</ele>
        <time>2014-06-16T20:34:03Z</time>
      </trkpt>
      <trkpt lat="48.88379" lon="2.30453">
        <ele>31.2</ele>
        <time>2014-06-16T20:34:05Z</time>
      </trkpt>
      <trkpt lat="48.88373" lon="2.3044">
        <ele>30.9</ele>
        <time>2014-06-16T20:34:07Z</time>
      </trkpt>
      <trkpt lat="48.88365" lon="2.30429">
        <ele>30.3</ele>
        <time>2014-06-16T20:34:09Z</time>
      </trkpt>
      <trkpt lat="48.88358" lon="2.30417">
        <ele>30.1</ele>
        <time>2014-06-16T20:34:11Z</time>
      </trkpt>
      <trkpt lat="48.8835" lon="2.30405">
        <ele>30.3</ele>
        <time>2014-06-16T20:34:13Z</time>
      </trkpt>
      <trkpt lat="48.88341" lon="2.30392">
        <ele>30.4</ele>
        <time>2014-06-16T20:34:15Z</time>
      </trkpt>
      <trkpt lat="48.88332" lon="2.30379">
        <ele>30.4</ele>
        <time>2014-06-16T20:34:17Z</time>
      </trkpt>
      <trkpt lat="48.88324" lon="2.30367">
        <ele>30.2</ele>
        <time>2014-06-16T20:34:19Z</time>
      </trkpt>
      <trkpt lat="48.88317" lon="2.30357">
        <ele>30.3</ele>
        <time>2014-06-16T20:34:21Z</time>
      </trkpt>
      <trkpt lat="48.8831" lon="2.30343">
        <ele>30.4</ele>
        <time>2014-06-16T20:34:24Z</time>
      </trkpt>
      <trkpt lat="48.88303" lon="2.30331">
        <ele>29.9</ele>
        <time>2014-06-16T20:34:26Z</time>
      </trkpt>
      <trkpt lat="48.88296" lon="2.30319">
        <ele>29.4</ele>
        <time>2014-06-16T20:34:28Z</time>
      </trkpt>
      <trkpt lat="48.88288" lon="2.30306">
        <ele>29.6</ele>
        <time>2014-06-16T20:34:30Z</time>
      </trkpt>
      <trkpt lat="48.8828" lon="2.30291">
        <ele>29.8</ele>
        <time>2014-06-16T20:34:32Z</time>
      </trkpt>
      <trkpt lat="48.88272" lon="2.30277">
        <ele>29.7</ele>
        <time>2014-06-16T20:34:34Z</time>
      </trkpt>
      <trkpt lat="48.88264" lon="2.30264">
        <ele>29.5</ele>
        <time>2014-06-16T20:34:36Z</time>
      </trkpt>
      <trkpt lat="48.88259" lon="2.30251">
        <ele>29.3</ele>
        <time>2014-06-16T20:34:38Z</time>
      </trkpt>
      <trkpt lat="48.88251" lon="2.30237">
        <ele>29</ele>
        <time>2014-06-16T20:34:40Z</time>
      </trkpt>
      <trkpt lat="48.88243" lon="2.30223">
        <ele>29</ele>
        <time>2014-06-16T20:34:42Z</time>
      </trkpt>
      <trkpt lat="48.88236" lon="2.3021">
        <ele>29.3</ele>
        <time>2014-06-16T20:34:44Z</time>
      </trkpt>
      <trkpt lat="48.8823" lon="2.30197">
        <ele>29.5</ele>
        <time>2014-06-16T20:34:46Z</time>
      </trkpt>
      <trkpt lat="48.88223" lon="2.30185">
        <ele>29.6</ele>
        <time>2014-06-16T20:34:48Z</time>
      </trkpt>
      <trkpt lat="48.88216" lon="2.30175">
        <ele>29.2</ele>
        <time>2014-06-16T20:34:50Z</time>
      </trkpt>
      <trkpt lat="48.88209" lon="2.3016">
        <ele>29.4</ele>
        <time>2014-06-16T20:34:53Z</time>
      </trkpt>
      <trkpt lat="48.88205" lon="2.30146">
        <ele>30.2</ele>
        <time>2014-06-16T20:34:57Z</time>
      </trkpt>
      <trkpt lat="48.88201" lon="2.30133">
        <ele>29.7</ele>
        <time>2014-06-16T20:35:03Z</time>
      </trkpt>
      <trkpt lat="48.88194" lon="2.30123">
        <ele>29.2</ele>
        <time>2014-06-16T20:35:06Z</time>
      </trkpt>
      <trkpt lat="48.88184" lon="2.30112">
        <ele>29.5</ele>
        <time>2014-06-16T20:35:10Z</time>
      </trkpt>
      <trkpt lat="48.88176" lon="2.30104">
        <ele>29.5</ele>
        <time>2014-06-16T20:35:13Z</time>
      </trkpt>
      <trkpt lat="48.88167" lon="2.30098">
        <ele>29.6</ele>
        <time>2014-06-16T20:35:16Z</time>
      </trkpt>
      <trkpt lat="48.88156" lon="2.3009">
        <ele>29.5</ele>
        <time>2014-06-16T20:35:19Z</time>
      </trkpt>
      <trkpt lat="48.88148" lon="2.30083">
        <ele>29.8</ele>
        <time>2014-06-16T20:35:21Z</time>
      </trkpt>
      <trkpt lat="48.88139" lon="2.30076">
        <ele>29.4</ele>
        <time>2014-06-16T20:35:23Z</time>
      </trkpt>
      <trkpt lat="48.88129" lon="2.30068">
        <ele>29.4</ele>
        <time>2014-06-16T20:35:25Z</time>
      </trkpt>
      <trkpt lat="48.8812" lon="2.3006">
        <ele>29.8</ele>
        <time>2014-06-16T20:35:27Z</time>
      </trkpt>
      <trkpt lat="48.88111" lon="2.30052">
        <ele>29.7</ele>
        <time>2014-06-16T20:35:29Z</time>
      </trkpt>
      <trkpt lat="48.88102" lon="2.30045">
        <ele>29.2</ele>
        <time>2014-06-16T20:35:31Z</time>
      </trkpt>
      <trkpt lat="48.88091" lon="2.30038">
        <ele>28.6</ele>
        <time>2014-06-16T20:35:33Z</time>
      </trkpt>
      <trkpt lat="48.88082" lon="2.3003">
        <ele>29.5</ele>
        <time>2014-06-16T20:35:35Z</time>
      </trkpt>
      <trkpt lat="48.88072" lon="2.30022">
        <ele>29.4</ele>
        <time>2014-06-16T20:35:37Z</time>
      </trkpt>
      <trkpt lat="48.88063" lon="2.30015">
        <ele>29.6</ele>
        <time>2014-06-16T20:35:39Z</time>
      </trkpt>
      <trkpt lat="48.88055" lon="2.30009">
        <ele>29.7</ele>
        <time>2014-06-16T20:35:41Z</time>
      </trkpt>
      <trkpt lat="48.88046" lon="2.30002">
        <ele>29.6</ele>
        <time>2014-06-16T20:35:43Z</time>
      </trkpt>
      <trkpt lat="48.88037" lon="2.29996">
        <ele>29.8</ele>
        <time>2014-06-16T20:35:45Z</time>
      </trkpt>
      <trkpt lat="48.88029" lon="2.2999">
        <ele>30</ele>
        <time>2014-06-16T20:35:47Z</time>
      </trkpt>
      <trkpt lat="48.88019" lon="2.29983">
        <ele>29.6</ele>
        <time>2014-06-16T20:35:49Z</time>
      </trkpt>
      <trkpt lat="48.88011" lon="2.29976">
        <ele>29.8</ele>
        <time>2014-06-16T20:35:51Z</time>
      </trkpt>
      <trkpt lat="48.88" lon="2.29968">
        <ele>30.2</ele>
        <time>2014-06-16T20:35:54Z</time>
      </trkpt>
      <trkpt lat="48.87989" lon="2.29959">
        <ele>30.7</ele>
        <time>2014-06-16T20:35:57Z</time>
      </trkpt>
      <trkpt lat="48.87978" lon="2.29949">
        <ele>31</ele>
        <time>2014-06-16T20:36:00Z</time>
      </trkpt>
      <trkpt lat="48.87966" lon="2.29941">
        <ele>31.2</ele>
        <time>2014-06-16T20:36:03Z</time>
      </trkpt>
      <trkpt lat="48.87956" lon="2.29935">
        <ele>31.5</ele>
        <time>2014-06-16T20:36:06Z</time>
      </trkpt>
      <trkpt lat="48.87944" lon="2.29928">
        <ele>32.1</ele>
        <time>2014-06-16T20:36:09Z</time>
      </trkpt>
      <trkpt lat="48.87935" lon="2.2992">
        <ele>32.3</ele>
        <time>2014-06-16T20:36:12Z</time>
      </trkpt>
      <trkpt lat="48.87924" lon="2.29914">
        <ele>32.1</ele>
        <time>2014-06-16T20:36:15Z</time>
      </trkpt>
      <trkpt lat="48.87914" lon="2.29907">
        <ele>32.4</ele>
        <time>2014-06-16T20:36:18Z</time>
      </trkpt>
      <trkpt lat="48.87904" lon="2.29899">
        <ele>32.7</ele>
        <time>2014-06-16T20:36:21Z</time>
      </trkpt>
      <trkpt lat="48.87895" lon="2.29893">
        <ele>32.9</ele>
        <time>2014-06-16T20:36:24Z</time>
      </trkpt>
      <trkpt lat="48.87886" lon="2.29888">
        <ele>33.1</ele>
        <time>2014-06-16T20:36:27Z</time>
      </trkpt>
      <trkpt lat="48.87878" lon="2.29883">
        <ele>34</ele>
        <time>2014-06-16T20:36:30Z</time>
      </trkpt>
      <trkpt lat="48.87868" lon="2.29879">
        <ele>33.7</ele>
        <time>2014-06-16T20:36:35Z</time>
      </trkpt>
      <trkpt lat="48.87861" lon="2.29869">
        <ele>34.5</ele>
        <time>2014-06-16T20:36:47Z</time>
      </trkpt>
      <trkpt lat="48.87854" lon="2.29861">
        <ele>33.6</ele>
        <time>2014-06-16T20:37:01Z</time>
      </trkpt>
      <trkpt lat="48.87845" lon="2.2987">
        <ele>35.7</ele>
        <time>2014-06-16T20:37:19Z</time>
      </trkpt>
      <trkpt lat="48.87837" lon="2.29879">
        <ele>34.1</ele>
        <time>2014-06-16T20:37:25Z</time>
      </trkpt>
      <trkpt lat="48.87827" lon="2.29886">
        <ele>35.9</ele>
        <time>2014-06-16T20:37:32Z</time>
      </trkpt>
      <trkpt lat="48.87823" lon="2.29898">
        <ele>35.3</ele>
        <time>2014-06-16T20:37:37Z</time>
      </trkpt>
      <trkpt lat="48.87826" lon="2.29911">
        <ele>36.1</ele>
        <time>2014-06-16T20:37:42Z</time>
      </trkpt>
      <trkpt lat="48.8783" lon="2.29925">
        <ele>36.7</ele>
        <time>2014-06-16T20:37:46Z</time>
      </trkpt>
      <trkpt lat="48.87836" lon="2.2994">
        <ele>36.2</ele>
        <time>2014-06-16T20:37:50Z</time>
      </trkpt>
      <trkpt lat="48.8784" lon="2.29956">
        <ele>36.2</ele>
        <time>2014-06-16T20:37:53Z</time>
      </trkpt>
      <trkpt lat="48.87845" lon="2.2997">
        <ele>36.4</ele>
        <time>2014-06-16T20:37:56Z</time>
      </trkpt>
      <trkpt lat="48.87851" lon="2.29981">
        <ele>36.7</ele>
        <time>2014-06-16T20:37:59Z</time>
      </trkpt>
      <trkpt lat="48.87856" lon="2.29997">
        <ele>36.4</ele>
        <time>2014-06-16T20:38:02Z</time>
      </trkpt>
      <trkpt lat="48.87862" lon="2.30009">
        <ele>36.6</ele>
        <time>2014-06-16T20:38:05Z</time>
      </trkpt>
      <trkpt lat="48.87867" lon="2.30027">
        <ele>36.9</ele>
        <time>2014-06-16T20:38:08Z</time>
      </trkpt>
      <trkpt lat="48.87873" lon="2.30043">
        <ele>36.7</ele>
        <time>2014-06-16T20:38:11Z</time>
      </trkpt>
      <trkpt lat="48.87878" lon="2.30058">
        <ele>36.3</ele>
        <time>2014-06-16T20:38:14Z</time>
      </trkpt>
      <trkpt lat="48.8788" lon="2.30078">
        <ele>36.4</ele>
        <time>2014-06-16T20:38:17Z</time>
      </trkpt>
      <trkpt lat="48.87882" lon="2.30095">
        <ele>37</ele>
        <time>2014-06-16T20:38:19Z</time>
      </trkpt>
      <trkpt lat="48.87884" lon="2.3011">
        <ele>36.4</ele>
        <time>2014-06-16T20:38:21Z</time>
      </trkpt>
      <trkpt lat="48.87888" lon="2.30125">
        <ele>35.7</ele>
        <time>2014-06-16T20:38:23Z</time>
      </trkpt>
      <trkpt lat="48.87893" lon="2.3014">
        <ele>35.5</ele>
        <time>2014-06-16T20:38:25Z</time>
      </trkpt>
      <trkpt lat="48.87895" lon="2.30154">
        <ele>36.1</ele>
        <time>2014-06-16T20:38:27Z</time>
      </trkpt>
      <trkpt lat="48.87898" lon="2.30168">
        <ele>36.8</ele>
        <time>2014-06-16T20:38:29Z</time>
      </trkpt>
      <trkpt lat="48.87902" lon="2.30183">
        <ele>37.1</ele>
        <time>2014-06-16T20:38:31Z</time>
      </trkpt>
      <trkpt lat="48.87905" lon="2.30197">
        <ele>36.6</ele>
        <time>2014-06-16T20:38:33Z</time>
      </trkpt>
      <trkpt lat="48.87909" lon="2.3021">
        <ele>36.4</ele>
        <time>2014-06-16T20:38:35Z</time>
      </trkpt>
      <trkpt lat="48.87911" lon="2.30225">
        <ele>36.3</ele>
        <time>2014-06-16T20:38:37Z</time>
      </trkpt>
      <trkpt lat="48.87913" lon="2.3024">
        <ele>36.4</ele>
        <time>2014-06-16T20:38:39Z</time>
      </trkpt>
      <trkpt lat="48.87915" lon="2.30258">
        <ele>36.3</ele>
        <time>2014-06-16T20:38:42Z</time>
      </trkpt>
      <trkpt lat="48.87915" lon="2.30273">
        <ele>36.1</ele>
        <time>2014-06-16T20:38:44Z</time>
      </trkpt>
      <trkpt lat="48.87917" lon="2.30287">
        <ele>36.8</ele>
        <time>2014-06-16T20:38:47Z</time>
      </trkpt>
      <trkpt lat="48.87921" lon="2.30302">
        <ele>36.9</ele>
        <time>2014-06-16T20:38:51Z</time>
      </trkpt>
      <trkpt lat="48.87926" lon="2.30317">
        <ele>37.6</ele>
        <time>2014-06-16T20:38:55Z</time>
      </trkpt>
      <trkpt lat="48.87931" lon="2.30334">
        <ele>38</ele>
        <time>2014-06-16T20:38:58Z</time>
      </trkpt>
      <trkpt lat="48.87933" lon="2.3035">
        <ele>37.7</ele>
        <time>2014-06-16T20:39:01Z</time>
      </trkpt>
      <trkpt lat="48.87936" lon="2.30366">
        <ele>37</ele>
        <time>2014-06-16T20:39:04Z</time>
      </trkpt>
      <trkpt lat="48.8794" lon="2.30382">
        <ele>37.3</ele>
        <time>2014-06-16T20:39:07Z</time>
      </trkpt>
      <trkpt lat="48.87942" lon="2.30402">
        <ele>37.5</ele>
        <time>2014-06-16T20:39:10Z</time>
      </trkpt>
      <trkpt lat="48.87942" lon="2.30416">
        <ele>37.6</ele>
        <time>2014-06-16T20:39:12Z</time>
      </trkpt>
      <trkpt lat="48.87943" lon="2.30435">
        <ele>37.1</ele>
        <time>2014-06-16T20:39:15Z</time>
      </trkpt>
      <trkpt lat="48.87944" lon="2.3045">
        <ele>37.1</ele>
        <time>2014-06-16T20:39:18Z</time>
      </trkpt>
      <trkpt lat="48.87949" lon="2.30463">
        <ele>37.6</ele>
        <time>2014-06-16T20:39:22Z</time>
      </trkpt>
      <trkpt lat="48.87956" lon="2.30474">
        <ele>36.9</ele>
        <time>2014-06-16T20:39:26Z</time>
      </trkpt>
      <trkpt lat="48.87958" lon="2.30489">
        <ele>37.7</ele>
        <time>2014-06-16T20:39:30Z</time>
      </trkpt>
      <trkpt lat="48.87961" lon="2.30505">
        <ele>37.7</ele>
        <time>2014-06-16T20:39:35Z</time>
      </trkpt>
      <trkpt lat="48.87965" lon="2.30521">
        <ele>38.5</ele>
        <time>2014-06-16T20:39:39Z</time>
      </trkpt>
      <trkpt lat="48.8797" lon="2.30533">
        <ele>38.2</ele>
        <time>2014-06-16T20:39:43Z</time>
      </trkpt>
      <trkpt lat="48.87977" lon="2.30546">
        <ele>38.4</ele>
        <time>2014-06-16T20:39:47Z</time>
      </trkpt>
      <trkpt lat="48.8798" lon="2.30559">
        <ele>39</ele>
        <time>2014-06-16T20:39:50Z</time>
      </trkpt>
      <trkpt lat="48.87983" lon="2.30576">
        <ele>39</ele>
        <time>2014-06-16T20:39:53Z</time>
      </trkpt>
      <trkpt lat="48.87985" lon="2.30593">
        <ele>38.4</ele>
        <time>2014-06-16T20:39:56Z</time>
      </trkpt>
      <trkpt lat="48.87988" lon="2.30608">
        <ele>38.9</ele>
        <time>2014-06-16T20:39:59Z</time>
      </trkpt>
      <trkpt lat="48.87992" lon="2.30623">
        <ele>38.8</ele>
        <time>2014-06-16T20:40:02Z</time>
      </trkpt>
      <trkpt lat="48.87994" lon="2.30639">
        <ele>38.9</ele>
        <time>2014-06-16T20:40:05Z</time>
      </trkpt>
      <trkpt lat="48.87997" lon="2.30657">
        <ele>38.6</ele>
        <time>2014-06-16T20:40:08Z</time>
      </trkpt>
      <trkpt lat="48.87998" lon="2.30676">
        <ele>38.7</ele>
        <time>2014-06-16T20:40:11Z</time>
      </trkpt>
      <trkpt lat="48.88" lon="2.30692">
        <ele>38.3</ele>
        <time>2014-06-16T20:40:13Z</time>
      </trkpt>
      <trkpt lat="48.88001" lon="2.30709">
        <ele>38.9</ele>
        <time>2014-06-16T20:40:15Z</time>
      </trkpt>
      <trkpt lat="48.88001" lon="2.30728">
        <ele>39.3</ele>
        <time>2014-06-16T20:40:17Z</time>
      </trkpt>
      <trkpt lat="48.88002" lon="2.30744">
        <ele>39.1</ele>
        <time>2014-06-16T20:40:19Z</time>
      </trkpt>
      <trkpt lat="48.88004" lon="2.30763">
        <ele>38.9</ele>
        <time>2014-06-16T20:40:22Z</time>
      </trkpt>
      <trkpt lat="48.88007" lon="2.30781">
        <ele>38.7</ele>
        <time>2014-06-16T20:40:25Z</time>
      </trkpt>
      <trkpt lat="48.8801" lon="2.30794">
        <ele>39.9</ele>
        <time>2014-06-16T20:40:28Z</time>
      </trkpt>
      <trkpt lat="48.88014" lon="2.30808">
        <ele>39.9</ele>
        <time>2014-06-16T20:40:31Z</time>
      </trkpt>
      <trkpt lat="48.88018" lon="2.30821">
        <ele>40.3</ele>
        <time>2014-06-16T20:40:34Z</time>
      </trkpt>
      <trkpt lat="48.88021" lon="2.30835">
        <ele>40.1</ele>
        <time>2014-06-16T20:40:38Z</time>
      </trkpt>
      <trkpt lat="48.88027" lon="2.3085">
        <ele>41</ele>
        <time>2014-06-16T20:40:42Z</time>
      </trkpt>
      <trkpt lat="48.88029" lon="2.30869">
        <ele>40.7</ele>
        <time>2014-06-16T20:40:46Z</time>
      </trkpt>
      <trkpt lat="48.88031" lon="2.30882">
        <ele>40.1</ele>
        <time>2014-06-16T20:40:49Z</time>
      </trkpt>
      <trkpt lat="48.88033" lon="2.30896">
        <ele>40.1</ele>
        <time>2014-06-16T20:40:52Z</time>
      </trkpt>
      <trkpt lat="48.88038" lon="2.30911">
        <ele>40.6</ele>
        <time>2014-06-16T20:40:57Z</time>
      </trkpt>
      <trkpt lat="48.88043" lon="2.30925">
        <ele>40.1</ele>
        <time>2014-06-16T20:41:00Z</time>
      </trkpt>
      <trkpt lat="48.88048" lon="2.3094">
        <ele>40.8</ele>
        <time>2014-06-16T20:41:04Z</time>
      </trkpt>
      <trkpt lat="48.8805" lon="2.30954">
        <ele>40.7</ele>
        <time>2014-06-16T20:41:07Z</time>
      </trkpt>
      <trkpt lat="48.88053" lon="2.30973">
        <ele>40.5</ele>
        <time>2014-06-16T20:41:10Z</time>
      </trkpt>
      <trkpt lat="48.88054" lon="2.30993">
        <ele>40.4</ele>
        <time>2014-06-16T20:41:13Z</time>
      </trkpt>
      <trkpt lat="48.88055" lon="2.31008">
        <ele>40.8</ele>
        <time>2014-06-16T20:41:16Z</time>
      </trkpt>
      <trkpt lat="48.88056" lon="2.31022">
        <ele>40.7</ele>
        <time>2014-06-16T20:41:19Z</time>
      </trkpt>
      <trkpt lat="48.88059" lon="2.31038">
        <ele>41.7</ele>
        <time>2014-06-16T20:41:23Z</time>
      </trkpt>
      <trkpt lat="48.88061" lon="2.31052">
        <ele>41.5</ele>
        <time>2014-06-16T20:41:27Z</time>
      </trkpt>
      <trkpt lat="48.88064" lon="2.31069">
        <ele>41.9</ele>
        <time>2014-06-16T20:41:31Z</time>
      </trkpt>
      <trkpt lat="48.88068" lon="2.31082">
        <ele>41.9</ele>
        <time>2014-06-16T20:41:34Z</time>
      </trkpt>
      <trkpt lat="48.88071" lon="2.31096">
        <ele>41.9</ele>
        <time>2014-06-16T20:41:36Z</time>
      </trkpt>
      <trkpt lat="48.88074" lon="2.31114">
        <ele>42.7</ele>
        <time>2014-06-16T20:41:39Z</time>
      </trkpt>
      <trkpt lat="48.88077" lon="2.31131">
        <ele>42.6</ele>
        <time>2014-06-16T20:41:42Z</time>
      </trkpt>
      <trkpt lat="48.88077" lon="2.31146">
        <ele>43.2</ele>
        <time>2014-06-16T20:41:45Z</time>
      </trkpt>
      <trkpt lat="48.88078" lon="2.3116">
        <ele>43.1</ele>
        <time>2014-06-16T20:41:48Z</time>
      </trkpt>
      <trkpt lat="48.88078" lon="2.31175">
        <ele>43.2</ele>
        <time>2014-06-16T20:41:52Z</time>
      </trkpt>
      <trkpt lat="48.88078" lon="2.31191">
        <ele>43.7</ele>
        <time>2014-06-16T20:41:56Z</time>
      </trkpt>
      <trkpt lat="48.88078" lon="2.31206">
        <ele>43.7</ele>
        <time>2014-06-16T20:42:00Z</time>
      </trkpt>
      <trkpt lat="48.88079" lon="2.31222">
        <ele>44.1</ele>
        <time>2014-06-16T20:42:04Z</time>
      </trkpt>
      <trkpt lat="48.88079" lon="2.31236">
        <ele>44.6</ele>
        <time>2014-06-16T20:42:09Z</time>
      </trkpt>
      <trkpt lat="48.88079" lon="2.31253">
        <ele>43.8</ele>
        <time>2014-06-16T20:42:15Z</time>
      </trkpt>
      <trkpt lat="48.88081" lon="2.31267">
        <ele>43.7</ele>
        <time>2014-06-16T20:42:20Z</time>
      </trkpt>
      <trkpt lat="48.88088" lon="2.31278">
        <ele>44.5</ele>
        <time>2014-06-16T20:42:26Z</time>
      </trkpt>
      <trkpt lat="48.88089" lon="2.31293">
        <ele>45.2</ele>
        <time>2014-06-16T20:42:30Z</time>
      </trkpt>
      <trkpt lat="48.88091" lon="2.31308">
        <ele>45.3</ele>
        <time>2014-06-16T20:42:33Z</time>
      </trkpt>
      <trkpt lat="48.88092" lon="2.31322">
        <ele>46</ele>
        <time>2014-06-16T20:42:36Z</time>
      </trkpt>
      <trkpt lat="48.88094" lon="2.31341">
        <ele>46</ele>
        <time>2014-06-16T20:42:40Z</time>
      </trkpt>
      <trkpt lat="48.88098" lon="2.31354">
        <ele>45.2</ele>
        <time>2014-06-16T20:42:43Z</time>
      </trkpt>
      <trkpt lat="48.88101" lon="2.31368">
        <ele>45.8</ele>
        <time>2014-06-16T20:42:46Z</time>
      </trkpt>
      <trkpt lat="48.88103" lon="2.31384">
        <ele>46.1</ele>
        <time>2014-06-16T20:42:49Z</time>
      </trkpt>
      <trkpt lat="48.88107" lon="2.31398">
        <ele>46.8</ele>
        <time>2014-06-16T20:42:52Z</time>
      </trkpt>
      <trkpt lat="48.8811" lon="2.31415">
        <ele>46.4</ele>
        <time>2014-06-16T20:42:56Z</time>
      </trkpt>
      <trkpt lat="48.88111" lon="2.3143">
        <ele>46.5</ele>
        <time>2014-06-16T20:42:59Z</time>
      </trkpt>
      <trkpt lat="48.88114" lon="2.31444">
        <ele>47.5</ele>
        <time>2014-06-16T20:43:03Z</time>
      </trkpt>
      <trkpt lat="48.88116" lon="2.3146">
        <ele>48</ele>
        <time>2014-06-16T20:43:06Z</time>
      </trkpt>
      <trkpt lat="48.88119" lon="2.31475">
        <ele>48.8</ele>
        <time>2014-06-16T20:43:10Z</time>
      </trkpt>
      <trkpt lat="48.88124" lon="2.3149">
        <ele>48.8</ele>
        <time>2014-06-16T20:43:14Z</time>
      </trkpt>
      <trkpt lat="48.88135" lon="2.31497">
        <ele>48.8</ele>
        <time>2014-06-16T20:43:18Z</time>
      </trkpt>
      <trkpt lat="48.88136" lon="2.31512">
        <ele>48.5</ele>
        <time>2014-06-16T20:43:21Z</time>
      </trkpt>
      <trkpt lat="48.88136" lon="2.31529">
        <ele>49.3</ele>
        <time>2014-06-16T20:43:24Z</time>
      </trkpt>
      <trkpt lat="48.88137" lon="2.31543">
        <ele>49.2</ele>
        <time>2014-06-16T20:43:27Z</time>
      </trkpt>
      <trkpt lat="48.88137" lon="2.31559">
        <ele>49.2</ele>
        <time>2014-06-16T20:43:30Z</time>
      </trkpt>
      <trkpt lat="48.88138" lon="2.31573">
        <ele>49.4</ele>
        <time>2014-06-16T20:43:33Z</time>
      </trkpt>
      <trkpt lat="48.88138" lon="2.31588">
        <ele>49.9</ele>
        <time>2014-06-16T20:43:36Z</time>
      </trkpt>
      <trkpt lat="48.88137" lon="2.31604">
        <ele>49.4</ele>
        <time>2014-06-16T20:43:40Z</time>
      </trkpt>
      <trkpt lat="48.88134" lon="2.31618">
        <ele>49.8</ele>
        <time>2014-06-16T20:43:44Z</time>
      </trkpt>
      <trkpt lat="48.88128" lon="2.31632">
        <ele>50.4</ele>
        <time>2014-06-16T20:43:48Z</time>
      </trkpt>
      <trkpt lat="48.88121" lon="2.31642">
        <ele>50.5</ele>
        <time>2014-06-16T20:43:51Z</time>
      </trkpt>
      <trkpt lat="48.88114" lon="2.31652">
        <ele>51.3</ele>
        <time>2014-06-16T20:43:54Z</time>
      </trkpt>
      <trkpt lat="48.88106" lon="2.31663">
        <ele>51.3</ele>
        <time>2014-06-16T20:43:57Z</time>
      </trkpt>
      <trkpt lat="48.88095" lon="2.31674">
        <ele>51.4</ele>
        <time>2014-06-16T20:44:00Z</time>
      </trkpt>
      <trkpt lat="48.88087" lon="2.31684">
        <ele>50.8</ele>
        <time>2014-06-16T20:44:03Z</time>
      </trkpt>
      <trkpt lat="48.88078" lon="2.31692">
        <ele>51.4</ele>
        <time>2014-06-16T20:44:06Z</time>
      </trkpt>
      <trkpt lat="48.88069" lon="2.31703">
        <ele>51.4</ele>
        <time>2014-06-16T20:44:09Z</time>
      </trkpt>
      <trkpt lat="48.88062" lon="2.31714">
        <ele>51.3</ele>
        <time>2014-06-16T20:44:12Z</time>
      </trkpt>
      <trkpt lat="48.88052" lon="2.31724">
        <ele>51.3</ele>
        <time>2014-06-16T20:44:16Z</time>
      </trkpt>
      <trkpt lat="48.88043" lon="2.31733">
        <ele>51.2</ele>
        <time>2014-06-16T20:44:19Z</time>
      </trkpt>
      <trkpt lat="48.88034" lon="2.31743">
        <ele>51.1</ele>
        <time>2014-06-16T20:44:22Z</time>
      </trkpt>
      <trkpt lat="48.88024" lon="2.31752">
        <ele>51.4</ele>
        <time>2014-06-16T20:44:25Z</time>
      </trkpt>
      <trkpt lat="48.88012" lon="2.31762">
        <ele>51</ele>
        <time>2014-06-16T20:44:28Z</time>
      </trkpt>
      <trkpt lat="48.88002" lon="2.31768">
        <ele>51.2</ele>
        <time>2014-06-16T20:44:30Z</time>
      </trkpt>
      <trkpt lat="48.87995" lon="2.31777">
        <ele>51.9</ele>
        <time>2014-06-16T20:44:32Z</time>
      </trkpt>
      <trkpt lat="48.87987" lon="2.31786">
        <ele>51.9</ele>
        <time>2014-06-16T20:44:34Z</time>
      </trkpt>
      <trkpt lat="48.87982" lon="2.31799">
        <ele>51.5</ele>
        <time>2014-06-16T20:44:37Z</time>
      </trkpt>
      <trkpt lat="48.87974" lon="2.31812">
        <ele>51.9</ele>
        <time>2014-06-16T20:44:40Z</time>
      </trkpt>
      <trkpt lat="48.87966" lon="2.31821">
        <ele>51.6</ele>
        <time>2014-06-16T20:44:43Z</time>
      </trkpt>
      <trkpt lat="48.87958" lon="2.31829">
        <ele>51.6</ele>
        <time>2014-06-16T20:44:45Z</time>
      </trkpt>
      <trkpt lat="48.8795" lon="2.3184">
        <ele>51.8</ele>
        <time>2014-06-16T20:44:47Z</time>
      </trkpt>
      <trkpt lat="48.87941" lon="2.31853">
        <ele>51.9</ele>
        <time>2014-06-16T20:44:49Z</time>
      </trkpt>
      <trkpt lat="48.87931" lon="2.31864">
        <ele>52.1</ele>
        <time>2014-06-16T20:44:51Z</time>
      </trkpt>
      <trkpt lat="48.87922" lon="2.31874">
        <ele>51.7</ele>
        <time>2014-06-16T20:44:53Z</time>
      </trkpt>
      <trkpt lat="48.87914" lon="2.31882">
        <ele>51.5</ele>
        <time>2014-06-16T20:44:55Z</time>
      </trkpt>
      <trkpt lat="48.87906" lon="2.31892">
        <ele>51.2</ele>
        <time>2014-06-16T20:44:57Z</time>
      </trkpt>
      <trkpt lat="48.87893" lon="2.319">
        <ele>50.8</ele>
        <time>2014-06-16T20:45:00Z</time>
      </trkpt>
      <trkpt lat="48.87885" lon="2.31906">
        <ele>50.7</ele>
        <time>2014-06-16T20:45:02Z</time>
      </trkpt>
      <trkpt lat="48.87875" lon="2.31917">
        <ele>51</ele>
        <time>2014-06-16T20:45:04Z</time>
      </trkpt>
      <trkpt lat="48.87865" lon="2.31929">
        <ele>51.3</ele>
        <time>2014-06-16T20:45:06Z</time>
      </trkpt>
      <trkpt lat="48.87857" lon="2.3194">
        <ele>51.3</ele>
        <time>2014-06-16T20:45:08Z</time>
      </trkpt>
      <trkpt lat="48.87848" lon="2.31952">
        <ele>51.3</ele>
        <time>2014-06-16T20:45:10Z</time>
      </trkpt>
      <trkpt lat="48.87839" lon="2.31966">
        <ele>50.7</ele>
        <time>2014-06-16T20:45:12Z</time>
      </trkpt>
      <trkpt lat="48.87833" lon="2.31979">
        <ele>50.7</ele>
        <time>2014-06-16T20:45:14Z</time>
      </trkpt>
      <trkpt lat="48.87826" lon="2.3199">
        <ele>50.2</ele>
        <time>2014-06-16T20:45:16Z</time>
      </trkpt>
      <trkpt lat="48.87818" lon="2.32003">
        <ele>50.4</ele>
        <time>2014-06-16T20:45:19Z</time>
      </trkpt>
      <trkpt lat="48.87808" lon="2.32014">
        <ele>49.8</ele>
        <time>2014-06-16T20:45:22Z</time>
      </trkpt>
      <trkpt lat="48.87801" lon="2.32023">
        <ele>49.5</ele>
        <time>2014-06-16T20:45:24Z</time>
      </trkpt>
      <trkpt lat="48.87791" lon="2.32036">
        <ele>49.1</ele>
        <time>2014-06-16T20:45:27Z</time>
      </trkpt>
      <trkpt lat="48.87784" lon="2.32044">
        <ele>49</ele>
        <time>2014-06-16T20:45:29Z</time>
      </trkpt>
      <trkpt lat="48.87776" lon="2.32053">
        <ele>48.4</ele>
        <time>2014-06-16T20:45:32Z</time>
      </trkpt>
      <trkpt lat="48.87768" lon="2.32064">
        <ele>47.5</ele>
        <time>2014-06-16T20:45:36Z</time>
      </trkpt>
      <trkpt lat="48.87758" lon="2.32075">
        <ele>47.8</ele>
        <time>2014-06-16T20:45:39Z</time>
      </trkpt>
      <trkpt lat="48.8775" lon="2.32087">
        <ele>47.2</ele>
        <time>2014-06-16T20:45:42Z</time>
      </trkpt>
      <trkpt lat="48.87742" lon="2.32095">
        <ele>45.6</ele>
        <time>2014-06-16T20:45:45Z</time>
      </trkpt>
      <trkpt lat="48.87734" lon="2.32107">
        <ele>45.9</ele>
        <time>2014-06-16T20:45:48Z</time>
      </trkpt>
      <trkpt lat="48.87727" lon="2.32117">
        <ele>45.4</ele>
        <time>2014-06-16T20:45:51Z</time>
      </trkpt>
      <trkpt lat="48.87719" lon="2.32126">
        <ele>44.3</ele>
        <time>2014-06-16T20:45:55Z</time>
      </trkpt>
      <trkpt lat="48.87711" lon="2.32137">
        <ele>43.7</ele>
        <time>2014-06-16T20:45:58Z</time>
      </trkpt>
      <trkpt lat="48.87707" lon="2.3215">
        <ele>43.3</ele>
        <time>2014-06-16T20:46:02Z</time>
      </trkpt>
      <trkpt lat="48.87701" lon="2.32161">
        <ele>42.4</ele>
        <time>2014-06-16T20:46:06Z</time>
      </trkpt>
      <trkpt lat="48.87694" lon="2.3217">
        <ele>42.2</ele>
        <time>2014-06-16T20:46:09Z</time>
      </trkpt>
      <trkpt lat="48.87685" lon="2.3218">
        <ele>40.6</ele>
        <time>2014-06-16T20:46:13Z</time>
      </trkpt>
      <trkpt lat="48.87675" lon="2.3219">
        <ele>40.7</ele>
        <time>2014-06-16T20:46:16Z</time>
      </trkpt>
      <trkpt lat="48.87665" lon="2.32201">
        <ele>39.9</ele>
        <time>2014-06-16T20:46:19Z</time>
      </trkpt>
      <trkpt lat="48.87655" lon="2.3221">
        <ele>39.2</ele>
        <time>2014-06-16T20:46:22Z</time>
      </trkpt>
      <trkpt lat="48.87644" lon="2.32223">
        <ele>39.2</ele>
        <time>2014-06-16T20:46:25Z</time>
      </trkpt>
      <trkpt lat="48.87637" lon="2.32234">
        <ele>39.1</ele>
        <time>2014-06-16T20:46:27Z</time>
      </trkpt>
      <trkpt lat="48.87629" lon="2.32242">
        <ele>38.4</ele>
        <time>2014-06-16T20:46:29Z</time>
      </trkpt>
      <trkpt lat="48.87621" lon="2.32249">
        <ele>37.7</ele>
        <time>2014-06-16T20:46:31Z</time>
      </trkpt>
      <trkpt lat="48.87611" lon="2.32257">
        <ele>37.5</ele>
        <time>2014-06-16T20:46:35Z</time>
      </trkpt>
      <trkpt lat="48.87603" lon="2.32265">
        <ele>37.2</ele>
        <time>2014-06-16T20:46:38Z</time>
      </trkpt>
      <trkpt lat="48.87594" lon="2.32269">
        <ele>36.9</ele>
        <time>2014-06-16T20:46:41Z</time>
      </trkpt>
      <trkpt lat="48.87584" lon="2.32271">
        <ele>36</ele>
        <time>2014-06-16T20:46:44Z</time>
      </trkpt>
      <trkpt lat="48.87573" lon="2.32276">
        <ele>35.4</ele>
        <time>2014-06-16T20:46:47Z</time>
      </trkpt>
      <trkpt lat="48.87564" lon="2.32281">
        <ele>35</ele>
        <time>2014-06-16T20:46:50Z</time>
      </trkpt>
      <trkpt lat="48.87555" lon="2.32285">
        <ele>35.4</ele>
        <time>2014-06-16T20:46:53Z</time>
      </trkpt>
      <trkpt lat="48.87546" lon="2.32288">
        <ele>35.1</ele>
        <time>2014-06-16T20:46:57Z</time>
      </trkpt>
      <trkpt lat="48.87536" lon="2.32291">
        <ele>34</ele>
        <time>2014-06-16T20:47:04Z</time>
      </trkpt>
      <trkpt lat="48.87527" lon="2.3229">
        <ele>34.5</ele>
        <time>2014-06-16T20:47:16Z</time>
      </trkpt>
      <trkpt lat="48.87518" lon="2.32294">
        <ele>34.6</ele>
        <time>2014-06-16T20:47:24Z</time>
      </trkpt>
      <trkpt lat="48.87509" lon="2.32299">
        <ele>34.9</ele>
        <time>2014-06-16T20:47:30Z</time>
      </trkpt>
      <trkpt lat="48.87498" lon="2.32296">
        <ele>34.4</ele>
        <time>2014-06-16T20:47:35Z</time>
      </trkpt>
      <trkpt lat="48.87488" lon="2.32293">
        <ele>34.1</ele>
        <time>2014-06-16T20:47:38Z</time>
      </trkpt>
      <trkpt lat="48.87478" lon="2.32289">
        <ele>34.5</ele>
        <time>2014-06-16T20:47:41Z</time>
      </trkpt>
      <trkpt lat="48.87468" lon="2.32285">
        <ele>34.8</ele>
        <time>2014-06-16T20:47:45Z</time>
      </trkpt>
      <trkpt lat="48.87459" lon="2.32281">
        <ele>34.4</ele>
        <time>2014-06-16T20:47:49Z</time>
      </trkpt>
      <trkpt lat="48.87449" lon="2.32277">
        <ele>35</ele>
        <time>2014-06-16T20:47:53Z</time>
      </trkpt>
      <trkpt lat="48.87438" lon="2.32274">
        <ele>35.2</ele>
        <time>2014-06-16T20:47:56Z</time>
      </trkpt>
      <trkpt lat="48.87425" lon="2.32271">
        <ele>35</ele>
        <time>2014-06-16T20:47:59Z</time>
      </trkpt>
      <trkpt lat="48.87412" lon="2.32266">
        <ele>34.9</ele>
        <time>2014-06-16T20:48:02Z</time>
      </trkpt>
      <trkpt lat="48.874" lon="2.32265">
        <ele>35</ele>
        <time>2014-06-16T20:48:05Z</time>
      </trkpt>
      <trkpt lat="48.8739" lon="2.32263">
        <ele>34.7</ele>
        <time>2014-06-16T20:48:08Z</time>
      </trkpt>
      <trkpt lat="48.8738" lon="2.32261">
        <ele>34.2</ele>
        <time>2014-06-16T20:48:11Z</time>
      </trkpt>
      <trkpt lat="48.87371" lon="2.32257">
        <ele>33.8</ele>
        <time>2014-06-16T20:48:14Z</time>
      </trkpt>
      <trkpt lat="48.87359" lon="2.32252">
        <ele>34.3</ele>
        <time>2014-06-16T20:48:17Z</time>
      </trkpt>
      <trkpt lat="48.87346" lon="2.32249">
        <ele>34.6</ele>
        <time>2014-06-16T20:48:20Z</time>
      </trkpt>
      <trkpt lat="48.87336" lon="2.32247">
        <ele>35.1</ele>
        <time>2014-06-16T20:48:22Z</time>
      </trkpt>
      <trkpt lat="48.87327" lon="2.32244">
        <ele>35.6</ele>
        <time>2014-06-16T20:48:24Z</time>
      </trkpt>
      <trkpt lat="48.87318" lon="2.32242">
        <ele>35.4</ele>
        <time>2014-06-16T20:48:26Z</time>
      </trkpt>
      <trkpt lat="48.87307" lon="2.32235">
        <ele>35.9</ele>
        <time>2014-06-16T20:48:29Z</time>
      </trkpt>
      <trkpt lat="48.87296" lon="2.32228">
        <ele>36.3</ele>
        <time>2014-06-16T20:48:32Z</time>
      </trkpt>
      <trkpt lat="48.87284" lon="2.32225">
        <ele>36.2</ele>
        <time>2014-06-16T20:48:35Z</time>
      </trkpt>
      <trkpt lat="48.87273" lon="2.32222">
        <ele>36.2</ele>
        <time>2014-06-16T20:48:38Z</time>
      </trkpt>
      <trkpt lat="48.87262" lon="2.32218">
        <ele>37</ele>
        <time>2014-06-16T20:48:41Z</time>
      </trkpt>
      <trkpt lat="48.87253" lon="2.32216">
        <ele>37</ele>
        <time>2014-06-16T20:48:44Z</time>
      </trkpt>
      <trkpt lat="48.87242" lon="2.32213">
        <ele>36.2</ele>
        <time>2014-06-16T20:48:48Z</time>
      </trkpt>
      <trkpt lat="48.87234" lon="2.32205">
        <ele>36.4</ele>
        <time>2014-06-16T20:48:55Z</time>
      </trkpt>
      <trkpt lat="48.87223" lon="2.32204">
        <ele>36.9</ele>
        <time>2014-06-16T20:48:59Z</time>
      </trkpt>
      <trkpt lat="48.87211" lon="2.32205">
        <ele>37.6</ele>
        <time>2014-06-16T20:49:03Z</time>
      </trkpt>
      <trkpt lat="48.872" lon="2.32207">
        <ele>36.5</ele>
        <time>2014-06-16T20:49:07Z</time>
      </trkpt>
      <trkpt lat="48.87191" lon="2.32206">
        <ele>37.1</ele>
        <time>2014-06-16T20:49:10Z</time>
      </trkpt>
      <trkpt lat="48.87179" lon="2.32208">
        <ele>36.3</ele>
        <time>2014-06-16T20:49:14Z</time>
      </trkpt>
      <trkpt lat="48.8717" lon="2.32213">
        <ele>36.3</ele>
        <time>2014-06-16T20:49:18Z</time>
      </trkpt>
      <trkpt lat="48.8716" lon="2.32217">
        <ele>37.1</ele>
        <time>2014-06-16T20:49:22Z</time>
      </trkpt>
      <trkpt lat="48.8715" lon="2.32224">
        <ele>37.7</ele>
        <time>2014-06-16T20:49:25Z</time>
      </trkpt>
      <trkpt lat="48.87141" lon="2.3223">
        <ele>37.7</ele>
        <time>2014-06-16T20:49:28Z</time>
      </trkpt>
      <trkpt lat="48.87133" lon="2.32238">
        <ele>37.6</ele>
        <time>2014-06-16T20:49:31Z</time>
      </trkpt>
      <trkpt lat="48.87123" lon="2.32247">
        <ele>37.7</ele>
        <time>2014-06-16T20:49:34Z</time>
      </trkpt>
      <trkpt lat="48.87114" lon="2.32255">
        <ele>37.7</ele>
        <time>2014-06-16T20:49:37Z</time>
      </trkpt>
      <trkpt lat="48.87105" lon="2.32264">
        <ele>38</ele>
        <time>2014-06-16T20:49:41Z</time>
      </trkpt>
      <trkpt lat="48.87096" lon="2.32271">
        <ele>38.3</ele>
        <time>2014-06-16T20:49:44Z</time>
      </trkpt>
      <trkpt lat="48.87088" lon="2.32281">
        <ele>38.8</ele>
        <time>2014-06-16T20:49:47Z</time>
      </trkpt>
      <trkpt lat="48.87079" lon="2.3229">
        <ele>38.2</ele>
        <time>2014-06-16T20:49:50Z</time>
      </trkpt>
      <trkpt lat="48.8707" lon="2.3229">
        <ele>37.8</ele>
        <time>2014-06-16T20:49:53Z</time>
      </trkpt>
      <trkpt lat="48.8706" lon="2.32289">
        <ele>38.1</ele>
        <time>2014-06-16T20:49:56Z</time>
      </trkpt>
      <trkpt lat="48.87048" lon="2.32287">
        <ele>37.6</ele>
        <time>2014-06-16T20:49:59Z</time>
      </trkpt>
      <trkpt lat="48.87038" lon="2.32283">
        <ele>37.1</ele>
        <time>2014-06-16T20:50:02Z</time>
      </trkpt>
      <trkpt lat="48.87027" lon="2.32279">
        <ele>37.3</ele>
        <time>2014-06-16T20:50:05Z</time>
      </trkpt>
      <trkpt lat="48.87017" lon="2.32274">
        <ele>37.5</ele>
        <time>2014-06-16T20:50:08Z</time>
      </trkpt>
      <trkpt lat="48.87007" lon="2.32266">
        <ele>38</ele>
        <time>2014-06-16T20:50:11Z</time>
      </trkpt>
      <trkpt lat="48.86998" lon="2.3226">
        <ele>38.5</ele>
        <time>2014-06-16T20:50:14Z</time>
      </trkpt>
      <trkpt lat="48.8699" lon="2.32255">
        <ele>37.9</ele>
        <time>2014-06-16T20:50:17Z</time>
      </trkpt>
      <trkpt lat="48.86981" lon="2.32249">
        <ele>38.2</ele>
        <time>2014-06-16T20:50:20Z</time>
      </trkpt>
      <trkpt lat="48.86972" lon="2.32242">
        <ele>38.1</ele>
        <time>2014-06-16T20:50:23Z</time>
      </trkpt>
      <trkpt lat="48.86962" lon="2.32237">
        <ele>37.4</ele>
        <time>2014-06-16T20:50:26Z</time>
      </trkpt>
      <trkpt lat="48.86952" lon="2.32232">
        <ele>37.5</ele>
        <time>2014-06-16T20:50:29Z</time>
      </trkpt>
      <trkpt lat="48.86941" lon="2.32223">
        <ele>37.7</ele>
        <time>2014-06-16T20:50:32Z</time>
      </trkpt>
      <trkpt lat="48.86928" lon="2.32215">
        <ele>37.7</ele>
        <time>2014-06-16T20:50:35Z</time>
      </trkpt>
      <trkpt lat="48.86918" lon="2.32208">
        <ele>37.5</ele>
        <time>2014-06-16T20:50:38Z</time>
      </trkpt>
      <trkpt lat="48.86908" lon="2.32202">
        <ele>37.9</ele>
        <time>2014-06-16T20:50:41Z</time>
      </trkpt>
      <trkpt lat="48.86898" lon="2.32198">
        <ele>36.9</ele>
        <time>2014-06-16T20:50:44Z</time>
      </trkpt>
      <trkpt lat="48.86888" lon="2.32201">
        <ele>37.5</ele>
        <time>2014-06-16T20:50:48Z</time>
      </trkpt>
      <trkpt lat="48.86881" lon="2.32214">
        <ele>38.2</ele>
        <time>2014-06-16T20:50:51Z</time>
      </trkpt>
      <trkpt lat="48.86875" lon="2.32231">
        <ele>38.2</ele>
        <time>2014-06-16T20:50:54Z</time>
      </trkpt>
      <trkpt lat="48.86869" lon="2.32248">
        <ele>38</ele>
        <time>2014-06-16T20:50:57Z</time>
      </trkpt>
      <trkpt lat="48.86865" lon="2.32262">
        <ele>37.6</ele>
        <time>2014-06-16T20:50:59Z</time>
      </trkpt>
      <trkpt lat="48.86859" lon="2.32278">
        <ele>38.1</ele>
        <time>2014-06-16T20:51:02Z</time>
      </trkpt>
      <trkpt lat="48.86854" lon="2.32292">
        <ele>38.3</ele>
        <time>2014-06-16T20:51:06Z</time>
      </trkpt>
      <trkpt lat="48.86849" lon="2.32305">
        <ele>38.9</ele>
        <time>2014-06-16T20:51:12Z</time>
      </trkpt>
      <trkpt lat="48.86844" lon="2.32317">
        <ele>38.4</ele>
        <time>2014-06-16T20:51:21Z</time>
      </trkpt>
      <trkpt lat="48.86838" lon="2.32328">
        <ele>39.5</ele>
        <time>2014-06-16T20:51:35Z</time>
      </trkpt>
      <trkpt lat="48.86832" lon="2.32339">
        <ele>40</ele>
        <time>2014-06-16T20:51:49Z</time>
      </trkpt>
      <trkpt lat="48.86828" lon="2.32353">
        <ele>40</ele>
        <time>2014-06-16T20:51:53Z</time>
      </trkpt>
      <trkpt lat="48.86822" lon="2.32366">
        <ele>39.2</ele>
        <time>2014-06-16T20:51:57Z</time>
      </trkpt>
      <trkpt lat="48.86817" lon="2.32379">
        <ele>38.7</ele>
        <time>2014-06-16T20:52:00Z</time>
      </trkpt>
      <trkpt lat="48.86813" lon="2.32393">
        <ele>38.5</ele>
        <time>2014-06-16T20:52:03Z</time>
      </trkpt>
      <trkpt lat="48.86807" lon="2.32409">
        <ele>38.2</ele>
        <time>2014-06-16T20:52:07Z</time>
      </trkpt>
      <trkpt lat="48.86802" lon="2.32422">
        <ele>37.8</ele>
        <time>2014-06-16T20:52:10Z</time>
      </trkpt>
      <trkpt lat="48.86798" lon="2.32434">
        <ele>38.9</ele>
        <time>2014-06-16T20:52:13Z</time>
      </trkpt>
      <trkpt lat="48.86793" lon="2.32448">
        <ele>39</ele>
        <time>2014-06-16T20:52:16Z</time>
      </trkpt>
      <trkpt lat="48.86789" lon="2.32466">
        <ele>39</ele>
        <time>2014-06-16T20:52:19Z</time>
      </trkpt>
      <trkpt lat="48.86784" lon="2.32483">
        <ele>38.7</ele>
        <time>2014-06-16T20:52:22Z</time>
      </trkpt>
      <trkpt lat="48.8678" lon="2.32497">
        <ele>38.6</ele>
        <time>2014-06-16T20:52:24Z</time>
      </trkpt>
      <trkpt lat="48.86774" lon="2.32513">
        <ele>37.7</ele>
        <time>2014-06-16T20:52:27Z</time>
      </trkpt>
      <trkpt lat="48.86769" lon="2.32526">
        <ele>37.7</ele>
        <time>2014-06-16T20:52:29Z</time>
      </trkpt>
      <trkpt lat="48.86763" lon="2.3254">
        <ele>37.3</ele>
        <time>2014-06-16T20:52:31Z</time>
      </trkpt>
      <trkpt lat="48.86759" lon="2.32554">
        <ele>37.8</ele>
        <time>2014-06-16T20:52:33Z</time>
      </trkpt>
      <trkpt lat="48.86755" lon="2.3257">
        <ele>38.4</ele>
        <time>2014-06-16T20:52:35Z</time>
      </trkpt>
      <trkpt lat="48.86749" lon="2.32584">
        <ele>38.9</ele>
        <time>2014-06-16T20:52:37Z</time>
      </trkpt>
      <trkpt lat="48.86744" lon="2.32599">
        <ele>38.9</ele>
        <time>2014-06-16T20:52:39Z</time>
      </trkpt>
      <trkpt lat="48.86739" lon="2.32615">
        <ele>38.7</ele>
        <time>2014-06-16T20:52:41Z</time>
      </trkpt>
      <trkpt lat="48.86733" lon="2.32632">
        <ele>38.7</ele>
        <time>2014-06-16T20:52:43Z</time>
      </trkpt>
      <trkpt lat="48.86729" lon="2.32649">
        <ele>38.7</ele>
        <time>2014-06-16T20:52:45Z</time>
      </trkpt>
      <trkpt lat="48.86724" lon="2.32664">
        <ele>38.8</ele>
        <time>2014-06-16T20:52:47Z</time>
      </trkpt>
      <trkpt lat="48.86719" lon="2.32679">
        <ele>39</ele>
        <time>2014-06-16T20:52:49Z</time>
      </trkpt>
      <trkpt lat="48.86716" lon="2.32693">
        <ele>39.2</ele>
        <time>2014-06-16T20:52:51Z</time>
      </trkpt>
      <trkpt lat="48.86711" lon="2.32706">
        <ele>39.3</ele>
        <time>2014-06-16T20:52:53Z</time>
      </trkpt>
      <trkpt lat="48.86706" lon="2.3272">
        <ele>38.9</ele>
        <time>2014-06-16T20:52:55Z</time>
      </trkpt>
      <trkpt lat="48.867" lon="2.32737">
        <ele>38.8</ele>
        <time>2014-06-16T20:52:58Z</time>
      </trkpt>
      <trkpt lat="48.86693" lon="2.32752">
        <ele>38.5</ele>
        <time>2014-06-16T20:53:01Z</time>
      </trkpt>
      <trkpt lat="48.86688" lon="2.32767">
        <ele>39.1</ele>
        <time>2014-06-16T20:53:04Z</time>
      </trkpt>
      <trkpt lat="48.86682" lon="2.32784">
        <ele>39</ele>
        <time>2014-06-16T20:53:07Z</time>
      </trkpt>
      <trkpt lat="48.86676" lon="2.32799">
        <ele>38.9</ele>
        <time>2014-06-16T20:53:10Z</time>
      </trkpt>
      <trkpt lat="48.8667" lon="2.32814">
        <ele>39.5</ele>
        <time>2014-06-16T20:53:14Z</time>
      </trkpt>
      <trkpt lat="48.86666" lon="2.32831">
        <ele>39.3</ele>
        <time>2014-06-16T20:53:19Z</time>
      </trkpt>
      <trkpt lat="48.86661" lon="2.32846">
        <ele>40</ele>
        <time>2014-06-16T20:53:22Z</time>
      </trkpt>
      <trkpt lat="48.86654" lon="2.32861">
        <ele>40.2</ele>
        <time>2014-06-16T20:53:25Z</time>
      </trkpt>
      <trkpt lat="48.86647" lon="2.32875">
        <ele>39.9</ele>
        <time>2014-06-16T20:53:28Z</time>
      </trkpt>
      <trkpt lat="48.86641" lon="2.32887">
        <ele>40</ele>
        <time>2014-06-16T20:53:30Z</time>
      </trkpt>
      <trkpt lat="48.86634" lon="2.32902">
        <ele>40.3</ele>
        <time>2014-06-16T20:53:32Z</time>
      </trkpt>
      <trkpt lat="48.86628" lon="2.32916">
        <ele>40.5</ele>
        <time>2014-06-16T20:53:34Z</time>
      </trkpt>
      <trkpt lat="48.86621" lon="2.3293">
        <ele>40.6</ele>
        <time>2014-06-16T20:53:36Z</time>
      </trkpt>
      <trkpt lat="48.86614" lon="2.32945">
        <ele>40.6</ele>
        <time>2014-06-16T20:53:38Z</time>
      </trkpt>
      <trkpt lat="48.86606" lon="2.32961">
        <ele>40.4</ele>
        <time>2014-06-16T20:53:40Z</time>
      </trkpt>
      <trkpt lat="48.86598" lon="2.32978">
        <ele>40.1</ele>
        <time>2014-06-16T20:53:42Z</time>
      </trkpt>
      <trkpt lat="48.86591" lon="2.32995">
        <ele>39.8</ele>
        <time>2014-06-16T20:53:44Z</time>
      </trkpt>
      <trkpt lat="48.86585" lon="2.33012">
        <ele>39.7</ele>
        <time>2014-06-16T20:53:46Z</time>
      </trkpt>
      <trkpt lat="48.86577" lon="2.33029">
        <ele>39.7</ele>
        <time>2014-06-16T20:53:48Z</time>
      </trkpt>
      <trkpt lat="48.86568" lon="2.33043">
        <ele>39.7</ele>
        <time>2014-06-16T20:53:50Z</time>
      </trkpt>
      <trkpt lat="48.8656" lon="2.33056">
        <ele>39.6</ele>
        <time>2014-06-16T20:53:52Z</time>
      </trkpt>
      <trkpt lat="48.86553" lon="2.3307">
        <ele>40.4</ele>
        <time>2014-06-16T20:53:54Z</time>
      </trkpt>
      <trkpt lat="48.86547" lon="2.33082">
        <ele>40</ele>
        <time>2014-06-16T20:53:56Z</time>
      </trkpt>
      <trkpt lat="48.8654" lon="2.33097">
        <ele>40</ele>
        <time>2014-06-16T20:53:58Z</time>
      </trkpt>
      <trkpt lat="48.86534" lon="2.33109">
        <ele>40.7</ele>
        <time>2014-06-16T20:54:00Z</time>
      </trkpt>
      <trkpt lat="48.86527" lon="2.3312">
        <ele>40.7</ele>
        <time>2014-06-16T20:54:02Z</time>
      </trkpt>
      <trkpt lat="48.86517" lon="2.33135">
        <ele>40.3</ele>
        <time>2014-06-16T20:54:05Z</time>
      </trkpt>
      <trkpt lat="48.8651" lon="2.33146">
        <ele>40.1</ele>
        <time>2014-06-16T20:54:07Z</time>
      </trkpt>
      <trkpt lat="48.86505" lon="2.33157">
        <ele>39.9</ele>
        <time>2014-06-16T20:54:09Z</time>
      </trkpt>
      <trkpt lat="48.86499" lon="2.33169">
        <ele>40.2</ele>
        <time>2014-06-16T20:54:11Z</time>
      </trkpt>
      <trkpt lat="48.86494" lon="2.33182">
        <ele>40.1</ele>
        <time>2014-06-16T20:54:13Z</time>
      </trkpt>
      <trkpt lat="48.86489" lon="2.33197">
        <ele>40.3</ele>
        <time>2014-06-16T20:54:15Z</time>
      </trkpt>
      <trkpt lat="48.86482" lon="2.33209">
        <ele>39.7</ele>
        <time>2014-06-16T20:54:17Z</time>
      </trkpt>
      <trkpt lat="48.86476" lon="2.33222">
        <ele>39.5</ele>
        <time>2014-06-16T20:54:19Z</time>
      </trkpt>
      <trkpt lat="48.8647" lon="2.33234">
        <ele>40.2</ele>
        <time>2014-06-16T20:54:21Z</time>
      </trkpt>
      <trkpt lat="48.86465" lon="2.33247">
        <ele>41</ele>
        <time>2014-06-16T20:54:23Z</time>
      </trkpt>
      <trkpt lat="48.86459" lon="2.33262">
        <ele>40.5</ele>
        <time>2014-06-16T20:54:25Z</time>
      </trkpt>
      <trkpt lat="48.86452" lon="2.33275">
        <ele>40.3</ele>
        <time>2014-06-16T20:54:27Z</time>
      </trkpt>
      <trkpt lat="48.86447" lon="2.33286">
        <ele>39.9</ele>
        <time>2014-06-16T20:54:29Z</time>
      </trkpt>
      <trkpt lat="48.8644" lon="2.33299">
        <ele>39.8</ele>
        <time>2014-06-16T20:54:31Z</time>
      </trkpt>
      <trkpt lat="48.86431" lon="2.33312">
        <ele>40</ele>
        <time>2014-06-16T20:54:33Z</time>
      </trkpt>
      <trkpt lat="48.86425" lon="2.33323">
        <ele>39.9</ele>
        <time>2014-06-16T20:54:35Z</time>
      </trkpt>
      <trkpt lat="48.86419" lon="2.33337">
        <ele>40</ele>
        <time>2014-06-16T20:54:38Z</time>
      </trkpt>
      <trkpt lat="48.86412" lon="2.33352">
        <ele>40.6</ele>
        <time>2014-06-16T20:54:41Z</time>
      </trkpt>
      <trkpt lat="48.86407" lon="2.33365">
        <ele>41.1</ele>
        <time>2014-06-16T20:54:44Z</time>
      </trkpt>
      <trkpt lat="48.86403" lon="2.33377">
        <ele>40.9</ele>
        <time>2014-06-16T20:54:46Z</time>
      </trkpt>
      <trkpt lat="48.86396" lon="2.33394">
        <ele>40.5</ele>
        <time>2014-06-16T20:54:49Z</time>
      </trkpt>
      <trkpt lat="48.86389" lon="2.33411">
        <ele>40.9</ele>
        <time>2014-06-16T20:54:52Z</time>
      </trkpt>
      <trkpt lat="48.86382" lon="2.3343">
        <ele>40.9</ele>
        <time>2014-06-16T20:54:55Z</time>
      </trkpt>
      <trkpt lat="48.86375" lon="2.33445">
        <ele>41.1</ele>
        <time>2014-06-16T20:54:58Z</time>
      </trkpt>
      <trkpt lat="48.86369" lon="2.33459">
        <ele>40.5</ele>
        <time>2014-06-16T20:55:01Z</time>
      </trkpt>
      <trkpt lat="48.86363" lon="2.33474">
        <ele>40.7</ele>
        <time>2014-06-16T20:55:04Z</time>
      </trkpt>
      <trkpt lat="48.86357" lon="2.3349">
        <ele>40.4</ele>
        <time>2014-06-16T20:55:07Z</time>
      </trkpt>
      <trkpt lat="48.86351" lon="2.33505">
        <ele>39.7</ele>
        <time>2014-06-16T20:55:10Z</time>
      </trkpt>
      <trkpt lat="48.86345" lon="2.33521">
        <ele>40</ele>
        <time>2014-06-16T20:55:13Z</time>
      </trkpt>
      <trkpt lat="48.8634" lon="2.33534">
        <ele>39.8</ele>
        <time>2014-06-16T20:55:15Z</time>
      </trkpt>
      <trkpt lat="48.86335" lon="2.33546">
        <ele>40</ele>
        <time>2014-06-16T20:55:17Z</time>
      </trkpt>
      <trkpt lat="48.86329" lon="2.3356">
        <ele>40.2</ele>
        <time>2014-06-16T20:55:20Z</time>
      </trkpt>
      <trkpt lat="48.86322" lon="2.33575">
        <ele>40.2</ele>
        <time>2014-06-16T20:55:23Z</time>
      </trkpt>
      <trkpt lat="48.86315" lon="2.33587">
        <ele>40.4</ele>
        <time>2014-06-16T20:55:26Z</time>
      </trkpt>
      <trkpt lat="48.86308" lon="2.33599">
        <ele>40.7</ele>
        <time>2014-06-16T20:55:30Z</time>
      </trkpt>
      <trkpt lat="48.86304" lon="2.33611">
        <ele>41</ele>
        <time>2014-06-16T20:55:34Z</time>
      </trkpt>
      <trkpt lat="48.86299" lon="2.33628">
        <ele>41.1</ele>
        <time>2014-06-16T20:55:39Z</time>
      </trkpt>
      <trkpt lat="48.86294" lon="2.33645">
        <ele>40.8</ele>
        <time>2014-06-16T20:55:42Z</time>
      </trkpt>
      <trkpt lat="48.86288" lon="2.33659">
        <ele>40.1</ele>
        <time>2014-06-16T20:55:45Z</time>
      </trkpt>
      <trkpt lat="48.86278" lon="2.33673">
        <ele>40.6</ele>
        <time>2014-06-16T20:55:48Z</time>
      </trkpt>
      <trkpt lat="48.86274" lon="2.33686">
        <ele>40.8</ele>
        <time>2014-06-16T20:55:51Z</time>
      </trkpt>
      <trkpt lat="48.86268" lon="2.33702">
        <ele>40.7</ele>
        <time>2014-06-16T20:55:55Z</time>
      </trkpt>
      <trkpt lat="48.86265" lon="2.33717">
        <ele>41</ele>
        <time>2014-06-16T20:55:59Z</time>
      </trkpt>
      <trkpt lat="48.86262" lon="2.33732">
        <ele>41.5</ele>
        <time>2014-06-16T20:56:03Z</time>
      </trkpt>
      <trkpt lat="48.86262" lon="2.33746">
        <ele>41.4</ele>
        <time>2014-06-16T20:56:07Z</time>
      </trkpt>
      <trkpt lat="48.86258" lon="2.33761">
        <ele>40.2</ele>
        <time>2014-06-16T20:56:11Z</time>
      </trkpt>
      <trkpt lat="48.86253" lon="2.33774">
        <ele>40.5</ele>
        <time>2014-06-16T20:56:14Z</time>
      </trkpt>
      <trkpt lat="48.86247" lon="2.33787">
        <ele>40.2</ele>
        <time>2014-06-16T20:56:17Z</time>
      </trkpt>
      <trkpt lat="48.86243" lon="2.33799">
        <ele>40.2</ele>
        <time>2014-06-16T20:56:21Z</time>
      </trkpt>
      <trkpt lat="48.8624" lon="2.33813">
        <ele>40.2</ele>
        <time>2014-06-16T20:56:24Z</time>
      </trkpt>
      <trkpt lat="48.86238" lon="2.33829">
        <ele>40.5</ele>
        <time>2014-06-16T20:56:27Z</time>
      </trkpt>
      <trkpt lat="48.86235" lon="2.33844">
        <ele>40.7</ele>
        <time>2014-06-16T20:56:29Z</time>
      </trkpt>
      <trkpt lat="48.86233" lon="2.33859">
        <ele>40.3</ele>
        <time>2014-06-16T20:56:31Z</time>
      </trkpt>
      <trkpt lat="48.8623" lon="2.33876">
        <ele>40.1</ele>
        <time>2014-06-16T20:56:33Z</time>
      </trkpt>
      <trkpt lat="48.86228" lon="2.33893">
        <ele>39.7</ele>
        <time>2014-06-16T20:56:35Z</time>
      </trkpt>
      <trkpt lat="48.86224" lon="2.33912">
        <ele>39.6</ele>
        <time>2014-06-16T20:56:37Z</time>
      </trkpt>
      <trkpt lat="48.86221" lon="2.33929">
        <ele>39.9</ele>
        <time>2014-06-16T20:56:39Z</time>
      </trkpt>
      <trkpt lat="48.86218" lon="2.33946">
        <ele>40.3</ele>
        <time>2014-06-16T20:56:41Z</time>
      </trkpt>
      <trkpt lat="48.86214" lon="2.33961">
        <ele>40.6</ele>
        <time>2014-06-16T20:56:43Z</time>
      </trkpt>
      <trkpt lat="48.8621" lon="2.33975">
        <ele>40.4</ele>
        <time>2014-06-16T20:56:45Z</time>
      </trkpt>
      <trkpt lat="48.86204" lon="2.33991">
        <ele>40.3</ele>
        <time>2014-06-16T20:56:48Z</time>
      </trkpt>
      <trkpt lat="48.86201" lon="2.34004">
        <ele>40.9</ele>
        <time>2014-06-16T20:56:51Z</time>
      </trkpt>
      <trkpt lat="48.86195" lon="2.34018">
        <ele>41</ele>
        <time>2014-06-16T20:56:54Z</time>
      </trkpt>
      <trkpt lat="48.86191" lon="2.34034">
        <ele>41.2</ele>
        <time>2014-06-16T20:56:57Z</time>
      </trkpt>
      <trkpt lat="48.86187" lon="2.34047">
        <ele>41.3</ele>
        <time>2014-06-16T20:56:59Z</time>
      </trkpt>
      <trkpt lat="48.86182" lon="2.34064">
        <ele>42.2</ele>
        <time>2014-06-16T20:57:02Z</time>
      </trkpt>
      <trkpt lat="48.86178" lon="2.34078">
        <ele>42.3</ele>
        <time>2014-06-16T20:57:05Z</time>
      </trkpt>
      <trkpt lat="48.86174" lon="2.34091">
        <ele>42.5</ele>
        <time>2014-06-16T20:57:09Z</time>
      </trkpt>
      <trkpt lat="48.8617" lon="2.34103">
        <ele>41.4</ele>
        <time>2014-06-16T20:57:16Z</time>
      </trkpt>
      <trkpt lat="48.86165" lon="2.34115">
        <ele>41.8</ele>
        <time>2014-06-16T20:57:24Z</time>
      </trkpt>
      <trkpt lat="48.86162" lon="2.34129">
        <ele>41.9</ele>
        <time>2014-06-16T20:57:30Z</time>
      </trkpt>
      <trkpt lat="48.86159" lon="2.34143">
        <ele>42.1</ele>
        <time>2014-06-16T20:57:34Z</time>
      </trkpt>
      <trkpt lat="48.86153" lon="2.34154">
        <ele>42</ele>
        <time>2014-06-16T20:57:37Z</time>
      </trkpt>
      <trkpt lat="48.8615" lon="2.3417">
        <ele>41.2</ele>
        <time>2014-06-16T20:57:40Z</time>
      </trkpt>
      <trkpt lat="48.86146" lon="2.34189">
        <ele>42.7</ele>
        <time>2014-06-16T20:57:43Z</time>
      </trkpt>
      <trkpt lat="48.86144" lon="2.34206">
        <ele>42.4</ele>
        <time>2014-06-16T20:57:46Z</time>
      </trkpt>
      <trkpt lat="48.86143" lon="2.34221">
        <ele>42.7</ele>
        <time>2014-06-16T20:57:49Z</time>
      </trkpt>
      <trkpt lat="48.86142" lon="2.34238">
        <ele>42.4</ele>
        <time>2014-06-16T20:57:52Z</time>
      </trkpt>
      <trkpt lat="48.86141" lon="2.34256">
        <ele>42.2</ele>
        <time>2014-06-16T20:57:55Z</time>
      </trkpt>
      <trkpt lat="48.8614" lon="2.3427">
        <ele>42</ele>
        <time>2014-06-16T20:57:58Z</time>
      </trkpt>
      <trkpt lat="48.86138" lon="2.3429">
        <ele>42.3</ele>
        <time>2014-06-16T20:58:02Z</time>
      </trkpt>
      <trkpt lat="48.86136" lon="2.34305">
        <ele>42.5</ele>
        <time>2014-06-16T20:58:05Z</time>
      </trkpt>
      <trkpt lat="48.86135" lon="2.34322">
        <ele>43</ele>
        <time>2014-06-16T20:58:08Z</time>
      </trkpt>
      <trkpt lat="48.86132" lon="2.34338">
        <ele>42.7</ele>
        <time>2014-06-16T20:58:11Z</time>
      </trkpt>
      <trkpt lat="48.8613" lon="2.34355">
        <ele>42.7</ele>
        <time>2014-06-16T20:58:14Z</time>
      </trkpt>
      <trkpt lat="48.86127" lon="2.34372">
        <ele>43.1</ele>
        <time>2014-06-16T20:58:18Z</time>
      </trkpt>
      <trkpt lat="48.86126" lon="2.3439">
        <ele>43.1</ele>
        <time>2014-06-16T20:58:21Z</time>
      </trkpt>
      <trkpt lat="48.86123" lon="2.34403">
        <ele>42.5</ele>
        <time>2014-06-16T20:58:23Z</time>
      </trkpt>
      <trkpt lat="48.8612" lon="2.34418">
        <ele>42</ele>
        <time>2014-06-16T20:58:25Z</time>
      </trkpt>
      <trkpt lat="48.86118" lon="2.34431">
        <ele>42.3</ele>
        <time>2014-06-16T20:58:27Z</time>
      </trkpt>
      <trkpt lat="48.86118" lon="2.34445">
        <ele>42.3</ele>
        <time>2014-06-16T20:58:29Z</time>
      </trkpt>
      <trkpt lat="48.86116" lon="2.34459">
        <ele>42.5</ele>
        <time>2014-06-16T20:58:31Z</time>
      </trkpt>
      <trkpt lat="48.86114" lon="2.34474">
        <ele>42.5</ele>
        <time>2014-06-16T20:58:33Z</time>
      </trkpt>
      <trkpt lat="48.86112" lon="2.34488">
        <ele>42.4</ele>
        <time>2014-06-16T20:58:35Z</time>
      </trkpt>
      <trkpt lat="48.86109" lon="2.34506">
        <ele>42.4</ele>
        <time>2014-06-16T20:58:38Z</time>
      </trkpt>
      <trkpt lat="48.86104" lon="2.34522">
        <ele>42.3</ele>
        <time>2014-06-16T20:58:41Z</time>
      </trkpt>
      <trkpt lat="48.86096" lon="2.34537">
        <ele>41.7</ele>
        <time>2014-06-16T20:58:44Z</time>
      </trkpt>
      <trkpt lat="48.86089" lon="2.34552">
        <ele>41.8</ele>
        <time>2014-06-16T20:58:47Z</time>
      </trkpt>
      <trkpt lat="48.86082" lon="2.34568">
        <ele>42</ele>
        <time>2014-06-16T20:58:50Z</time>
      </trkpt>
      <trkpt lat="48.86077" lon="2.3458">
        <ele>42</ele>
        <time>2014-06-16T20:58:52Z</time>
      </trkpt>
      <trkpt lat="48.86072" lon="2.34593">
        <ele>41.9</ele>
        <time>2014-06-16T20:58:54Z</time>
      </trkpt>
      <trkpt lat="48.86065" lon="2.34605">
        <ele>42</ele>
        <time>2014-06-16T20:58:56Z</time>
      </trkpt>
      <trkpt lat="48.86058" lon="2.34617">
        <ele>41.9</ele>
        <time>2014-06-16T20:58:58Z</time>
      </trkpt>
      <trkpt lat="48.86051" lon="2.34628">
        <ele>42.5</ele>
        <time>2014-06-16T20:59:00Z</time>
      </trkpt>
      <trkpt lat="48.86044" lon="2.3464">
        <ele>42.7</ele>
        <time>2014-06-16T20:59:02Z</time>
      </trkpt>
      <trkpt lat="48.86035" lon="2.34653">
        <ele>42.2</ele>
        <time>2014-06-16T20:59:05Z</time>
      </trkpt>
      <trkpt lat="48.86025" lon="2.34662">
        <ele>41.9</ele>
        <time>2014-06-16T20:59:08Z</time>
      </trkpt>
      <trkpt lat="48.86015" lon="2.3467">
        <ele>41.8</ele>
        <time>2014-06-16T20:59:11Z</time>
      </trkpt>
      <trkpt lat="48.86006" lon="2.34677">
        <ele>41.8</ele>
        <time>2014-06-16T20:59:14Z</time>
      </trkpt>
      <trkpt lat="48.85997" lon="2.34686">
        <ele>42.2</ele>
        <time>2014-06-16T20:59:17Z</time>
      </trkpt>
      <trkpt lat="48.85987" lon="2.34692">
        <ele>42.8</ele>
        <time>2014-06-16T20:59:20Z</time>
      </trkpt>
      <trkpt lat="48.85979" lon="2.34698">
        <ele>43.3</ele>
        <time>2014-06-16T20:59:23Z</time>
      </trkpt>
      <trkpt lat="48.85969" lon="2.34701">
        <ele>44.1</ele>
        <time>2014-06-16T20:59:28Z</time>
      </trkpt>
      <trkpt lat="48.85959" lon="2.34703">
        <ele>44.5</ele>
        <time>2014-06-16T20:59:33Z</time>
      </trkpt>
      <trkpt lat="48.85948" lon="2.34711">
        <ele>43.5</ele>
        <time>2014-06-16T20:59:37Z</time>
      </trkpt>
      <trkpt lat="48.8594" lon="2.34716">
        <ele>43.4</ele>
        <time>2014-06-16T20:59:40Z</time>
      </trkpt>
      <trkpt lat="48.8593" lon="2.34723">
        <ele>43.4</ele>
        <time>2014-06-16T20:59:43Z</time>
      </trkpt>
      <trkpt lat="48.8592" lon="2.34728">
        <ele>43.2</ele>
        <time>2014-06-16T20:59:46Z</time>
      </trkpt>
      <trkpt lat="48.85911" lon="2.34734">
        <ele>43.2</ele>
        <time>2014-06-16T20:59:49Z</time>
      </trkpt>
      <trkpt lat="48.85901" lon="2.34738">
        <ele>43.1</ele>
        <time>2014-06-16T20:59:53Z</time>
      </trkpt>
      <trkpt lat="48.85891" lon="2.34743">
        <ele>43.3</ele>
        <time>2014-06-16T20:59:57Z</time>
      </trkpt>
      <trkpt lat="48.85882" lon="2.34751">
        <ele>43.9</ele>
        <time>2014-06-16T21:00:00Z</time>
      </trkpt>
      <trkpt lat="48.85873" lon="2.34762">
        <ele>44.3</ele>
        <time>2014-06-16T21:00:03Z</time>
      </trkpt>
      <trkpt lat="48.85867" lon="2.34774">
        <ele>43.6</ele>
        <time>2014-06-16T21:00:06Z</time>
      </trkpt>
      <trkpt lat="48.85865" lon="2.34789">
        <ele>43.6</ele>
        <time>2014-06-16T21:00:11Z</time>
      </trkpt>
      <trkpt lat="48.85861" lon="2.34802">
        <ele>43.2</ele>
        <time>2014-06-16T21:00:15Z</time>
      </trkpt>
      <trkpt lat="48.85852" lon="2.34812">
        <ele>43.4</ele>
        <time>2014-06-16T21:00:19Z</time>
      </trkpt>
      <trkpt lat="48.85843" lon="2.34821">
        <ele>42.9</ele>
        <time>2014-06-16T21:00:24Z</time>
      </trkpt>
      <trkpt lat="48.85835" lon="2.34833">
        <ele>43.1</ele>
        <time>2014-06-16T21:00:28Z</time>
      </trkpt>
      <trkpt lat="48.8583" lon="2.34846">
        <ele>43.5</ele>
        <time>2014-06-16T21:00:32Z</time>
      </trkpt>
      <trkpt lat="48.85825" lon="2.34859">
        <ele>43</ele>
        <time>2014-06-16T21:00:35Z</time>
      </trkpt>
      <trkpt lat="48.8582" lon="2.34871">
        <ele>42.8</ele>
        <time>2014-06-16T21:00:37Z</time>
      </trkpt>
      <trkpt lat="48.85815" lon="2.34884">
        <ele>43</ele>
        <time>2014-06-16T21:00:39Z</time>
      </trkpt>
      <trkpt lat="48.8581" lon="2.34897">
        <ele>43</ele>
        <time>2014-06-16T21:00:41Z</time>
      </trkpt>
      <trkpt lat="48.85806" lon="2.34911">
        <ele>42.9</ele>
        <time>2014-06-16T21:00:43Z</time>
      </trkpt>
      <trkpt lat="48.85802" lon="2.34923">
        <ele>42.1</ele>
        <time>2014-06-16T21:00:45Z</time>
      </trkpt>
      <trkpt lat="48.85797" lon="2.34939">
        <ele>41.7</ele>
        <time>2014-06-16T21:00:48Z</time>
      </trkpt>
      <trkpt lat="48.85793" lon="2.34956">
        <ele>41.9</ele>
        <time>2014-06-16T21:00:52Z</time>
      </trkpt>
      <trkpt lat="48.85789" lon="2.34972">
        <ele>42.9</ele>
        <time>2014-06-16T21:00:56Z</time>
      </trkpt>
      <trkpt lat="48.85785" lon="2.34985">
        <ele>42.3</ele>
        <time>2014-06-16T21:00:59Z</time>
      </trkpt>
      <trkpt lat="48.85781" lon="2.35">
        <ele>43.1</ele>
        <time>2014-06-16T21:01:02Z</time>
      </trkpt>
      <trkpt lat="48.85777" lon="2.35016">
        <ele>42.6</ele>
        <time>2014-06-16T21:01:05Z</time>
      </trkpt>
      <trkpt lat="48.85773" lon="2.3503">
        <ele>42.5</ele>
        <time>2014-06-16T21:01:08Z</time>
      </trkpt>
      <trkpt lat="48.85767" lon="2.35046">
        <ele>42</ele>
        <time>2014-06-16T21:01:11Z</time>
      </trkpt>
      <trkpt lat="48.85763" lon="2.35061">
        <ele>42.4</ele>
        <time>2014-06-16T21:01:14Z</time>
      </trkpt>
      <trkpt lat="48.85758" lon="2.35075">
        <ele>42.1</ele>
        <time>2014-06-16T21:01:17Z</time>
      </trkpt>
      <trkpt lat="48.85752" lon="2.3509">
        <ele>41.9</ele>
        <time>2014-06-16T21:01:21Z</time>
      </trkpt>
      <trkpt lat="48.8575" lon="2.35104">
        <ele>41.9</ele>
        <time>2014-06-16T21:01:28Z</time>
      </trkpt>
      <trkpt lat="48.85746" lon="2.35121">
        <ele>42</ele>
        <time>2014-06-16T21:01:33Z</time>
      </trkpt>
      <trkpt lat="48.85744" lon="2.35137">
        <ele>41.7</ele>
        <time>2014-06-16T21:01:37Z</time>
      </trkpt>
      <trkpt lat="48.85742" lon="2.35155">
        <ele>41.6</ele>
        <time>2014-06-16T21:01:41Z</time>
      </trkpt>
    </trkseg>
  </trk>
</gpx>